ECMWFNIL_850_thetae_000.txt.gz
Theta_e
314 313 312 310 309 307 308 308 307 306 306 306 306 306 307 308 307 306 305 305 305 305 305 305 305 304 304 303 303 304 306 308 309 309 313 316 318 319 321 322 323 323
313 313 312 310 309 308 308 308 306 306 306 306 306 306 306 306 306 306 305 305 304 304 304 305 305 305 304 304 304 304 305 307 308 308 310 314 317 318 318 319 320 322
312 312 311 310 309 308 308 307 306 306 306 306 306 305 306 305 306 305 305 304 304 303 304 305 306 306 306 306 305 304 305 307 309 311 313 315 317 318 318 317 318 320
311 312 311 309 308 307 307 306 306 306 306 306 306 306 305 305 305 304 304 304 304 304 305 307 307 308 309 309 308 306 305 306 309 312 314 315 316 317 319 319 318 319
311 311 311 310 308 307 307 306 306 306 306 306 306 305 305 304 304 303 303 303 303 303 304 305 307 308 309 309 309 308 307 305 307 310 313 314 314 315 318 320 320 320
311 311 310 309 308 307 307 306 306 306 306 306 305 305 304 304 303 303 303 303 303 302 302 303 306 307 308 308 308 309 308 307 306 307 310 312 313 315 316 319 320 321
310 311 310 309 308 308 307 307 307 306 306 305 305 304 304 303 303 303 303 303 303 303 302 302 304 306 307 307 307 308 308 308 307 306 307 309 312 314 315 317 319 320
310 311 310 309 308 307 307 306 306 306 305 305 304 304 304 303 304 304 304 304 303 303 303 303 304 305 306 306 306 307 307 308 307 307 306 307 309 311 313 315 317 319
311 311 310 309 308 307 307 306 306 306 305 304 304 304 304 304 304 304 304 304 304 304 304 305 305 305 305 306 306 306 307 308 308 307 306 306 306 307 309 312 314 316
311 311 311 310 309 307 307 306 306 305 305 304 304 304 305 305 305 305 304 304 303 304 305 305 305 305 305 305 305 306 307 308 308 308 307 306 306 306 306 308 310 313
312 312 311 310 309 308 307 306 306 305 304 304 305 305 305 305 305 305 304 304 304 304 304 304 305 305 305 304 305 306 307 307 307 307 308 308 307 307 307 307 308 309
313 312 311 311 310 308 307 307 306 305 305 305 305 305 305 305 304 304 304 304 304 304 303 303 303 303 304 304 305 306 307 306 306 306 307 308 308 308 308 308 308 308
313 312 311 311 310 309 308 307 306 305 305 305 305 305 304 303 303 303 303 303 303 303 303 303 303 303 304 305 306 306 306 306 306 306 306 307 308 308 308 308 308 308
313 312 311 310 310 309 308 307 306 305 305 305 304 303 303 302 302 303 303 303 303 303 303 303 303 303 303 304 306 306 306 305 305 305 305 305 306 307 308 308 309 309
313 312 311 311 310 309 307 306 306 305 305 304 303 303 303 303 303 303 303 303 303 303 303 303 303 303 303 304 305 305 304 304 304 304 304 304 305 305 306 307 307 308
312 311 310 310 309 308 307 306 306 306 305 304 304 303 303 303 303 303 303 303 303 302 302 302 302 302 303 303 303 304 303 303 303 303 303 303 304 304 304 305 305 306
310 310 310 309 308 307 307 307 306 305 305 304 304 303 303 303 303 303 302 302 302 302 301 301 301 301 301 302 302 302 302 302 302 302 301 301 302 303 303 304 304 305
310 310 310 309 308 307 307 306 306 305 305 304 304 303 303 303 303 302 302 301 301 301 300 300 300 300 300 300 301 301 301 301 301 301 301 301 301 301 301 302 303 304
310 310 309 308 308 307 306 306 305 305 304 304 304 303 303 302 302 302 301 301 300 300 300 299 299 299 299 299 299 299 300 300 300 300 300 300 300 300 300 301 301 302
310 309 308 307 307 306 305 305 305 304 304 304 303 303 303 302 302 301 300 300 300 299 299 299 298 298 298 298 298 298 298 298 298 299 299 299 299 300 300 300 301 301
309 308 307 307 306 305 305 305 305 304 303 303 303 302 302 302 301 300 300 299 299 299 299 299 298 298 297 297 297 297 297 297 297 297 297 298 298 298 299 299 299 300
307 307 306 306 305 305 305 305 305 304 303 303 302 302 301 301 300 300 299 299 299 299 299 298 298 297 297 297 297 297 297 296 297 296 296 296 297 297 298 298 298 299
306 306 306 306 305 305 305 305 304 304 303 302 301 301 301 300 300 299 299 299 299 298 298 298 297 297 297 296 296 296 296 296 296 296 295 295 296 297 297 298 298 298
306 305 305 305 305 305 304 304 304 303 302 301 300 300 300 300 299 298 298 298 298 298 297 297 296 296 296 295 295 295 295 295 295 295 295 295 295 296 297 297 298 298
304 304 304 304 304 304 304 303 303 302 301 300 300 300 299 299 298 298 298 298 297 297 296 296 295 295 295 295 295 295 295 295 295 295 295 295 295 295 296 297 297 297
303 303 303 303 303 303 302 302 301 301 300 299 299 299 298 298 298 297 297 297 297 296 296 295 294 294 294 294 294 294 294 294 294 294 294 295 295 295 296 296 296 297

ECMWFNIL_850_thetae_003.txt.gz
Theta_e
314 313 314 314 313 311 310 310 309 309 308 307 306 306 306 306 306 306 306 305 305 305 304 303 303 302 302 303 303 304 304 303 303 302 303 305 308 312 315 318 320 320
313 312 312 312 313 312 310 309 309 309 308 307 306 306 306 306 306 306 306 305 305 304 303 303 302 302 302 303 303 304 304 303 303 302 302 303 305 307 309 312 317 319
312 311 311 311 312 311 310 309 309 309 308 307 306 306 306 306 306 306 305 305 304 303 303 303 302 302 302 303 303 304 304 304 304 303 303 303 304 306 307 308 310 314
311 310 310 310 310 311 310 310 310 309 308 307 306 306 306 306 306 305 305 304 303 303 303 303 302 302 302 302 303 303 304 305 305 305 304 304 304 305 306 308 309 311
310 310 310 310 310 310 310 310 310 309 307 306 306 306 306 306 306 305 304 303 303 303 303 303 302 302 302 302 302 303 304 304 305 306 305 305 304 304 305 307 310 312
310 310 310 310 310 310 310 310 309 308 307 306 306 306 306 306 305 304 303 303 303 303 303 303 303 302 302 302 302 303 303 304 305 306 307 306 305 305 305 306 309 312
310 311 310 310 309 309 309 309 309 308 307 307 306 306 306 305 305 304 303 303 303 303 303 303 303 302 302 303 303 303 303 303 304 305 306 307 307 307 306 306 307 310
311 311 310 310 309 309 309 309 309 308 307 307 306 306 306 305 304 303 303 303 303 303 303 303 303 303 303 304 304 304 304 303 303 304 305 306 307 308 308 308 307 308
310 311 310 310 309 309 309 309 308 308 307 307 306 306 305 304 303 303 303 303 303 303 303 303 303 303 304 304 304 304 304 304 304 303 303 304 304 306 308 309 309 308
310 310 310 310 309 309 309 308 308 308 307 307 306 305 304 303 303 303 303 303 303 303 303 303 303 303 304 304 304 304 304 304 303 303 303 303 304 305 307 309 310 310
310 310 310 310 309 309 309 309 308 307 307 306 305 304 303 303 303 303 303 303 303 303 303 303 303 303 303 303 303 303 303 303 303 303 304 304 305 306 307 308 309 310
311 311 310 310 310 309 309 309 308 307 306 305 304 303 303 303 303 303 303 303 303 302 302 302 302 303 302 302 302 302 302 303 303 304 304 305 306 306 307 308 308 308
312 311 311 311 311 310 310 309 308 307 306 304 304 303 303 303 303 303 303 303 302 302 302 302 303 303 303 302 302 302 302 302 303 303 303 303 304 304 305 306 307 307
312 312 312 312 311 311 310 309 308 307 306 304 304 304 304 304 304 303 303 302 302 302 302 302 303 303 303 302 302 302 302 302 302 302 302 302 302 302 303 304 304 304
313 313 313 312 312 311 310 309 308 307 306 305 304 304 304 304 303 303 302 302 302 302 302 302 302 302 302 301 301 301 301 302 302 301 302 302 302 302 302 302 303 303
314 314 313 313 312 311 310 309 308 307 305 304 304 304 304 304 303 303 303 303 303 302 302 302 301 301 301 300 300 300 300 300 301 301 301 301 301 301 301 301 301 302
315 314 313 313 312 310 310 309 307 306 305 305 305 304 304 304 303 303 303 303 303 302 302 301 301 300 300 299 299 299 299 299 299 300 300 300 300 300 300 300 300 300
315 314 313 312 311 310 309 307 305 305 305 305 305 304 304 304 303 303 303 303 303 302 302 301 300 299 298 298 298 298 298 298 298 298 298 298 299 299 299 299 299 299
314 313 312 311 310 309 307 306 305 305 305 305 305 304 304 303 303 303 303 302 302 302 301 300 299 297 297 298 298 298 298 298 297 297 297 297 297 297 297 298 298 298
313 311 311 310 309 307 305 305 305 305 305 305 304 304 303 303 303 303 302 302 301 301 300 299 298 297 298 298 298 298 298 298 297 297 297 297 296 296 296 296 296 297
311 310 310 309 308 306 305 304 305 305 305 304 304 303 303 302 302 301 301 301 300 300 300 299 298 298 298 298 298 298 297 297 297 297 297 296 296 296 295 295 296 296
310 310 310 308 306 305 304 305 305 305 305 304 304 303 302 302 301 301 300 300 300 299 298 298 297 297 298 298 298 297 297 297 296 296 295 295 295 295 295 295 295 295
310 310 308 306 304 304 305 305 305 305 305 304 303 303 302 301 300 300 299 299 298 297 296 296 296 297 297 297 297 297 296 296 295 295 294 294 294 294 294 294 294 294
309 308 306 304 304 305 305 305 305 305 304 303 303 302 301 300 299 299 298 297 295 295 295 296 296 296 296 296 296 295 295 294 294 294 293 293 293 293 293 293 293 293
308 306 304 304 305 305 305 304 304 303 302 302 300 300 299 299 298 297 296 294 294 294 295 295 295 294 294 294 294 294 294 293 293 293 293 293 293 293 293 293 293 293
306 303 302 302 302 302 301 301 301 300 300 299 298 298 298 298 296 295 294 293 294 294 294 294 294 293 293 293 293 293 293 293 293 293 292 292 292 292 293 293 293 293

ECMWFNIL_850_thetae_006.txt.gz
Theta_e
314 314 313 313 314 313 314 313 311 310 310 309 308 307 307 307 306 306 306 306 305 305 304 304 304 304 304 304 304 303 303 302 302 302 303 303 303 303 304 306 310 314
315 313 313 314 313 314 314 313 311 310 310 309 308 307 306 306 306 306 306 306 305 304 304 303 303 304 304 304 304 304 304 303 302 303 303 303 302 302 302 303 304 307
315 314 314 313 313 314 314 313 311 310 310 309 308 307 306 306 306 306 306 305 305 304 303 303 303 304 304 304 304 304 304 303 303 302 303 303 304 303 302 302 302 303
314 313 313 312 312 312 313 313 311 310 309 309 309 307 305 305 305 306 306 305 304 304 303 303 303 303 304 303 303 303 303 303 303 303 303 303 304 304 304 303 302 302
312 313 313 311 311 311 312 312 311 310 309 309 309 307 305 305 305 305 306 304 304 303 303 303 303 303 303 303 303 303 303 303 303 303 303 302 303 304 304 305 304 303
311 313 313 311 310 310 310 311 310 310 309 309 309 307 305 305 305 306 305 304 303 303 303 303 303 303 303 303 303 303 303 303 302 302 302 302 302 302 303 305 305 305
311 312 312 310 310 310 310 310 310 310 310 309 308 307 305 305 305 305 304 303 303 303 303 303 303 303 303 303 303 302 303 303 303 303 303 302 302 302 302 303 305 306
310 312 311 310 310 310 310 310 310 310 309 309 308 306 305 306 306 305 303 303 303 303 303 303 303 303 302 302 302 302 303 303 303 303 303 302 302 302 302 302 303 304
310 312 312 310 310 310 310 309 309 309 309 308 307 305 305 306 305 304 303 303 303 303 303 303 303 303 302 302 302 302 302 302 302 302 302 302 302 302 303 303 303 303
310 312 312 310 310 311 310 310 309 309 309 308 306 306 306 305 304 303 303 303 303 303 303 303 303 303 302 302 302 302 302 302 302 302 302 301 302 302 303 303 304 304
311 312 312 311 310 311 310 309 309 309 308 308 307 306 306 304 303 303 303 303 303 304 304 303 303 303 302 302 302 302 301 302 302 301 301 301 301 301 302 302 302 302
312 312 312 310 310 310 310 309 309 309 308 308 307 306 305 303 303 303 304 304 304 304 304 303 303 302 302 302 301 301 301 301 301 301 300 300 300 300 301 301 301 301
313 312 311 311 310 310 310 309 309 308 309 308 307 305 304 303 303 303 304 304 304 304 303 303 302 302 301 301 301 300 300 300 300 300 300 300 300 300 300 301 301 301
316 314 312 311 310 310 310 310 309 309 309 308 306 305 304 304 304 304 304 304 304 303 303 302 302 301 301 301 301 300 299 298 298 298 298 299 299 299 299 300 300 300
319 317 313 311 311 311 310 310 310 309 309 307 305 304 304 304 304 304 304 304 303 302 302 302 302 302 301 301 301 300 299 297 296 297 298 298 299 299 298 299 299 299
320 318 314 312 312 311 311 311 310 309 308 307 305 305 305 305 305 305 304 303 302 302 302 302 302 302 302 301 301 300 298 297 296 296 298 298 298 298 298 298 298 298
319 317 314 313 313 312 312 311 310 309 307 306 305 305 305 305 305 305 303 302 302 302 302 303 302 302 301 301 300 300 298 297 296 297 298 298 298 298 298 298 297 297
317 316 314 314 313 313 312 311 310 309 307 305 305 305 305 306 305 304 303 302 303 303 302 302 301 301 300 300 299 298 298 297 297 297 298 298 298 298 297 297 297 297
318 317 314 313 314 313 312 311 309 307 305 305 305 306 306 305 304 303 303 303 303 302 302 301 300 299 299 298 297 296 296 297 297 297 297 298 297 297 297 297 296 296
318 315 313 314 314 313 312 310 307 305 304 305 306 306 305 304 303 303 303 303 302 301 300 299 298 297 296 295 295 295 295 296 296 296 297 297 297 297 296 296 296 295
316 314 314 314 313 312 310 307 304 304 305 306 305 305 305 304 303 303 302 301 300 299 298 297 296 295 295 295 295 296 296 296 295 296 296 296 296 296 296 295 295 294
314 314 313 313 312 311 307 303 303 305 305 305 305 305 305 304 303 302 300 298 297 296 295 294 294 295 296 296 296 296 295 295 295 295 295 295 295 295 295 294 294 294
313 313 312 312 311 307 304 303 305 305 305 305 305 305 304 303 301 299 296 295 295 294 293 293 293 294 294 295 296 295 295 295 294 294 294 294 294 294 294 294 293 293
313 311 310 310 308 305 303 303 305 305 305 305 305 304 302 299 297 296 295 295 294 294 293 293 292 292 293 294 295 295 294 294 294 293 293 293 293 293 293 293 293 293
311 310 310 309 306 302 302 304 305 305 305 304 302 300 298 297 297 297 296 296 295 295 294 293 292 292 292 293 294 294 294 293 293 293 293 292 292 292 292 292 293 293
309 309 309 307 303 302 304 305 304 303 301 300 298 297 297 297 298 298 297 296 296 295 295 294 292 292 292 293 294 294 293 293 293 293 293 293 292 292 292 292 292 292

ECMWFNIL_850_thetae_009.txt.gz
Theta_e
313 312 312 312 311 311 312 312 313 313 311 310 310 309 308 307 307 306 306 306 305 305 304 304 304 304 304 304 304 304 304 304 303 303 302 302 302 302 303 303 303 303
314 313 313 313 312 312 312 312 313 313 312 311 310 309 308 308 307 307 306 306 306 305 304 304 304 304 304 305 305 305 304 304 303 303 303 302 302 302 303 303 303 302
314 314 314 313 312 311 312 312 312 313 312 311 310 309 309 308 307 307 306 306 306 305 304 303 304 304 304 305 305 305 305 304 304 303 303 303 302 302 302 303 303 303
315 315 314 313 312 312 312 312 312 313 312 311 311 309 309 308 307 306 306 306 306 305 304 303 304 304 304 305 304 304 304 304 304 303 303 303 302 302 302 302 302 303
316 315 314 314 313 312 312 311 312 312 312 312 311 310 309 308 307 306 306 306 306 305 304 303 304 304 304 304 304 304 304 304 303 303 303 303 303 302 302 302 302 302
316 316 316 315 314 312 311 311 311 312 312 312 311 310 309 309 307 306 306 306 306 305 303 303 303 304 304 304 304 304 304 304 303 303 303 303 303 303 302 302 302 302
316 316 316 316 315 313 311 311 311 312 312 312 311 310 309 309 307 305 305 305 306 304 303 303 303 303 304 304 304 303 303 303 303 302 302 302 302 302 302 302 302 302
316 316 316 317 317 314 312 311 310 311 312 311 311 310 310 309 307 305 305 305 305 304 303 303 303 303 303 303 303 303 302 302 302 302 302 302 301 302 302 302 302 302
317 317 317 318 317 315 313 311 310 311 311 311 310 310 310 310 307 304 305 305 304 303 303 303 303 303 303 303 302 302 302 301 301 301 300 300 300 300 301 301 301 301
319 319 318 318 318 317 314 312 311 311 311 311 310 310 310 309 307 305 305 305 303 303 303 303 303 303 303 303 302 302 301 301 300 300 299 299 299 299 299 299 299 300
320 320 320 319 319 318 316 313 312 312 311 311 311 311 311 309 306 305 305 304 303 303 303 303 304 304 304 303 302 301 301 300 300 299 298 298 297 297 298 298 298 299
320 320 320 320 319 319 317 314 312 312 312 311 311 311 310 307 305 305 305 303 303 303 303 304 305 305 304 303 302 301 300 300 300 299 299 298 297 296 296 296 297 298
319 319 319 319 319 320 319 315 313 312 312 311 311 310 308 306 306 305 304 303 303 303 304 305 305 305 303 302 301 301 301 300 300 300 299 298 297 296 295 295 297 298
319 320 319 317 318 320 319 316 313 312 312 311 310 309 307 307 305 304 303 303 303 304 305 305 305 303 302 301 301 301 301 301 300 299 299 298 297 296 295 295 296 298
319 321 320 316 316 320 319 315 312 312 312 310 309 309 308 306 304 303 303 303 303 304 305 305 303 302 301 301 301 301 300 300 299 299 298 297 296 295 295 295 296 297
320 321 321 317 317 320 319 314 312 312 311 310 310 309 307 305 304 304 304 303 304 305 305 304 302 301 301 302 301 300 300 299 298 297 296 295 295 295 295 295 296 296
321 321 322 319 318 319 318 313 311 311 311 310 309 307 306 304 304 304 304 304 305 305 304 302 301 302 302 301 300 299 298 297 296 295 295 295 295 295 295 295 296 297
322 322 322 320 319 318 316 312 311 311 310 310 308 306 305 304 304 304 304 304 305 304 302 302 302 302 301 300 298 296 295 295 295 296 296 296 296 296 296 297 297 297
321 322 321 319 318 316 314 311 311 311 311 309 307 305 304 304 304 304 305 305 304 303 302 302 302 301 299 296 295 294 294 294 295 296 296 296 296 297 297 297 298 298
321 321 321 319 316 314 312 311 312 312 310 308 306 305 304 304 304 305 305 305 303 302 302 301 300 297 295 294 293 293 293 293 294 295 295 296 296 296 296 297 297 297
320 321 319 318 315 313 312 312 312 311 309 308 306 305 304 304 305 306 305 304 303 302 301 298 296 294 293 293 292 292 292 293 294 294 295 295 295 296 296 296 297 297
320 319 317 316 314 313 312 312 312 310 308 306 305 304 304 305 305 305 304 304 302 300 297 295 294 294 293 292 292 292 293 293 293 293 294 294 295 295 296 296 296 296
319 319 317 315 314 313 312 312 311 309 306 303 303 304 305 305 305 304 303 301 298 296 296 295 295 294 293 292 292 292 293 293 292 293 293 294 294 295 295 295 295 295
318 318 317 314 312 311 311 312 309 306 303 303 304 305 305 305 304 302 299 297 296 296 297 296 295 293 292 292 292 293 293 293 292 292 292 293 294 294 294 294 294 294
317 317 315 312 309 310 311 310 307 304 303 304 305 305 304 303 300 298 296 297 297 297 297 295 293 292 292 292 293 293 293 293 292 291 292 293 293 294 294 294 294 294
316 315 313 311 310 310 309 307 304 303 304 305 304 303 301 299 297 296 297 297 297 297 296 294 292 292 293 293 293 293 293 293 291 291 292 293 293 293 294 294 294 294

ECMWFNIL_850_thetae_012.txt.gz
Theta_e
311 311 311 311 311 310 310 310 310 311 311 311 310 309 308 307 307 306 306 306 306 305 304 304 303 303 303 303 304 304 304 304 304 304 303 303 303 302 302 303 303 303
311 311 311 311 311 311 310 310 310 311 312 312 311 310 309 308 308 307 306 306 306 305 305 304 303 303 303 304 304 304 304 304 303 303 303 303 302 302 302 302 302 302
312 312 312 312 312 312 311 310 310 310 311 313 312 311 310 309 308 308 307 306 306 306 305 304 303 303 304 304 304 304 304 303 303 303 302 302 302 302 302 302 302 302
313 313 313 313 313 313 312 311 310 310 310 311 312 312 310 310 309 308 308 307 306 306 305 305 304 303 303 303 304 304 304 303 303 303 302 302 302 302 302 302 302 302
314 314 314 314 314 314 314 312 310 310 310 311 312 312 311 310 309 309 308 307 306 306 306 305 304 303 303 303 303 304 303 303 303 302 302 302 302 302 302 302 302 302
316 316 316 315 315 316 315 313 311 310 310 311 312 312 312 310 309 309 308 307 307 306 306 306 305 303 303 303 303 304 304 303 303 302 302 302 302 301 301 301 301 301
317 317 317 317 317 317 317 315 312 310 311 311 312 312 312 310 309 309 308 307 306 306 306 306 305 303 303 303 304 304 304 303 303 302 302 301 301 300 300 300 300 300
318 318 317 317 318 318 318 317 314 311 311 311 312 312 312 311 310 309 309 308 306 306 306 306 305 303 303 303 304 304 304 304 303 303 302 301 301 300 299 299 299 298
318 318 318 318 318 318 319 319 316 313 312 312 312 312 313 312 310 309 309 308 306 306 306 306 305 303 303 303 304 304 304 304 303 303 302 302 301 300 300 299 299 298
318 318 318 318 318 318 318 319 318 315 313 313 312 312 312 312 311 310 309 308 307 305 306 306 305 303 303 303 304 304 304 303 303 302 301 301 300 300 299 299 299 298
318 317 318 318 318 319 318 319 319 317 315 314 313 313 313 312 311 310 310 309 307 305 305 305 304 302 303 303 303 304 303 303 302 302 301 300 299 299 299 299 299 298
319 319 319 318 318 318 319 319 319 318 317 315 314 313 313 312 311 310 310 309 307 305 305 304 303 302 303 303 303 303 303 302 302 301 300 299 299 299 299 299 298 297
320 320 320 319 318 319 319 319 319 319 318 317 315 314 313 312 311 311 311 309 306 305 305 303 302 302 303 303 303 302 302 301 301 300 299 300 300 299 298 297 296 296
321 321 320 320 320 319 319 319 318 318 319 318 316 314 313 312 311 311 310 308 306 305 304 303 302 303 304 303 302 301 301 300 300 300 300 300 299 297 296 295 295 295
320 321 321 320 320 319 319 319 317 316 318 318 316 314 312 311 311 311 309 307 305 304 303 303 303 304 304 303 302 301 300 300 300 300 299 297 296 295 295 295 296 296
318 319 320 320 321 320 320 320 318 317 317 318 317 314 312 311 311 310 308 306 305 304 303 303 304 304 304 302 301 301 300 300 299 297 296 294 294 294 295 295 296 296
315 317 318 319 320 321 320 320 319 317 316 316 315 313 312 311 310 308 307 305 304 303 303 304 304 304 303 302 301 301 300 299 296 294 294 293 294 294 294 295 295 296
311 314 316 318 319 320 320 319 318 316 315 315 313 312 312 310 309 308 306 304 303 303 304 304 304 304 302 301 301 300 298 296 294 293 293 293 293 293 293 294 294 295
310 312 314 317 318 319 320 319 317 315 315 314 312 311 311 310 309 307 305 303 303 304 304 305 304 303 302 301 300 298 295 293 292 292 293 293 293 293 293 293 294 294
308 310 313 316 318 319 319 319 317 315 314 313 312 310 310 309 308 305 304 303 304 304 305 304 303 302 301 300 297 294 293 292 292 292 293 293 293 293 293 293 293 294
306 309 312 315 317 319 318 318 317 315 314 313 311 310 309 308 306 304 303 304 305 305 305 304 303 301 300 297 294 292 292 291 292 292 293 293 293 293 292 293 293 294
304 307 311 314 316 317 317 317 316 315 314 312 310 310 309 307 304 304 304 305 305 305 304 303 302 300 297 295 293 292 292 292 293 293 293 293 292 292 292 292 293 294
303 306 310 314 316 317 317 317 315 314 313 311 310 309 307 305 304 304 305 305 305 304 303 302 300 297 295 293 292 292 292 293 293 293 293 293 292 292 292 292 293 294
304 306 310 314 315 316 317 316 314 312 311 310 309 308 306 305 305 305 305 304 304 303 301 299 297 295 293 292 292 292 293 293 293 293 293 292 292 291 291 292 293 294
305 306 310 313 315 316 316 316 313 310 310 310 309 307 306 305 304 304 303 303 302 300 298 296 295 295 293 292 292 293 293 293 293 293 293 292 291 291 291 292 293 294
305 307 310 312 315 315 315 315 312 310 310 309 307 305 304 303 303 303 302 301 299 297 296 295 295 294 293 293 293 293 293 293 293 293 292 291 290 290 291 292 293 293

ECMWFNIL_850_thetae_015.txt.gz
Theta_e
310 309 309 309 310 310 310 311 311 311 312 312 311 309 308 307 307 307 306 306 306 305 305 304 304 304 304 304 304 304 304 304 304 304 304 304 304 303 303 303 302 302
311 310 309 309 309 310 311 311 311 311 312 312 312 311 309 308 308 307 307 306 306 305 305 305 304 304 304 304 304 304 304 304 304 304 304 304 303 303 303 303 302 302
312 311 310 310 310 310 311 311 311 311 312 312 313 312 311 310 309 307 307 306 306 306 306 305 305 305 304 304 304 304 304 305 304 304 304 304 303 303 303 302 302 302
313 312 312 311 310 310 311 312 312 312 312 312 313 313 312 311 310 308 308 307 306 306 306 306 305 305 304 304 304 304 305 304 304 305 304 304 304 303 303 303 302 302
314 313 313 312 311 311 311 312 312 312 312 312 312 313 313 313 311 310 309 308 307 306 306 306 306 305 304 304 304 304 304 304 304 304 304 304 304 303 303 303 302 302
314 315 314 313 313 313 312 313 313 313 313 313 313 313 313 313 313 311 310 309 308 307 306 306 306 305 305 304 303 303 304 304 304 304 304 304 304 303 303 302 302 301
314 316 316 316 315 314 314 313 314 315 315 314 313 313 313 313 313 312 311 310 309 307 306 306 306 306 305 305 303 303 303 304 304 304 304 304 304 303 303 303 302 301
313 315 317 317 317 316 316 315 315 316 316 315 314 313 313 313 314 313 312 311 310 308 307 306 305 305 305 305 304 303 303 303 303 303 303 303 303 303 303 303 302 301
313 314 316 317 317 317 317 317 317 317 317 317 316 314 313 314 314 314 313 312 311 309 308 307 306 305 305 305 304 303 302 303 303 303 303 303 302 302 302 302 301 301
316 315 315 315 317 317 317 317 317 317 317 318 318 316 314 314 314 314 314 313 312 310 309 308 306 305 305 305 304 303 302 303 303 303 303 302 302 301 301 300 300 300
319 318 316 315 315 317 317 317 318 318 318 318 318 318 316 315 314 314 314 313 312 311 309 308 307 306 305 305 305 304 303 303 303 303 303 303 302 301 300 300 300 299
320 320 319 318 316 316 316 317 318 318 318 318 318 319 318 316 315 315 314 314 313 311 310 309 308 306 305 305 305 305 303 303 303 303 303 303 302 301 300 300 299 298
319 320 320 320 319 318 317 317 317 318 318 318 318 318 319 318 316 315 315 314 313 312 310 310 309 307 305 305 305 304 303 303 303 303 303 302 302 301 300 299 297 296
316 318 319 320 321 320 320 319 319 318 318 319 318 318 318 318 316 315 315 314 313 312 311 310 309 308 306 305 305 304 303 303 303 303 302 302 301 300 299 297 296 295
312 314 315 317 319 320 320 320 320 320 320 319 319 318 317 317 315 314 314 314 313 313 311 310 310 307 306 305 304 303 303 303 303 302 302 301 300 299 297 296 294 294
306 308 310 313 316 318 319 320 320 320 320 320 319 318 317 317 315 313 313 313 313 312 311 311 309 307 305 304 303 303 303 303 302 301 301 300 298 296 295 294 294 294
304 305 306 308 311 313 316 318 319 320 320 320 320 319 317 317 316 314 312 312 312 312 311 310 308 306 305 304 303 303 303 302 302 301 299 298 296 294 293 293 293 293
303 303 304 305 306 308 311 315 317 319 320 319 320 319 318 317 316 314 313 312 311 311 310 308 307 305 304 303 303 303 302 302 301 299 297 295 293 293 292 293 293 293
302 303 303 303 303 304 307 310 314 317 319 319 319 319 318 316 315 314 313 312 311 310 308 307 305 304 304 304 303 303 302 301 299 297 294 293 292 292 293 293 293 293
301 301 302 302 303 303 304 307 311 315 317 318 319 318 317 315 314 314 312 311 311 309 307 306 305 304 304 304 303 302 301 299 297 294 293 292 292 293 293 292 292 292
301 301 301 302 302 302 303 305 308 313 315 317 318 318 317 315 314 313 312 310 309 308 306 305 305 305 304 304 303 301 299 297 294 293 292 292 292 292 292 292 292 292
300 301 301 302 302 302 302 303 306 310 313 316 317 317 315 314 313 312 311 309 308 307 306 305 305 305 304 303 301 299 297 294 293 292 292 292 292 292 292 292 292 292
300 300 301 301 302 302 302 302 305 309 313 315 317 316 314 314 313 311 310 309 307 306 305 305 305 305 303 301 298 296 294 293 292 292 292 292 292 292 292 292 292 292
299 299 300 302 302 302 302 302 305 310 314 315 316 315 314 313 312 310 309 308 306 306 305 305 305 303 300 298 296 294 293 292 292 292 292 292 292 292 292 292 292 292
299 299 300 302 302 303 303 303 306 311 314 315 315 314 312 311 310 309 308 307 306 306 305 304 303 300 298 296 294 293 292 293 293 293 293 293 292 292 292 291 291 292
301 301 302 302 303 304 303 304 308 313 314 314 314 313 311 310 308 307 306 305 305 305 304 302 299 297 296 295 294 293 293 293 293 293 293 293 292 292 291 290 291 292

ECMWFNIL_850_thetae_018.txt.gz
Theta_e
309 308 309 309 309 310 310 311 312 311 311 313 315 314 311 308 307 307 306 306 306 305 305 305 305 305 305 305 305 305 305 305 305 305 305 305 305 304 305 304 304 304
310 309 309 308 309 310 310 310 311 311 311 312 314 315 312 309 308 308 307 307 306 306 306 305 305 304 304 305 305 304 304 304 304 305 305 305 304 304 304 303 303 303
311 310 309 309 309 309 309 310 311 311 311 311 312 313 312 310 309 308 308 307 307 307 306 306 305 305 304 304 304 304 304 304 304 304 304 304 304 304 303 303 303 303
312 311 310 310 309 309 309 310 310 311 312 311 311 312 312 312 311 310 309 308 307 307 307 307 306 306 305 304 304 304 304 304 304 304 304 304 304 303 303 303 303 302
312 312 311 311 310 310 310 309 310 310 311 312 312 312 312 312 312 311 310 309 308 308 307 307 307 306 306 305 304 304 304 304 304 304 304 304 304 303 303 303 302 302
312 312 312 312 311 311 311 310 310 311 311 312 312 312 312 312 312 312 312 310 309 309 308 307 307 306 306 306 305 305 304 304 304 304 304 304 304 304 304 303 303 302
311 312 312 313 312 312 312 311 311 311 312 312 313 313 313 312 312 312 313 312 311 310 309 308 307 307 306 306 306 306 305 304 304 304 303 304 304 304 304 304 303 302
310 310 311 312 313 313 312 312 312 312 312 313 313 314 314 314 313 313 313 313 312 311 310 309 308 307 306 306 306 306 306 305 304 303 303 304 304 304 304 304 303 302
313 312 312 311 312 312 313 313 314 313 314 314 314 314 315 315 314 314 313 313 313 312 311 310 309 308 307 306 306 306 306 305 305 304 303 303 303 304 304 304 303 303
317 317 315 314 313 312 312 313 313 314 315 315 315 315 315 316 316 315 314 313 313 313 313 312 311 310 308 307 306 306 305 305 305 304 303 303 303 304 303 303 303 303
319 318 318 317 316 315 314 313 312 313 314 316 317 316 316 317 316 315 315 314 314 313 313 313 312 312 310 308 307 306 305 305 305 304 304 303 303 303 303 303 303 302
319 319 319 318 318 318 318 316 314 314 314 314 315 316 317 317 317 316 316 315 315 314 314 314 313 312 311 309 308 306 305 305 305 304 304 303 303 303 303 302 302 301
318 318 319 320 320 321 321 319 318 318 317 316 315 315 316 317 317 317 316 316 315 314 314 314 313 313 312 310 309 308 306 305 305 304 304 303 303 302 302 302 301 300
313 314 315 317 319 321 322 322 321 320 320 319 319 318 317 317 317 317 317 317 315 314 314 313 313 313 312 311 310 308 307 306 305 304 304 303 303 302 302 302 301 300
306 307 308 309 311 314 317 319 321 321 321 320 320 320 319 319 319 318 318 318 316 314 313 313 313 312 312 311 311 309 307 306 305 304 304 303 303 302 302 301 301 299
302 303 304 304 305 306 308 310 314 317 320 321 320 320 319 320 319 319 319 318 316 315 314 314 313 313 312 313 311 309 307 306 305 304 304 303 303 302 301 300 299 298
302 302 302 303 303 304 304 305 306 308 313 317 320 320 319 319 319 319 319 318 316 315 314 314 314 313 313 312 311 309 307 306 305 304 304 303 302 301 300 298 297 296
302 302 301 302 301 302 302 303 303 304 305 309 314 317 319 319 319 319 319 317 315 314 314 313 314 314 312 312 311 309 306 305 305 304 303 302 301 300 298 296 295 295
301 301 301 301 301 301 301 301 302 304 304 304 307 312 316 318 318 319 319 317 315 314 313 313 313 313 312 311 310 307 306 305 304 303 302 301 299 298 297 295 294 294
301 301 301 301 301 301 301 301 302 303 304 304 306 310 314 317 318 318 317 316 315 313 313 312 313 312 311 310 308 307 305 304 304 303 302 300 298 296 295 294 294 293
301 301 301 300 300 300 300 300 301 302 302 304 308 312 314 316 317 317 316 315 314 313 312 312 312 312 311 309 307 306 305 304 303 302 300 298 296 295 294 293 293 293
300 300 300 300 301 301 301 300 300 301 302 302 306 312 314 315 316 316 316 315 314 312 312 312 312 311 309 307 306 305 305 303 302 300 297 296 295 294 293 293 293 293
298 299 300 301 301 301 302 302 300 300 302 304 306 311 314 314 315 315 316 315 314 313 312 312 311 309 307 306 305 305 303 301 299 297 296 296 295 294 294 294 294 293
298 298 299 300 301 303 303 303 302 301 304 306 309 312 313 314 314 314 314 314 313 313 312 311 309 307 306 305 304 303 301 299 296 296 297 296 296 296 295 295 295 294
298 298 298 299 300 302 302 303 304 305 307 309 311 312 312 313 313 313 313 312 312 311 310 308 307 306 305 303 302 300 298 296 295 295 296 297 297 297 296 295 295 294
299 299 299 299 300 301 301 302 305 307 309 311 311 311 311 312 313 314 313 311 310 309 308 306 305 304 302 300 299 297 296 295 294 294 295 296 296 295 294 294 294 294

ECMWFNIL_850_thetae_021.txt.gz
Theta_e
320 320 318 315 316 319 318 318 320 320 318 318 319 319 318 315 310 309 309 308 307 307 307 306 306 305 306 305 306 308 307 306 306 305 306 305 305 305 305 304 305 306
321 322 321 319 317 318 319 317 319 320 318 318 319 319 320 316 311 309 309 309 308 308 307 307 307 306 306 306 305 306 306 306 306 305 305 306 305 305 304 304 304 304
318 322 323 322 319 319 320 318 318 319 319 318 318 319 320 316 312 311 310 309 309 309 308 308 308 307 306 306 306 306 306 305 306 305 306 305 305 305 304 304 304 303
315 320 322 323 321 321 321 320 319 318 318 318 318 319 320 316 312 312 312 310 310 309 308 308 308 308 307 306 306 307 306 305 305 305 305 305 305 305 305 304 304 303
314 317 319 321 322 322 323 322 320 319 318 319 318 319 320 317 312 312 312 312 311 310 310 309 308 308 308 307 308 308 307 306 306 305 305 305 305 305 305 305 305 304
319 319 318 320 321 322 323 323 321 320 318 319 318 318 319 317 313 313 313 312 312 312 311 310 309 309 308 307 308 308 308 309 308 305 306 306 305 304 305 305 305 304
321 322 321 321 321 322 323 323 322 321 319 319 319 319 319 317 314 313 313 313 313 313 313 312 311 310 309 308 309 309 309 310 308 305 308 309 306 304 305 304 304 305
319 322 323 321 321 322 323 323 323 321 320 320 320 319 319 319 317 316 315 315 315 315 314 314 313 312 311 310 310 310 309 309 307 306 309 310 306 305 306 305 304 304
319 321 322 321 321 322 322 323 323 322 320 320 321 320 320 320 319 318 318 317 316 316 316 315 314 314 313 311 311 310 309 308 307 306 307 307 305 305 308 308 305 304
319 318 320 320 320 321 320 321 322 322 322 320 321 321 320 320 320 319 319 319 318 318 317 316 316 315 314 313 312 311 310 309 308 307 307 306 305 306 307 306 305 304
321 320 320 319 319 319 319 319 319 321 321 319 319 321 320 319 320 320 319 320 320 319 318 318 317 316 315 314 313 313 311 310 309 308 307 307 306 306 305 305 304 304
323 322 321 319 318 317 318 317 316 318 321 319 317 320 319 317 319 320 320 320 320 320 320 319 318 317 316 315 314 313 312 311 310 309 308 307 307 306 305 305 304 304
320 319 319 318 317 317 317 317 318 320 321 320 317 318 318 316 317 319 320 320 320 320 320 319 319 318 317 315 314 314 313 312 311 310 309 308 307 306 305 305 305 303
313 313 314 315 316 317 318 319 321 322 322 321 320 319 319 319 319 319 320 320 320 320 320 319 319 318 317 316 315 314 313 312 312 311 309 308 307 306 305 305 305 304
309 309 308 309 311 314 317 318 319 321 321 322 322 322 321 321 320 320 321 321 321 321 320 319 319 318 317 316 315 314 314 313 313 311 310 308 307 306 305 305 304 304
309 308 308 309 310 312 314 315 316 318 319 320 321 321 321 321 321 321 321 321 321 321 320 320 319 318 317 315 315 314 314 313 313 311 310 308 307 306 305 304 304 303
308 308 309 309 310 311 311 312 314 315 317 318 319 319 320 320 320 321 321 321 321 320 320 319 318 317 317 315 315 314 314 313 312 311 310 308 306 305 304 304 303 303
307 307 308 308 309 310 311 312 313 313 315 316 318 318 318 318 317 318 319 320 320 320 319 319 318 317 316 315 314 314 313 312 311 310 309 307 306 305 304 303 303 302
306 306 307 308 308 309 310 311 312 313 313 315 316 317 317 317 317 316 316 318 319 319 319 318 317 316 315 315 314 314 313 312 310 308 307 306 305 304 304 303 303 302
307 307 307 307 308 308 308 309 310 311 312 313 315 316 316 315 315 314 315 316 317 318 319 318 317 316 315 314 314 313 312 312 309 307 306 305 304 304 304 303 303 301
308 307 307 307 307 308 308 309 309 310 311 312 312 314 315 316 315 315 315 315 315 316 317 317 316 316 315 314 313 313 312 311 308 306 305 305 304 303 303 302 301 300
308 308 308 307 307 308 308 309 309 310 311 312 312 312 314 315 315 315 315 315 315 316 316 316 316 316 315 314 313 312 311 309 307 306 305 304 303 303 302 301 300 299
308 308 308 307 307 307 308 308 309 310 311 312 312 312 313 314 314 315 315 315 316 316 316 316 315 315 315 314 312 310 309 307 306 305 305 303 302 302 301 300 300 299
307 307 307 307 307 307 307 308 309 309 310 311 312 313 313 313 314 314 314 314 315 316 315 314 314 314 313 312 310 308 307 306 304 304 303 302 301 301 301 300 300 299
307 307 307 307 307 307 307 307 308 309 309 311 312 313 312 313 313 313 313 313 314 314 314 313 314 314 311 308 307 306 305 304 303 301 301 300 300 300 300 300 300 299
306 306 307 307 307 307 307 307 308 309 310 311 312 312 311 312 312 312 313 313 312 313 313 313 313 311 309 306 306 305 304 303 302 300 299 299 299 299 299 299 298 298

ECMWFNIL_850_thetae_024.txt.gz
Theta_e
317 317 314 315 320 318 315 318 320 318 318 320 319 317 314 310 309 309 309 309 308 308 308 307 307 307 306 306 308 308 306 306 307 306 306 306 306 306 305 305 305 308
316 316 314 313 318 321 318 319 321 319 318 320 320 319 316 312 310 310 309 309 309 309 308 308 308 307 307 306 306 306 306 306 306 306 306 306 306 306 305 305 304 305
316 318 317 314 315 320 319 318 321 320 318 319 320 320 318 314 311 311 310 310 310 309 309 309 308 308 308 307 307 307 306 306 306 306 306 305 306 306 305 305 304 304
318 320 321 319 317 319 320 319 320 321 320 319 319 320 319 315 313 312 311 311 310 310 309 309 309 308 308 308 307 307 307 307 307 306 306 305 305 305 305 305 304 304
319 321 323 323 321 319 320 320 320 320 320 319 318 320 320 317 314 312 311 311 312 310 309 310 309 309 309 309 308 308 308 307 307 306 306 306 305 305 305 305 305 304
321 322 323 324 324 322 321 322 322 321 320 320 319 319 320 319 318 316 314 312 312 312 311 310 310 309 309 309 309 308 308 308 307 307 307 307 306 306 305 305 305 305
324 324 324 324 323 322 322 322 323 322 321 320 319 319 319 320 320 320 319 316 314 313 313 312 311 311 310 310 309 309 309 309 308 308 307 308 307 307 306 306 306 306
324 324 324 324 323 321 321 321 322 322 321 320 319 319 319 319 319 320 320 319 317 316 315 314 314 313 312 311 310 310 310 309 309 309 308 308 308 307 307 307 306 305
321 320 320 321 321 321 321 321 320 320 322 322 320 319 319 319 319 319 320 320 319 319 318 317 316 316 315 313 312 312 311 310 310 310 309 309 308 307 307 308 307 306
319 317 317 317 317 319 321 321 320 318 319 321 321 320 320 320 319 319 319 320 319 320 319 319 318 318 317 316 315 314 313 312 311 310 310 309 309 308 308 308 308 307
320 320 320 319 317 317 319 319 319 318 317 317 319 320 320 320 320 318 319 319 319 320 320 320 319 319 318 317 317 315 314 314 313 312 311 311 310 309 308 308 308 307
322 323 323 322 321 319 319 319 318 318 317 316 317 318 318 318 318 317 318 318 319 320 320 320 320 320 319 318 317 316 315 314 314 313 312 312 311 309 309 308 308 307
322 322 323 323 323 322 321 320 319 318 316 315 315 315 316 315 316 318 317 317 317 319 320 320 320 320 319 319 318 317 316 315 315 314 313 312 312 311 310 309 308 307
317 316 315 315 317 319 319 319 319 318 318 317 317 317 317 317 317 319 319 317 317 319 319 320 320 319 319 319 319 318 317 316 315 314 314 313 312 312 311 310 309 308
313 312 311 312 313 316 317 318 318 318 319 320 320 320 320 320 320 319 319 319 318 318 319 319 319 319 319 318 318 318 317 316 315 314 314 313 312 312 311 310 309 308
310 310 311 312 313 313 314 315 316 317 317 318 319 319 319 319 320 320 320 320 318 318 319 319 319 319 319 317 317 318 318 317 316 315 314 313 312 312 311 310 309 307
309 309 309 310 311 312 312 312 313 314 315 317 318 318 318 318 318 319 321 321 320 320 320 320 320 320 319 317 317 318 318 317 316 315 314 313 312 312 311 310 309 307
307 308 308 308 309 310 310 311 312 312 313 314 314 316 317 318 318 319 320 320 319 320 321 321 320 320 319 318 318 318 318 317 316 315 314 313 312 311 310 309 308 307
307 307 307 308 309 309 309 309 310 310 311 312 313 314 315 317 318 318 318 318 316 317 319 319 318 320 320 319 318 318 318 317 315 314 314 313 311 310 309 308 307 306
307 307 308 307 307 307 307 308 308 308 309 310 311 312 313 314 316 316 316 317 316 316 317 318 318 319 320 319 319 318 318 316 314 313 313 312 310 309 308 307 307 306
308 308 308 308 307 306 306 306 307 308 309 309 310 311 311 312 314 315 315 316 316 315 316 317 318 318 318 319 319 318 317 316 314 313 312 311 309 308 308 307 307 306
307 308 308 308 308 307 307 307 307 307 308 309 310 311 311 311 312 313 314 315 315 315 315 317 317 317 317 318 318 318 316 314 314 314 312 309 308 308 307 307 306 304
307 307 308 308 308 308 307 307 307 307 307 308 308 310 311 312 312 312 313 313 314 315 316 316 317 317 317 317 317 317 315 314 314 314 312 309 308 307 306 305 304 303
307 307 308 308 307 307 307 306 305 305 305 306 307 308 309 311 312 312 313 313 314 314 315 315 315 316 317 317 317 316 315 314 314 313 311 309 307 306 305 304 303 302
306 306 307 307 307 307 307 306 306 305 304 304 306 307 309 310 311 312 312 313 313 314 314 312 313 315 316 316 316 315 315 314 314 312 310 308 306 304 303 302 302 302
306 306 306 307 307 308 308 308 307 306 305 305 306 308 309 310 311 311 312 312 312 313 313 312 312 314 315 315 314 314 313 313 311 309 306 304 302 302 301 301 301 301

ECMWFNIL_850_thetae_027.txt.gz
Theta_e
318 316 312 312 311 310 309 310 310 311 312 312 311 311 310 309 309 309 308 308 308 307 307 306 306 307 307 307 306 307 306 306 306 306 307 306 306 306 306 306 306 306
319 317 314 314 315 312 311 313 313 313 314 315 314 312 312 310 309 309 309 308 308 308 308 308 307 306 307 307 306 306 306 306 306 306 306 306 306 306 306 305 305 305
320 319 315 316 318 315 314 317 318 316 316 317 315 314 314 313 311 310 309 310 309 309 308 308 308 307 307 307 307 306 307 306 306 306 305 306 305 305 305 305 305 304
320 320 316 317 320 319 317 319 320 319 318 317 315 314 313 313 312 312 311 311 310 310 310 309 309 308 308 308 307 307 307 306 306 306 305 306 305 305 305 305 304 304
320 320 317 316 319 320 319 319 320 320 319 317 315 315 313 312 313 314 314 313 312 311 311 311 310 309 309 308 308 308 308 307 307 306 306 306 305 305 305 305 305 304
320 321 320 317 318 319 320 319 319 319 319 319 318 317 316 315 314 315 315 316 316 314 313 313 312 312 311 310 309 309 309 308 308 307 307 307 306 306 306 306 305 305
321 322 322 320 319 320 320 320 320 320 319 319 319 319 318 317 317 316 317 317 317 317 316 315 315 314 313 312 311 310 309 309 309 308 308 308 307 307 307 307 306 306
322 323 323 322 322 321 322 321 321 321 320 319 319 318 318 318 318 318 317 317 317 317 318 318 318 317 316 315 314 313 311 310 310 309 309 309 308 308 308 307 307 307
323 322 324 323 322 322 322 321 321 320 319 319 318 317 317 317 317 317 317 318 318 318 318 319 319 318 318 317 317 316 315 313 312 311 311 310 309 309 309 308 307 308
324 323 324 324 322 321 320 319 318 318 318 318 318 317 316 316 316 316 316 317 318 319 319 319 319 319 319 319 318 318 317 316 315 314 313 312 311 310 310 309 308 308
323 323 323 323 322 322 321 319 317 317 317 318 318 318 317 317 317 317 317 318 318 319 319 319 319 320 320 319 319 319 319 318 317 317 315 314 313 312 311 310 309 309
322 322 321 321 321 322 321 319 319 319 319 319 318 318 317 317 317 317 318 319 319 319 319 319 320 319 319 320 320 319 319 319 318 318 317 316 315 313 312 311 310 310
322 322 321 321 321 321 320 320 320 320 319 319 318 318 317 316 315 316 318 318 318 317 318 319 320 320 320 319 319 319 318 319 318 318 317 317 316 315 313 312 311 311
322 322 321 322 322 321 320 320 320 319 319 319 318 318 317 316 316 315 316 316 315 315 316 318 319 319 319 320 319 318 318 318 318 318 317 317 316 315 314 313 312 311
315 315 315 316 317 317 317 318 318 318 318 318 318 318 317 317 318 317 317 317 317 317 317 318 318 318 318 318 319 319 318 318 318 318 317 316 316 316 314 313 313 312
310 310 310 310 311 312 313 315 314 315 316 316 315 315 314 315 316 317 318 319 319 319 319 319 319 318 318 318 318 319 319 319 319 318 317 317 316 316 314 314 314 313
310 311 310 310 311 312 312 312 312 313 314 315 315 315 315 315 316 316 317 317 317 318 319 320 320 320 319 318 318 318 319 319 319 319 318 317 316 315 315 315 314 314
309 309 308 309 310 311 310 311 312 313 313 313 314 313 314 315 316 317 317 317 316 315 315 316 317 318 319 320 320 320 319 320 319 318 318 317 317 316 315 315 314 313
307 307 307 308 308 308 308 309 310 310 310 310 311 311 311 313 315 316 317 318 317 316 314 312 311 313 316 318 319 320 320 320 319 318 318 318 317 316 315 314 314 313
305 304 305 306 307 307 307 306 307 307 307 308 309 310 309 309 310 313 314 315 316 316 315 314 312 312 312 313 313 316 319 320 319 318 318 318 316 315 314 314 313 312
306 306 306 305 305 305 304 304 304 304 305 306 307 307 307 306 307 309 311 313 314 314 315 315 313 311 311 311 311 314 318 319 319 318 317 316 315 314 314 314 313 312
306 307 307 307 305 304 303 303 303 303 303 304 304 304 304 305 306 308 309 310 312 312 313 314 314 312 311 311 312 315 317 318 318 317 315 314 314 313 313 313 312 311
306 307 308 308 306 305 304 303 303 303 303 303 302 301 301 301 303 307 309 310 311 311 312 312 313 313 313 313 314 315 316 317 318 317 315 313 312 312 312 311 310 310
306 306 307 307 307 306 306 305 304 303 303 303 302 301 300 300 302 305 309 310 311 311 311 312 313 314 314 314 314 315 316 317 317 316 314 311 311 311 310 309 309 309
306 306 306 307 307 306 306 305 304 303 303 304 303 301 300 301 303 305 308 309 310 311 311 312 313 313 313 314 313 314 316 315 315 314 313 311 310 310 308 308 308 308
306 306 306 305 305 305 305 305 305 305 305 305 304 302 302 304 305 306 308 309 310 311 311 312 312 313 313 313 312 313 315 314 313 313 312 311 310 310 308 308 308 307

ECMWFNIL_850_thetae_030.txt.gz
Theta_e
317 319 318 313 308 308 309 308 308 308 308 308 307 307 307 307 307 307 306 307 307 307 307 307 307 307 307 306 306 306 306 306 306 306 306 306 306 306 306 306 306 306
316 320 320 315 310 310 309 309 310 309 309 309 308 308 308 307 307 307 307 307 307 307 307 307 307 307 306 307 306 306 306 306 306 306 305 306 305 305 305 305 305 305
316 318 320 317 313 311 311 311 311 312 312 312 310 309 309 309 309 308 308 307 308 307 307 307 307 307 307 306 306 306 306 305 305 305 305 305 305 305 305 304 304 304
315 316 319 319 316 313 312 313 314 314 314 314 313 312 310 310 310 310 309 309 309 309 308 308 308 307 308 307 307 307 306 306 306 305 305 305 305 305 304 304 304 304
314 315 317 319 319 316 315 316 316 315 315 315 314 313 311 311 311 310 311 311 311 310 310 310 310 309 308 308 308 307 307 307 306 306 306 305 306 306 305 305 304 304
313 314 317 319 320 318 316 317 317 317 316 316 315 313 313 312 312 312 312 312 312 312 312 312 311 311 310 310 310 309 308 308 307 307 307 306 306 306 306 306 306 306
312 314 317 319 320 320 318 318 318 318 318 317 316 314 314 313 313 314 314 314 314 314 314 314 314 313 312 312 311 311 310 310 309 308 308 307 307 307 307 307 307 306
315 317 317 319 320 320 320 319 319 319 319 318 317 316 315 314 314 315 315 316 316 316 316 316 316 316 315 314 313 313 313 313 312 311 310 309 308 308 307 307 307 306
320 319 318 320 320 319 320 320 319 319 320 319 319 318 317 317 315 315 316 316 316 316 316 316 317 317 317 317 316 316 316 315 315 315 314 313 312 310 309 309 309 308
322 321 319 320 320 318 319 320 320 320 320 320 320 319 319 318 318 317 317 318 318 318 318 317 317 317 317 317 317 318 318 318 318 317 317 316 315 314 312 311 311 310
323 322 321 321 319 318 320 319 319 319 320 320 320 319 319 319 319 319 319 318 318 318 318 318 318 318 318 318 317 318 319 319 319 318 318 318 317 316 315 314 313 312
323 321 320 321 320 320 321 320 318 319 320 320 320 320 320 319 320 319 319 319 319 319 319 319 319 319 319 318 318 319 319 319 319 319 319 319 318 317 317 316 315 314
322 320 319 321 321 321 322 321 320 320 320 320 320 321 320 320 320 320 320 319 319 319 320 320 319 319 319 319 319 319 319 319 319 319 319 318 318 318 318 317 316 315
321 321 320 321 321 321 321 321 320 320 319 320 320 321 320 320 319 319 318 317 317 319 320 319 318 317 317 318 320 320 320 319 320 319 319 318 318 318 317 317 317 317
321 321 322 321 321 321 321 320 320 320 319 320 320 320 319 319 318 318 318 317 317 318 319 319 317 316 316 317 319 320 319 319 319 319 319 319 318 317 317 317 317 316
320 319 319 319 319 319 319 319 319 319 319 318 318 317 317 316 316 316 318 318 318 318 319 319 318 318 318 318 318 319 318 318 318 319 319 319 318 318 317 316 316 316
312 312 312 313 313 314 315 315 315 315 315 315 314 314 314 313 312 312 314 315 316 317 317 318 319 319 320 319 319 319 319 319 318 318 318 319 319 319 317 317 316 316
308 310 309 309 311 311 311 311 311 311 312 312 313 313 313 312 312 312 314 315 316 315 315 315 316 317 317 318 318 319 319 320 319 319 319 319 319 319 318 317 317 316
309 310 308 309 311 311 310 310 311 312 312 312 313 313 312 311 311 312 313 315 316 316 316 316 315 314 313 313 314 316 317 319 319 320 320 320 320 319 319 318 317 316
309 308 308 308 310 309 309 309 310 311 311 311 309 309 309 310 310 310 311 312 313 314 314 314 313 311 309 309 311 313 315 317 317 318 318 319 320 319 318 317 317 316
307 307 306 307 308 308 308 307 306 305 305 305 304 304 305 306 306 306 306 308 310 311 311 311 310 309 308 307 309 312 313 314 315 316 316 318 319 319 318 317 316 315
306 306 306 306 307 307 306 305 303 302 302 302 301 301 301 301 301 301 302 304 305 307 309 309 310 311 311 311 311 312 312 312 312 313 314 315 317 317 317 316 315 313
306 306 307 307 307 306 305 304 303 303 302 302 302 302 301 300 300 300 301 301 301 302 304 305 306 309 311 311 312 313 313 312 312 311 312 314 315 316 315 314 314 312
306 306 306 307 307 306 305 304 304 304 303 303 303 303 303 302 300 300 300 300 300 301 303 304 305 306 308 310 312 313 313 313 312 311 313 315 315 314 314 313 313 312
306 306 306 306 307 306 305 305 305 305 305 305 304 304 304 303 302 300 300 300 300 301 303 305 307 307 308 310 311 312 312 313 312 311 313 315 314 313 313 312 311 311
306 306 306 306 306 306 306 306 305 305 305 304 304 304 305 304 303 302 300 300 301 301 303 306 309 309 310 310 311 311 312 312 312 311 312 313 313 311 311 310 310 309

ECMWFNIL_850_thetae_036.txt.gz
Theta_e
320 322 319 311 308 308 307 307 307 306 306 306 306 306 306 306 306 305 306 305 306 306 306 306 306 306 306 306 306 306 306 306 306 306 306 306 306 306 305 305 305 305
321 321 318 311 308 308 307 307 307 306 307 306 306 306 306 306 305 306 306 305 306 306 306 306 306 306 306 305 305 305 305 305 305 305 305 305 305 305 305 305 304 304
320 317 315 311 308 308 307 307 307 307 307 307 306 306 306 306 306 306 306 306 306 306 306 306 306 306 305 305 305 305 305 304 305 304 304 304 304 304 304 304 303 303
317 313 313 311 309 308 308 309 309 307 307 307 307 307 307 306 306 306 306 306 306 306 306 306 306 306 305 305 305 305 305 305 305 304 304 305 304 304 304 304 304 304
318 313 313 313 311 309 308 311 313 309 307 308 307 307 307 307 307 307 306 307 307 306 306 306 306 306 306 306 305 305 305 305 305 305 305 306 306 306 306 306 306 305
320 314 312 314 315 311 309 311 314 310 307 308 307 307 308 307 307 308 307 308 307 307 307 307 307 307 306 306 306 306 306 305 306 306 306 306 306 306 307 307 307 307
321 313 313 317 316 314 312 312 312 311 308 308 308 308 309 310 310 310 309 309 309 309 309 309 308 308 307 307 307 306 306 306 306 306 306 306 306 306 307 306 306 307
321 314 314 318 318 317 316 312 310 310 309 311 312 312 313 314 315 315 314 314 314 313 312 312 311 311 311 310 309 308 308 307 307 307 306 306 306 306 306 306 306 306
321 318 317 319 320 319 318 314 313 311 310 313 315 315 316 317 317 318 317 317 317 316 316 316 315 315 315 314 313 313 312 311 310 310 309 308 307 307 306 306 306 306
322 321 318 318 320 320 319 318 316 312 311 315 318 318 318 318 319 319 318 318 318 317 317 318 317 317 317 317 316 316 316 316 316 315 314 313 312 311 310 309 308 308
325 323 319 319 320 320 319 319 317 312 312 317 319 319 319 319 319 319 318 318 318 318 318 318 318 318 318 318 317 316 317 318 318 318 318 317 317 316 316 314 313 312
325 323 320 319 320 320 319 320 317 313 313 317 319 320 320 319 318 316 315 316 317 318 319 318 318 318 317 317 316 316 316 317 318 318 319 319 318 317 317 318 317 316
325 322 319 319 320 319 319 318 317 315 314 314 315 316 318 317 316 315 314 315 316 317 318 317 317 317 316 316 316 316 316 317 318 319 319 319 318 318 318 318 318 318
324 321 319 319 320 320 319 317 316 314 314 313 313 314 315 316 317 317 317 317 317 317 316 316 316 316 316 316 316 317 318 318 318 318 318 318 319 319 318 318 319 318
323 321 319 318 318 317 317 318 317 314 314 315 316 316 316 318 318 318 318 318 318 317 316 316 316 316 317 318 318 319 319 318 318 318 317 317 318 319 319 319 318 318
322 322 320 319 318 316 316 318 318 316 316 318 319 318 318 318 317 317 317 318 318 318 316 315 315 316 317 318 319 319 319 319 318 318 318 317 318 319 318 318 318 317
322 322 320 319 319 317 317 318 318 317 318 319 319 319 318 318 318 318 317 317 317 316 316 315 316 317 317 318 319 319 319 319 319 319 319 319 319 319 319 318 318 318
321 321 320 319 319 319 318 318 318 318 318 319 318 318 318 318 318 317 317 316 316 316 316 316 317 318 318 318 319 319 319 319 319 319 318 318 318 319 319 319 319 318
320 320 320 320 320 320 320 319 318 318 318 318 317 317 317 317 316 315 315 315 314 314 315 315 315 316 317 316 316 316 315 315 314 314 314 314 315 316 317 317 317 317
315 315 315 317 318 318 318 317 317 316 316 315 314 314 315 314 313 313 312 312 312 312 312 312 313 313 313 313 312 312 312 311 311 311 311 312 313 313 313 313 313 313
310 311 312 313 313 314 314 313 313 312 312 312 312 312 311 311 310 310 310 310 310 309 309 309 309 309 309 310 311 311 311 311 312 312 312 312 312 311 311 310 310 309
308 309 309 309 309 311 311 311 310 309 309 310 310 309 309 308 308 307 307 306 305 305 305 305 305 306 307 307 308 308 309 309 310 311 311 311 312 312 311 310 309 309
307 307 307 307 307 308 309 309 308 308 308 307 306 306 305 305 305 304 303 302 302 301 301 301 301 302 302 303 303 304 305 306 307 308 309 311 311 311 311 309 308 308
307 306 306 306 306 306 307 307 307 307 306 305 304 303 303 303 303 303 303 302 302 302 301 301 300 300 300 300 301 301 302 304 305 306 308 310 311 311 310 309 307 306
306 306 306 306 306 306 306 307 307 307 305 304 304 304 304 304 304 303 303 303 303 303 302 302 301 300 300 300 299 299 300 302 304 306 308 310 310 310 310 309 307 306
306 306 306 306 306 306 306 307 307 307 306 305 305 305 306 305 305 304 304 303 303 303 302 302 301 300 300 299 299 299 300 302 305 307 309 310 310 310 309 309 307 306

ECMWFNIL_850_thetae_039.txt.gz
Theta_e
319 319 317 311 308 307 307 306 307 306 306 306 306 306 306 306 306 306 306 306 305 306 306 306 306 306 305 305 305 305 305 305 305 305 305 305 305 305 306 306 306 307
321 321 319 312 308 307 307 307 307 306 306 306 306 306 306 306 306 305 306 306 305 306 306 306 305 305 305 305 305 305 305 305 304 304 304 304 304 304 304 304 304 304
323 321 316 310 307 308 307 307 307 306 306 306 306 306 306 306 306 306 306 306 306 306 306 306 306 305 305 305 305 305 305 304 304 304 303 303 303 303 303 303 303 303
322 319 313 309 308 308 307 307 307 307 307 307 306 306 306 306 306 306 306 306 306 306 306 306 306 306 305 305 305 305 305 304 304 303 303 303 303 303 303 303 303 303
322 319 315 312 309 308 307 308 309 310 310 309 307 307 306 306 306 307 307 307 307 306 306 306 306 306 306 306 306 305 305 305 304 304 304 303 304 303 304 304 304 304
322 321 319 316 310 308 308 309 312 315 314 311 308 307 307 307 307 307 307 307 307 307 307 307 307 307 307 306 306 306 306 305 305 305 305 305 304 304 304 305 305 305
322 323 322 318 313 309 307 309 312 315 313 309 307 308 308 308 308 309 309 309 309 309 309 309 309 308 308 308 307 307 307 306 306 306 305 305 305 305 305 305 305 305
322 323 322 320 315 312 309 308 311 313 311 308 307 308 308 308 310 312 314 313 313 313 313 312 312 312 312 311 310 310 309 308 308 308 307 307 306 306 305 305 306 306
322 323 323 320 316 316 314 311 310 311 311 309 308 308 308 310 313 316 318 317 317 317 316 316 316 316 316 315 314 313 312 312 312 312 311 310 309 308 307 307 307 307
322 323 322 318 315 317 318 317 315 312 311 310 309 310 311 313 316 318 319 319 319 318 318 317 317 317 317 317 317 316 316 316 316 316 315 314 313 312 312 310 310 309
322 322 322 319 318 318 319 320 319 313 311 310 310 311 312 314 316 318 319 319 319 319 318 318 317 318 318 318 318 318 317 317 317 318 317 316 316 315 315 314 313 312
323 322 322 322 322 321 319 320 320 317 314 312 312 315 315 315 317 319 319 319 318 317 317 317 317 317 318 318 318 317 317 317 317 318 318 318 318 317 316 316 316 315
324 323 323 323 324 322 320 320 320 319 318 316 314 316 317 318 319 318 317 317 316 315 315 315 315 315 316 317 316 315 315 315 316 316 317 318 318 317 317 317 317 317
325 325 325 324 324 322 319 320 320 320 320 319 316 315 316 318 318 316 314 315 315 315 316 316 316 315 315 316 316 315 315 315 316 316 317 318 318 317 317 318 318 318
325 325 325 324 322 320 320 320 320 320 319 318 316 314 314 315 315 315 315 315 317 317 317 318 317 316 316 316 316 315 316 317 317 318 318 318 318 318 318 318 317 318
324 324 323 321 320 319 319 319 320 320 318 316 315 314 314 314 315 316 316 317 317 317 317 317 316 316 316 315 315 315 316 317 318 319 319 318 318 318 319 318 317 318
323 322 322 321 320 319 319 319 318 318 318 317 316 316 316 317 318 318 318 318 317 316 317 316 316 316 316 315 315 316 316 317 318 318 319 318 319 319 319 318 318 318
321 322 322 321 320 319 319 318 318 318 319 319 318 318 318 319 319 319 318 318 317 317 316 316 316 316 317 317 317 317 317 318 318 318 317 317 317 317 317 317 317 318
321 321 321 320 319 319 319 319 319 319 319 319 319 319 319 318 318 318 318 317 316 316 315 315 316 316 317 317 317 316 316 315 315 314 313 312 312 312 313 313 314 315
318 319 319 319 320 320 319 319 319 320 319 319 318 318 318 318 317 317 316 315 314 313 313 313 314 314 314 314 313 313 312 311 310 309 309 308 308 309 310 310 310 310
312 314 315 317 318 319 318 318 318 318 317 317 316 316 316 315 314 314 313 313 312 311 311 311 311 311 311 310 310 310 310 310 309 309 309 309 310 310 309 309 309 308
308 310 311 312 313 314 314 314 314 313 313 313 313 313 312 311 311 311 310 310 310 309 308 307 306 306 306 306 306 307 307 308 308 308 309 310 310 310 311 311 310 308
307 307 308 308 308 310 311 311 311 310 310 310 310 310 309 309 308 308 307 306 305 304 303 302 301 301 301 301 301 302 302 303 303 304 306 307 308 310 311 311 310 309
306 306 307 306 306 307 308 309 308 308 307 307 307 307 306 306 305 305 304 303 302 302 302 302 301 301 301 301 301 301 300 301 301 301 303 305 306 308 309 310 310 309
306 306 306 306 306 306 306 307 307 306 306 305 304 304 304 304 304 304 304 303 303 303 303 302 302 302 302 302 301 301 301 300 300 300 301 304 306 308 309 309 309 308
306 306 306 306 306 305 305 306 306 306 306 305 305 304 304 305 305 305 304 304 303 303 303 303 303 302 302 302 302 301 301 300 300 301 302 305 307 308 309 309 308 307

ECMWFNIL_850_thetae_042.txt.gz
Theta_e
322 319 313 308 307 307 306 307 306 306 307 308 308 307 306 306 306 306 306 306 306 306 306 306 306 306 306 305 308 310 307 305 306 305 305 306 306 307 308 310 312 315
322 322 317 309 307 307 306 306 306 305 305 305 306 306 306 306 306 306 306 306 306 306 305 305 305 305 305 305 305 306 305 305 305 305 305 305 305 304 304 304 305 306
322 323 319 311 307 307 307 306 306 305 305 305 305 306 306 306 306 306 306 306 306 306 305 305 305 305 305 305 304 305 304 304 304 304 304 304 304 303 303 303 303 303
322 322 320 314 308 307 307 307 307 306 305 305 305 306 306 306 306 306 306 306 306 306 306 306 305 305 305 305 304 304 304 304 304 303 304 303 303 303 304 304 304 304
323 322 321 317 310 307 307 307 307 307 306 306 306 306 306 306 306 306 306 306 307 306 306 306 306 306 305 305 305 305 305 304 304 304 304 304 304 304 304 305 305 306
324 323 321 319 313 308 307 308 307 309 309 307 306 306 306 306 307 307 307 307 307 307 307 307 307 306 306 306 306 306 306 306 305 306 306 305 305 306 306 306 306 307
324 324 321 320 316 309 306 308 309 312 312 309 307 307 307 307 307 307 307 308 308 308 309 308 308 308 307 307 307 306 306 306 306 307 308 307 306 306 306 307 307 307
324 323 322 320 318 312 307 308 311 314 314 310 308 308 307 308 308 308 308 309 309 310 310 311 311 311 311 310 310 309 308 307 307 308 308 307 306 307 307 306 307 307
324 323 322 322 320 315 309 308 311 314 313 310 308 308 308 308 309 309 309 310 310 312 312 313 313 314 315 315 314 312 311 311 310 310 309 308 308 309 309 308 308 308
324 323 323 322 321 317 312 308 310 312 312 309 307 308 308 309 311 312 312 312 312 314 315 315 315 316 317 317 317 316 315 315 315 314 313 312 312 312 311 310 310 310
325 324 323 322 321 319 315 311 309 310 312 310 309 308 308 311 314 315 316 316 316 317 317 316 316 317 317 318 318 317 317 317 317 318 318 317 316 315 315 314 313 313
325 325 323 322 321 319 317 315 312 312 313 311 310 310 309 312 316 318 319 319 319 319 319 317 317 317 317 318 318 318 318 318 317 317 318 318 319 318 317 316 316 316
325 325 324 323 321 319 317 318 317 318 317 314 312 311 311 313 316 317 318 320 320 320 319 319 317 316 316 317 317 317 317 317 316 316 316 317 318 318 318 318 317 316
325 324 324 324 323 320 320 321 320 320 320 318 315 312 312 314 315 316 317 319 318 317 318 317 315 315 316 316 316 316 316 316 316 316 316 316 316 317 318 318 317 317
325 325 325 325 324 323 323 323 322 321 321 320 317 314 313 315 316 316 318 319 317 315 316 316 316 317 318 317 317 316 316 315 316 317 317 317 317 318 318 318 318 318
325 325 325 325 325 324 323 323 323 322 321 320 319 318 318 318 316 316 318 319 317 316 316 317 317 317 317 317 317 317 316 316 316 317 317 318 318 318 319 319 318 318
324 324 324 324 324 323 323 322 322 322 321 321 321 320 319 318 316 315 316 316 317 316 316 317 317 317 317 317 316 316 316 316 316 317 318 318 318 318 318 318 318 318
324 323 324 323 323 323 322 322 321 321 321 321 320 320 319 318 317 316 317 318 318 318 317 318 317 317 316 316 316 316 316 316 317 317 317 318 317 317 317 317 316 317
323 323 322 322 322 322 322 321 321 320 320 320 320 319 319 319 318 318 318 319 319 319 319 318 317 316 315 315 316 316 316 316 317 317 317 317 316 315 315 314 314 315
321 322 322 321 321 321 321 321 320 320 320 319 319 319 319 318 318 319 319 319 319 319 318 317 316 315 314 314 314 315 314 313 313 313 312 313 313 312 312 312 311 311
316 318 318 319 319 319 319 320 320 320 320 319 319 319 319 318 318 319 318 318 318 316 314 313 313 313 312 312 312 311 310 309 309 308 309 312 312 310 310 311 309 308
311 312 313 314 314 315 317 318 318 318 318 318 318 318 317 317 317 318 317 315 314 312 311 311 311 310 310 309 308 307 306 306 308 308 310 312 311 310 310 309 308 307
308 309 310 310 311 313 314 314 314 314 314 314 315 315 315 314 314 314 313 312 311 310 309 308 307 305 304 303 303 303 302 303 306 309 310 310 309 309 309 309 308 308
306 307 309 309 310 311 312 311 310 311 310 311 313 313 313 312 312 311 310 309 309 307 306 304 302 301 301 301 301 301 301 303 307 310 310 309 308 307 308 309 309 309
306 306 307 308 309 310 309 309 310 310 308 310 311 311 311 310 309 308 307 306 305 304 303 302 302 302 302 302 302 302 301 304 310 312 311 309 309 309 308 309 309 309
306 306 306 307 308 308 307 309 310 309 307 307 309 309 309 308 308 307 306 304 303 302 302 303 303 303 303 303 303 303 302 304 309 311 310 308 309 309 309 308 308 308

ECMWFNIL_850_thetae_045.txt.gz
Theta_e
324 323 325 323 322 321 319 317 319 320 320 320 319 316 312 309 309 308 307 306 306 306 307 307 308 310 313 314 315 313 308 306 307 306 306 307 308 310 314 318 318 318
324 324 325 323 322 320 316 316 319 319 318 318 316 312 308 306 306 306 306 306 306 306 306 307 308 311 313 311 311 310 307 306 307 306 306 307 307 307 308 310 312 314
323 324 323 322 322 318 314 316 318 318 318 315 310 307 306 305 306 306 306 306 306 305 305 305 306 308 309 308 308 308 307 306 306 305 305 306 306 306 305 306 310 313
322 323 321 319 318 313 309 311 313 313 313 310 305 305 305 305 305 305 305 306 306 304 304 305 306 306 307 306 306 306 305 305 305 305 305 304 304 305 305 306 309 313
321 323 322 317 311 309 307 307 307 308 307 306 305 305 305 305 305 305 305 305 306 305 305 305 305 305 306 306 306 306 306 306 305 306 306 305 306 307 306 307 309 312
321 323 325 320 311 307 307 306 307 308 307 306 306 305 305 305 305 306 305 306 306 306 306 306 306 306 306 307 308 309 310 308 307 308 309 309 309 310 311 311 311 311
323 325 325 323 315 308 306 308 308 308 307 306 306 306 305 306 306 306 306 306 307 307 307 306 307 306 307 308 310 310 310 308 309 312 312 310 310 311 312 312 313 312
324 325 324 324 320 311 309 312 308 306 307 306 306 306 306 308 308 306 307 309 309 310 309 308 308 308 309 310 309 308 308 308 311 313 312 310 310 312 311 310 311 313
323 325 325 325 323 316 313 315 310 307 306 306 310 311 311 314 313 309 311 314 314 315 314 313 313 311 310 312 310 309 308 308 309 310 309 308 310 312 313 310 310 310
323 324 325 325 324 320 317 315 311 309 310 311 316 318 317 318 316 313 316 317 317 318 317 317 316 313 313 316 316 315 314 312 312 312 311 312 314 315 315 313 312 312
325 326 325 324 323 322 321 318 313 314 316 317 320 320 320 320 318 317 319 319 319 319 318 319 319 317 318 320 320 319 320 319 318 318 317 317 318 317 316 316 316 316
326 327 326 325 323 323 323 322 318 317 320 321 320 320 320 320 319 319 320 320 320 320 319 320 320 320 321 321 321 320 320 320 320 320 319 320 319 318 318 318 318 318
327 328 327 325 324 323 323 323 322 319 319 320 320 320 321 320 320 320 321 320 320 320 320 321 321 321 322 322 322 322 321 320 319 318 319 320 319 319 320 320 319 320
327 328 327 325 324 323 322 322 322 322 320 320 320 320 321 321 321 320 320 320 320 320 321 321 321 322 323 323 323 322 322 321 320 318 319 320 319 319 320 321 320 320
327 327 327 326 325 324 323 322 322 323 322 321 321 321 320 321 320 320 321 321 320 321 322 322 322 322 322 322 321 322 323 322 321 320 319 320 320 319 320 321 321 321
327 327 327 326 325 325 325 324 322 322 322 322 322 322 321 320 320 321 322 321 322 322 322 322 322 321 319 318 318 320 321 321 322 321 319 320 321 321 320 320 321 321
327 326 326 326 325 326 325 325 324 322 322 322 322 322 320 319 320 322 322 321 322 321 320 320 321 319 317 317 317 317 317 318 321 322 320 319 319 320 320 319 320 321
326 326 325 325 325 325 324 324 324 323 323 322 321 321 319 319 320 322 321 319 319 319 319 319 319 317 316 317 317 317 316 316 318 320 320 318 317 317 319 318 318 320
325 324 324 324 324 324 323 323 322 322 321 320 319 319 319 319 320 320 319 318 317 318 321 321 319 316 316 317 318 317 316 316 316 317 318 317 316 316 316 317 317 318
323 323 324 323 323 323 323 322 320 319 319 318 319 319 319 320 321 320 319 318 317 318 320 319 317 316 317 318 317 316 316 316 317 317 316 316 316 316 316 317 316 316
320 321 322 322 322 321 322 321 320 319 319 320 321 321 320 320 320 319 319 318 318 318 317 317 316 316 317 315 313 314 314 313 314 316 316 315 315 316 315 315 315 314
314 316 318 319 319 319 320 321 321 321 321 322 321 320 321 321 319 319 319 319 318 318 317 317 317 315 314 311 310 311 310 309 311 314 315 314 315 315 315 315 313 312
311 312 313 314 315 315 317 318 319 320 321 321 320 320 321 320 319 318 318 317 318 317 316 315 314 313 311 309 308 308 306 308 313 314 314 314 315 315 314 313 310 307
311 311 311 312 312 312 314 316 317 317 318 319 319 319 319 318 317 316 315 316 316 316 314 312 311 310 309 306 304 303 302 307 312 312 312 313 313 313 313 311 307 305
311 310 311 311 311 312 313 314 315 315 316 316 316 316 316 316 316 315 314 314 314 313 313 311 308 307 304 301 302 301 301 306 311 311 312 313 313 314 313 309 306 306
310 311 311 311 311 312 313 313 313 313 314 314 314 313 314 314 314 313 313 312 312 311 310 309 306 303 302 302 302 302 303 306 311 312 312 313 312 313 313 311 307 306

ECMWFNIL_850_thetae_048.txt.gz
Theta_e
310 309 311 312 317 321 321 321 321 322 323 323 321 315 310 310 310 307 306 306 306 306 307 309 312 315 315 315 313 308 306 306 306 306 306 309 315 319 319 319 319 319
313 312 313 316 321 321 320 320 320 322 322 322 320 313 308 308 306 306 306 305 306 306 306 307 309 311 310 309 308 306 306 306 306 306 306 307 311 314 315 316 316 316
317 319 320 321 322 319 317 318 320 322 321 321 318 310 306 306 305 305 305 305 305 305 305 306 308 308 306 305 305 305 305 305 305 306 305 305 306 308 311 313 314 312
319 320 321 322 323 317 314 316 320 321 320 319 315 307 305 306 304 305 305 304 305 305 304 305 306 307 305 305 305 304 305 305 304 304 304 305 304 306 309 310 310 309
321 320 318 320 321 315 311 314 318 319 320 317 311 305 305 305 305 305 305 305 305 305 305 305 305 305 305 305 305 305 305 305 305 306 307 307 307 308 309 309 310 311
323 320 315 314 314 311 309 310 312 315 318 315 308 304 305 305 305 306 306 306 306 306 306 306 306 306 306 306 307 307 306 307 309 310 310 311 312 312 311 310 310 311
322 320 318 315 311 308 307 307 308 310 313 311 306 305 305 305 306 306 306 307 307 307 307 307 307 308 307 308 308 309 308 309 312 312 311 312 313 313 312 312 311 310
321 321 321 319 315 309 306 307 307 306 308 308 306 305 305 305 306 306 307 307 308 308 308 308 309 308 309 309 309 309 309 310 312 312 310 310 312 311 310 311 311 310
320 320 322 321 319 313 307 307 307 306 307 306 305 305 305 308 310 308 308 308 307 308 308 308 309 309 309 309 309 309 309 309 310 310 309 309 310 312 312 310 310 309
321 321 321 322 322 317 309 308 308 306 307 305 306 306 304 310 314 310 310 312 310 310 309 309 309 309 309 309 309 309 309 309 309 309 309 308 310 314 314 312 311 310
321 321 321 321 324 321 314 312 310 307 307 306 307 308 308 314 316 312 314 317 315 315 315 313 312 310 309 310 309 309 310 309 310 311 312 311 312 315 315 315 315 314
323 321 320 321 324 323 319 318 315 309 307 308 311 314 314 318 318 315 317 318 317 319 319 318 318 315 314 315 313 313 314 314 315 316 316 316 317 317 316 317 317 317
325 322 321 322 325 324 321 322 319 313 310 312 317 319 319 320 319 317 319 319 318 320 319 319 320 319 319 320 319 319 320 318 319 319 317 318 318 317 318 318 318 318
326 325 324 324 324 324 323 323 321 318 317 318 320 320 320 321 319 319 320 320 319 320 319 319 320 320 320 320 321 322 321 320 320 320 319 319 320 320 320 320 320 320
325 325 324 323 323 323 323 322 321 320 320 320 320 320 320 321 320 320 320 320 319 319 319 319 320 320 319 319 320 322 322 320 320 321 321 320 321 321 320 319 319 319
326 325 324 323 323 324 324 321 320 320 320 319 319 320 320 320 320 320 320 320 320 320 319 319 320 319 318 318 320 322 321 319 320 320 319 318 318 318 319 319 318 318
326 325 325 325 324 324 324 322 321 321 320 320 320 320 320 320 320 320 320 320 320 320 320 320 319 318 318 319 320 321 320 319 319 320 318 317 316 316 317 318 318 317
325 325 325 325 325 324 324 323 322 322 321 320 320 320 320 321 321 320 320 319 320 320 320 319 318 317 317 318 318 317 317 317 318 319 318 317 317 316 316 317 317 316
325 324 324 324 324 324 324 324 323 322 321 321 321 320 321 321 321 321 320 319 319 320 320 320 319 318 317 317 316 315 314 316 317 318 317 316 316 316 316 316 317 316
323 324 324 323 323 323 323 323 323 322 321 321 320 320 320 321 321 321 320 319 319 319 320 320 319 317 316 316 315 314 315 317 317 317 316 316 316 315 315 316 316 316
319 320 321 322 322 322 322 322 322 321 321 320 320 319 319 319 320 320 320 319 319 318 319 318 317 317 316 316 316 315 316 317 317 316 316 315 315 316 315 316 316 315
314 315 317 318 319 320 320 320 320 320 319 318 318 318 318 318 319 319 318 318 318 317 317 316 317 317 316 316 316 316 316 316 315 315 315 315 315 315 315 315 315 315
312 313 313 314 315 315 316 317 318 318 318 317 317 317 318 317 317 317 317 318 317 317 316 316 317 317 317 317 316 315 314 313 310 312 314 315 315 315 315 315 315 314
312 312 312 312 313 313 314 316 316 316 317 317 317 317 317 316 315 314 315 316 315 315 315 316 317 316 317 317 315 313 311 309 308 312 315 314 314 315 315 315 314 313
311 312 312 312 312 313 314 314 315 315 315 316 316 316 316 315 314 313 314 315 316 316 316 316 316 314 314 314 313 310 308 306 309 313 314 313 314 314 314 314 314 311
310 311 311 311 311 312 312 313 313 313 314 314 315 315 315 315 315 314 315 315 316 316 316 315 314 312 310 309 307 306 303 303 309 314 313 312 313 314 313 313 312 308

ECMWFNIL_850_thetae_051.txt.gz
Theta_e
324 318 312 309 311 310 311 316 318 318 319 318 316 311 310 310 309 308 306 306 309 315 319 318 317 316 313 312 311 310 310 311 315 321 323 322 322 322 321 321 322 323
323 316 311 311 313 314 312 313 316 319 320 320 318 312 308 308 307 306 306 306 307 311 315 316 315 312 308 307 307 307 306 305 310 318 321 321 320 321 320 319 319 321
318 314 312 315 316 316 315 314 318 322 321 320 318 312 308 307 306 305 305 306 305 307 309 309 309 308 306 306 305 305 306 305 307 313 317 317 317 318 319 319 319 320
314 314 316 319 319 318 317 316 319 322 320 318 316 311 308 306 305 305 305 305 305 306 306 306 305 305 305 305 305 305 305 304 305 307 309 310 309 309 311 314 315 318
315 318 320 322 321 318 316 316 318 320 317 315 313 309 307 305 305 305 304 305 305 305 305 304 304 304 304 304 304 304 305 305 306 306 306 307 306 306 306 308 308 311
318 322 323 323 322 317 313 313 316 317 315 313 311 307 305 305 305 305 304 305 305 305 305 305 304 305 305 305 305 306 307 308 308 309 309 309 309 309 309 309 308 308
321 324 323 323 321 316 311 310 312 314 313 312 309 306 304 305 305 305 305 305 305 305 305 306 306 307 307 307 308 308 309 309 310 310 310 310 310 310 310 311 311 310
321 324 323 322 320 314 309 308 310 313 312 311 309 305 304 305 305 306 307 306 306 306 306 307 307 308 308 308 309 310 310 310 310 309 310 310 310 310 310 310 310 311
321 323 322 321 318 312 308 308 310 312 311 310 308 305 305 307 308 308 309 309 308 307 307 307 308 308 309 309 309 310 310 310 310 310 310 310 309 309 310 309 309 309
322 323 322 320 316 311 307 307 308 309 309 308 307 305 305 308 311 311 312 314 313 311 309 309 309 309 309 309 308 309 310 310 310 310 310 311 311 311 311 311 311 310
322 323 323 322 319 314 308 307 307 307 307 306 305 305 305 308 311 311 313 317 317 315 313 312 311 310 310 310 309 309 310 310 310 311 312 314 315 315 314 314 315 314
324 324 324 323 321 317 313 310 308 307 307 306 306 306 305 307 310 311 313 317 318 318 317 316 315 313 311 311 311 313 314 315 315 316 316 316 317 316 316 316 317 317
324 323 324 323 322 320 318 314 312 311 309 306 306 307 307 310 313 313 314 317 318 318 319 319 317 315 313 313 314 317 320 320 320 319 318 317 317 318 318 318 318 317
325 324 325 324 323 321 319 318 319 317 311 305 307 310 312 315 317 316 316 318 318 318 319 319 319 318 318 317 318 320 321 321 320 319 318 318 318 318 318 317 318 318
325 325 324 324 324 322 319 319 321 319 311 307 312 317 317 319 320 318 318 319 319 319 319 319 319 319 319 319 320 321 321 320 319 319 319 318 318 318 317 317 318 319
324 324 323 322 322 321 320 319 320 319 314 312 317 321 320 320 321 319 319 319 320 320 319 320 320 319 319 319 319 319 319 319 319 320 319 318 318 317 317 317 317 318
323 324 323 323 322 320 320 321 320 320 318 317 320 321 320 321 321 319 319 320 320 320 319 319 319 319 319 320 320 319 318 318 320 321 320 319 318 317 316 316 316 317
322 322 322 323 323 321 321 322 322 321 320 319 320 320 320 321 321 320 320 320 320 320 319 319 319 319 319 319 319 318 318 318 320 320 320 318 316 315 316 317 317 317
321 321 322 322 322 321 320 320 321 321 320 319 319 319 320 320 320 320 320 320 320 320 320 319 319 319 319 319 318 317 318 319 320 319 317 315 315 315 317 317 317 316
321 321 321 321 322 321 320 319 319 320 321 320 320 320 320 320 320 320 320 320 320 320 320 320 319 319 319 319 318 317 317 318 317 316 315 315 316 317 317 316 316 316
319 319 318 319 320 320 319 319 319 321 321 321 320 321 321 321 321 320 321 321 321 321 320 320 320 319 319 319 318 317 316 316 315 315 315 316 316 316 315 315 315 315
315 316 317 318 318 319 319 319 319 319 319 318 318 318 319 319 319 319 320 320 320 320 320 319 319 318 318 317 317 317 316 316 316 315 316 316 316 316 315 315 315 315
312 313 314 315 316 317 319 319 318 317 316 316 316 316 316 317 317 317 317 318 318 318 318 317 317 317 317 316 316 316 317 316 316 315 316 315 315 315 315 315 315 315
312 312 312 312 313 314 315 316 316 316 316 315 314 314 315 315 315 315 315 315 315 315 316 316 316 316 316 316 316 316 317 316 315 314 315 315 315 315 315 315 315 314
310 311 311 312 312 313 313 313 313 313 314 315 315 315 314 313 313 313 313 313 313 313 314 314 314 315 316 316 317 317 316 316 313 312 314 315 315 315 314 314 315 314
308 309 310 310 309 310 311 312 313 313 313 313 314 315 315 314 314 313 313 313 313 312 312 312 313 315 315 314 315 316 316 314 311 310 313 315 315 315 315 314 315 315

ECMWFNIL_850_thetae_057.txt.gz
Theta_e
327 327 323 316 314 315 316 316 316 318 317 314 314 315 316 316 316 317 319 321 322 322 321 318 315 316 318 318 318 319 320 321 322 322 322 322 322 322 322 323 323 323
327 324 319 316 315 316 316 315 316 319 319 316 313 312 313 315 316 314 315 319 321 321 320 317 313 314 317 319 319 320 322 322 322 322 322 322 322 322 322 322 322 323
324 322 321 320 318 317 316 315 317 318 317 313 309 308 310 313 314 311 311 317 321 320 319 315 311 313 316 318 320 321 322 323 322 322 322 322 322 322 322 322 322 322
324 325 326 321 317 315 313 315 317 316 313 309 306 306 307 308 309 307 308 315 319 317 315 311 309 312 313 314 318 321 320 321 322 322 322 322 322 322 322 322 322 322
327 328 325 318 313 311 311 315 318 315 311 307 305 306 306 305 306 305 305 310 313 312 310 307 306 308 308 308 315 319 318 318 320 321 321 321 321 322 322 322 322 322
327 327 322 314 311 310 311 316 318 316 312 308 305 305 305 305 305 305 305 306 308 308 308 306 305 305 305 306 311 315 315 315 317 318 319 319 320 322 322 322 321 321
326 326 321 314 312 313 315 317 317 317 315 309 305 305 305 305 305 305 305 305 306 306 306 306 305 305 305 305 308 311 311 311 312 314 318 319 319 320 321 322 321 321
325 324 319 316 317 318 319 317 317 317 314 309 306 305 304 305 304 305 304 304 305 305 305 305 304 305 305 304 306 307 307 307 307 309 313 316 317 319 320 321 320 320
325 322 320 320 321 321 319 316 316 317 314 310 307 304 304 305 304 304 305 304 304 304 304 305 304 304 305 305 307 307 307 307 307 307 309 310 311 313 316 319 320 319
324 321 321 322 321 320 318 315 315 317 314 313 312 306 304 305 304 304 305 304 304 304 304 305 305 306 307 308 309 310 309 309 310 309 309 308 308 309 311 316 319 319
323 321 322 323 321 320 319 314 314 314 312 314 315 310 304 304 305 305 305 305 305 305 305 306 307 307 309 310 310 310 310 310 309 309 310 310 309 310 310 313 316 318
322 322 322 322 322 320 315 312 314 313 310 312 316 312 305 304 306 305 305 306 306 307 307 307 308 309 309 310 309 309 309 309 309 309 309 309 309 310 310 311 313 314
322 323 322 322 322 317 312 313 315 313 310 313 317 314 306 305 306 305 306 306 306 307 307 307 308 308 309 309 309 309 309 309 309 309 309 309 309 309 310 310 311 311
323 323 322 322 321 316 313 315 314 312 313 317 319 315 308 306 307 306 306 307 307 307 307 308 308 308 309 310 310 311 311 310 309 308 308 308 309 310 311 312 312 311
323 323 322 321 319 316 316 314 311 312 317 318 317 315 311 309 309 309 308 308 308 309 309 309 310 310 310 309 310 311 310 310 309 308 308 308 309 311 313 314 315 315
323 322 321 321 319 317 316 313 311 314 318 317 316 316 313 311 312 313 312 310 311 313 314 314 314 314 313 312 310 310 310 310 311 312 312 312 313 314 315 316 316 316
322 321 321 320 318 317 317 315 314 316 318 318 319 317 314 313 315 316 315 314 315 316 317 318 317 317 317 317 315 315 315 316 317 317 317 317 317 317 317 318 318 318
322 321 321 319 317 318 318 316 316 318 320 321 319 316 313 312 315 317 316 315 316 318 318 318 318 318 318 318 319 319 319 319 319 320 320 319 319 319 318 318 319 319
321 321 321 320 319 320 319 317 318 320 321 320 318 317 316 314 315 317 316 315 316 317 317 318 318 318 318 318 319 319 319 319 319 320 320 319 318 319 319 319 319 319
321 321 321 320 320 320 319 319 320 321 321 319 316 316 318 318 318 318 318 319 318 317 317 318 319 319 319 319 319 319 319 319 319 319 319 319 318 318 318 318 318 319
321 321 321 320 320 319 319 319 319 320 320 319 317 317 317 317 319 320 320 319 319 318 318 318 319 319 319 319 319 319 319 319 319 319 319 319 318 318 318 318 318 319
320 321 321 320 320 319 320 320 320 320 320 319 319 319 318 318 319 320 319 318 318 318 318 318 318 319 319 319 319 319 319 319 319 319 319 319 319 318 318 317 317 318
316 319 320 319 318 319 319 319 319 320 320 320 319 319 319 319 319 319 318 318 318 319 319 319 318 317 318 319 319 319 319 319 319 319 319 319 319 319 318 317 317 316
312 314 316 317 317 317 316 316 318 318 318 318 318 317 317 317 317 317 317 317 317 317 317 318 317 316 317 318 318 319 319 319 320 320 319 319 319 318 318 317 316 316
309 310 311 312 314 314 313 314 315 316 316 316 316 316 316 315 315 315 315 315 315 314 314 314 314 314 315 315 316 316 317 317 318 318 318 318 318 317 316 316 316 316
309 309 309 309 310 310 310 311 312 312 313 314 315 315 315 315 314 314 314 314 314 313 313 313 313 313 313 313 313 314 314 315 315 316 316 316 316 316 315 315 316 316

ECMWFNIL_850_thetae_060.txt.gz
Theta_e
327 326 327 325 320 316 315 313 313 315 315 316 316 313 312 313 315 317 319 320 320 320 318 314 314 316 317 317 317 318 319 320 320 320 320 321 322 322 323 322 323 324
327 327 327 324 319 317 316 313 314 317 316 316 316 313 311 311 314 316 317 318 318 319 317 312 313 316 316 316 317 317 319 320 320 321 321 321 321 322 322 322 323 324
327 327 327 323 317 314 314 314 316 318 316 316 315 313 310 309 311 313 313 315 316 318 316 312 311 315 316 314 315 317 319 321 321 321 321 321 322 322 322 323 323 323
327 327 326 321 317 315 314 315 317 317 315 313 312 310 308 306 308 309 310 315 318 318 315 311 310 314 315 313 313 316 319 320 321 321 321 321 321 322 322 322 322 323
327 326 323 321 319 317 314 314 316 315 313 310 307 306 306 305 306 306 306 313 319 318 314 309 309 314 315 311 312 316 319 321 321 321 321 321 321 321 321 322 322 323
326 324 324 323 320 316 313 314 315 315 311 307 305 305 305 305 305 305 304 310 315 315 311 307 307 310 310 308 310 315 318 320 320 320 320 320 321 321 321 321 322 322
325 324 326 325 320 316 315 315 316 314 309 306 305 305 305 305 305 305 305 308 311 311 308 306 305 306 306 306 309 314 316 317 318 318 319 319 320 321 321 321 322 321
325 326 326 323 319 316 315 316 317 314 309 306 305 304 305 304 305 305 305 306 307 308 307 306 305 305 305 305 308 312 313 315 315 316 318 318 319 320 321 321 321 321
325 326 326 322 316 313 314 317 318 315 311 308 305 304 305 304 304 305 304 304 306 306 306 305 305 304 305 305 306 308 310 310 311 313 317 318 318 319 320 320 320 320
326 326 325 321 315 313 315 318 320 318 316 313 307 304 304 304 305 305 305 304 304 305 305 304 305 304 304 305 306 307 307 307 307 309 313 316 317 317 318 319 319 318
326 325 324 320 315 315 316 318 321 321 319 317 312 307 304 304 305 305 305 305 304 305 304 304 304 304 305 306 307 307 307 307 307 308 309 311 312 313 314 316 318 318
325 324 323 320 318 319 317 318 321 321 319 319 317 311 306 304 305 305 305 305 304 304 305 304 304 306 307 308 308 308 308 308 309 309 309 309 310 311 312 313 316 317
324 323 322 321 322 321 317 318 321 319 318 319 318 315 311 306 305 305 305 305 305 305 305 305 305 307 308 309 309 309 309 309 310 310 310 311 311 311 312 312 313 314
324 324 322 322 323 321 318 319 319 317 317 319 318 316 315 311 306 305 306 305 305 305 305 306 306 307 309 309 309 309 309 309 310 310 310 310 310 310 310 310 311 311
323 323 322 322 322 321 320 317 316 315 316 317 315 314 316 315 308 304 306 305 305 306 306 307 307 308 309 309 309 309 309 309 309 309 309 309 309 310 310 310 311 311
323 322 322 322 321 321 320 315 314 314 314 314 314 312 315 316 311 305 306 306 306 307 308 308 308 308 308 309 309 309 309 309 309 308 309 309 309 310 310 311 313 314
323 323 322 322 321 321 320 317 315 314 313 314 314 312 315 317 313 309 309 310 310 312 311 311 310 310 310 310 310 310 309 309 310 310 312 314 315 314 314 314 316 316
322 322 321 321 321 320 318 317 316 316 315 314 313 314 317 318 315 312 312 313 314 315 315 315 315 314 314 315 315 315 314 314 315 316 317 318 319 318 317 317 317 317
320 320 320 320 320 320 318 317 316 315 314 313 315 317 319 318 317 314 313 314 315 316 316 317 317 317 317 317 318 318 318 318 318 319 319 319 319 319 318 318 318 318
320 320 320 320 320 319 318 317 316 314 312 312 317 319 319 319 318 314 311 313 316 317 316 317 317 317 317 317 318 318 318 318 318 319 319 319 319 318 318 318 318 318
320 320 321 320 320 318 317 317 317 315 313 313 315 319 319 319 318 315 312 312 315 317 317 317 317 317 317 318 318 318 318 318 318 319 319 319 319 318 318 318 318 318
320 320 320 320 320 319 319 319 319 317 316 315 316 318 318 317 317 317 316 316 317 318 318 319 319 318 318 319 319 319 318 319 319 319 318 319 319 318 318 318 318 318
319 319 319 318 319 319 320 320 319 318 318 318 319 319 318 316 316 317 318 318 319 319 319 319 319 318 318 318 318 319 319 319 319 318 318 318 318 318 319 319 318 318
314 315 316 317 317 318 318 318 319 319 319 320 320 319 318 318 318 318 318 318 318 317 317 318 318 318 317 317 317 317 317 318 318 318 318 318 318 319 319 319 319 318
309 310 311 312 313 313 314 315 316 317 317 317 318 318 318 318 319 318 317 317 317 316 316 317 317 317 317 316 316 316 316 317 318 318 318 318 318 318 318 319 318 318
307 307 308 309 309 310 311 312 312 312 312 311 311 312 313 314 314 315 315 315 316 315 315 316 315 315 314 315 314 314 315 315 315 315 315 315 315 315 316 316 316 316

ECMWFNIL_850_thetae_063.txt.gz
Theta_e
328 326 324 324 320 315 315 316 317 317 315 315 314 314 314 315 316 317 318 318 318 318 316 314 316 318 318 318 317 317 318 319 320 321 322 323 324 324 324 324 324 325
328 325 325 325 320 316 316 317 317 317 315 316 316 316 316 315 316 317 318 318 318 318 315 313 315 317 317 317 317 317 318 319 320 321 322 322 323 323 323 323 324 324
328 326 326 326 320 317 318 318 318 318 318 318 318 318 317 316 316 317 317 318 319 317 313 312 315 317 317 317 318 319 320 321 321 322 322 322 322 322 323 323 323 324
328 326 327 325 320 318 319 319 320 320 320 320 318 317 317 316 315 315 314 317 319 316 311 311 314 317 317 317 317 319 320 321 321 322 322 322 322 322 322 323 323 324
327 327 327 324 320 320 319 318 320 321 322 321 316 314 315 314 312 311 311 315 317 314 310 310 313 316 315 314 315 317 319 320 321 321 322 322 322 322 322 322 323 323
328 327 326 323 320 321 320 319 319 320 320 318 312 310 312 311 308 307 308 312 314 311 308 310 313 315 314 312 311 315 318 320 321 320 321 321 322 321 322 322 323 323
328 327 325 322 322 322 320 318 318 318 317 312 308 307 308 307 305 305 307 309 310 308 306 308 311 313 311 309 309 313 317 319 319 319 320 321 322 322 322 322 323 323
328 326 324 324 324 323 320 319 318 318 315 309 306 306 306 305 305 305 306 307 307 307 305 305 307 307 307 307 310 313 315 316 317 318 318 320 321 321 322 322 322 321
327 325 324 325 324 321 318 318 319 319 315 309 305 306 305 304 305 304 305 307 306 306 305 305 305 305 306 307 310 312 313 313 315 317 317 318 319 321 321 321 320 319
325 324 326 326 323 318 316 318 320 320 318 312 306 305 305 304 305 304 305 306 306 305 305 305 305 305 306 308 310 311 312 312 313 315 316 316 316 318 319 320 319 319
325 325 326 325 322 316 314 318 321 321 319 314 307 305 305 305 304 304 305 306 305 305 305 305 305 304 306 307 309 310 310 309 310 313 315 316 316 316 317 318 319 318
326 327 327 325 320 315 315 319 322 321 320 316 311 307 306 305 305 304 305 306 305 304 304 305 304 304 305 307 308 308 308 308 309 310 311 312 313 312 313 315 317 317
326 327 327 324 319 316 317 321 322 321 320 318 315 312 309 308 307 305 305 306 305 304 304 305 305 305 305 307 308 308 308 308 309 309 309 310 310 311 311 312 314 316
327 328 326 323 319 318 320 321 322 322 320 318 317 316 314 312 310 307 306 307 306 305 304 305 305 306 307 307 308 308 308 309 309 310 310 310 310 311 311 311 311 312
327 327 325 321 320 320 321 321 322 321 319 318 318 318 317 315 313 310 308 307 307 306 306 305 306 306 308 309 309 310 310 310 310 310 310 310 310 310 310 310 310 311
326 325 323 321 321 321 321 321 322 321 319 317 317 317 316 316 315 312 309 308 308 307 307 306 306 307 308 309 311 311 312 311 311 311 311 310 310 310 310 310 310 311
324 323 322 321 321 322 321 321 320 318 315 315 314 314 314 315 315 313 310 310 310 310 310 309 307 307 308 309 310 311 311 311 311 311 311 311 312 313 314 313 312 313
323 323 323 322 322 322 321 320 317 314 313 313 312 313 314 314 315 315 312 311 313 314 314 312 309 307 308 308 309 310 311 311 311 311 312 313 315 317 318 318 317 317
323 323 322 321 321 321 320 318 317 316 316 315 314 314 314 314 313 314 313 313 314 316 316 315 312 309 309 309 311 313 314 315 315 315 316 317 318 318 318 318 318 318
322 322 321 320 320 319 319 319 318 318 318 317 316 315 315 315 314 315 316 316 315 315 316 316 314 312 312 313 314 316 317 317 318 318 318 319 319 319 319 319 318 319
320 320 319 319 319 319 320 319 319 318 316 315 315 315 316 317 317 318 318 318 315 313 314 316 315 314 315 316 317 317 317 318 318 318 318 318 319 319 319 319 319 319
319 319 319 319 319 319 319 319 318 317 316 315 315 315 316 317 319 319 319 319 317 314 314 315 316 315 315 317 317 317 317 317 318 318 318 318 318 318 318 319 319 319
318 319 319 319 319 319 319 319 319 318 318 317 317 317 317 317 319 319 319 319 319 318 317 317 317 317 318 318 318 318 318 318 318 319 319 318 319 318 318 318 318 318
317 317 318 318 318 318 319 319 319 319 319 319 319 319 319 319 319 319 319 319 319 319 319 319 319 318 318 318 318 317 317 318 318 318 318 318 318 318 318 318 318 318
313 314 315 315 316 317 317 318 318 318 318 318 318 319 318 318 318 318 318 319 319 318 318 318 317 317 316 316 317 317 317 317 317 317 317 317 317 317 318 318 317 317
309 310 311 312 313 313 314 316 316 316 316 316 316 317 317 317 316 316 317 317 316 316 316 316 316 316 316 316 316 316 315 315 315 315 315 314 314 314 315 314 314 315

ECMWFNIL_850_thetae_066.txt.gz
Theta_e
330 329 327 326 323 320 319 321 324 326 325 326 325 324 323 323 321 320 321 319 319 319 317 317 318 318 318 319 321 322 323 323 323 322 322 323 325 325 325 327 329 328
330 328 325 324 323 322 321 322 325 326 325 325 325 324 324 323 320 318 319 319 320 319 315 316 318 318 318 319 320 320 319 321 321 320 321 322 323 324 325 327 329 329
329 327 325 324 322 320 319 319 323 326 323 322 322 322 321 320 317 316 317 319 321 319 313 314 318 319 318 317 318 318 320 322 322 322 323 322 322 324 326 327 329 328
328 327 326 325 320 317 316 318 323 325 321 317 317 317 316 316 316 316 317 319 321 318 312 313 317 317 317 317 317 320 322 323 323 323 324 323 323 324 325 327 328 328
326 327 327 325 319 316 316 320 323 323 320 318 316 315 315 316 318 319 319 320 321 316 310 313 317 317 317 318 319 321 322 322 323 323 323 324 323 323 323 325 326 327
326 327 328 325 319 317 318 322 323 322 322 320 318 318 317 318 321 321 320 321 321 317 312 313 316 317 317 318 320 321 322 321 322 322 322 323 323 322 323 324 325 327
327 328 327 324 320 319 320 323 323 323 323 321 319 318 316 318 320 320 321 322 321 319 316 315 316 316 316 319 320 321 321 321 321 322 322 323 323 323 323 326 327 327
327 327 326 323 320 321 321 321 322 323 323 321 318 314 312 317 319 320 322 322 320 319 317 316 317 316 316 319 320 319 320 320 321 321 321 322 323 323 323 325 327 327
328 328 326 322 321 322 320 320 323 322 319 317 314 310 312 317 319 319 321 321 319 318 315 315 316 314 314 317 318 318 319 319 320 321 321 321 322 323 322 323 324 324
328 327 324 323 323 322 320 320 322 321 316 314 312 311 312 316 318 319 320 319 317 316 313 312 311 310 313 316 317 318 319 318 319 320 320 320 320 321 321 321 321 321
328 326 324 324 324 321 319 320 321 320 317 314 313 311 311 313 317 319 319 317 316 315 313 311 311 311 313 315 315 316 317 317 318 318 319 320 320 320 320 320 321 321
327 324 323 325 323 320 319 321 322 321 318 316 314 312 309 312 317 319 318 317 315 314 313 312 313 313 313 313 312 312 313 313 314 315 316 317 319 319 320 320 320 320
326 324 324 325 323 319 320 322 322 321 320 318 316 313 310 314 318 318 318 318 316 314 314 311 312 313 313 312 311 310 310 310 311 312 312 313 314 316 318 319 319 319
325 323 324 324 322 320 321 322 323 322 320 316 313 313 315 317 318 316 316 317 315 315 315 310 310 313 312 311 311 310 310 310 310 312 312 311 311 312 313 314 316 316
324 323 323 323 321 320 321 323 322 321 319 315 312 314 315 317 317 315 316 317 315 315 313 310 313 316 313 312 313 311 311 312 312 313 314 313 313 314 312 312 315 314
322 322 322 321 321 321 322 323 323 321 319 316 314 314 314 313 313 314 316 317 317 316 313 310 312 312 309 310 312 312 313 313 312 313 314 315 315 315 312 311 313 312
322 322 322 321 321 322 322 323 323 322 320 318 316 316 315 314 312 312 313 314 314 313 311 310 309 308 308 310 310 310 312 312 311 312 313 314 316 316 315 314 312 311
323 321 321 321 320 321 322 322 321 321 320 318 317 316 315 315 315 314 313 313 311 310 308 309 309 308 309 310 310 310 310 310 312 312 311 313 315 316 318 319 317 316
322 321 320 320 320 320 320 320 321 320 319 318 316 314 313 314 315 315 315 314 313 312 311 309 310 312 312 311 311 311 309 310 313 313 311 314 315 315 318 320 321 321
321 321 320 319 319 318 318 319 320 319 317 315 313 312 312 314 315 315 315 315 314 314 313 311 312 315 316 315 314 313 312 312 314 313 313 315 316 316 318 320 321 321
320 320 320 318 318 318 317 318 319 318 316 316 315 314 314 315 316 316 316 315 314 314 314 313 313 316 317 317 317 316 316 316 316 315 315 317 318 318 319 319 320 319
319 319 319 318 318 318 319 319 318 318 317 317 316 316 316 316 317 318 317 316 315 316 315 313 314 316 317 317 317 317 317 317 317 318 318 318 319 319 318 319 319 319
319 319 319 319 319 319 319 319 318 317 317 316 315 315 316 317 318 319 319 318 317 318 317 315 315 316 317 317 318 318 318 318 318 318 318 318 319 319 318 318 318 319
318 318 318 319 319 319 319 319 319 318 318 317 317 317 317 317 318 318 319 319 319 319 319 318 318 318 318 318 318 318 318 318 318 318 318 318 318 319 319 319 319 318
316 316 317 317 318 318 318 318 318 319 318 317 317 318 318 318 318 318 318 318 319 319 319 319 319 319 318 318 317 317 317 317 317 317 317 317 318 318 318 318 317 317
313 314 315 315 315 315 315 316 316 316 316 315 315 316 316 316 317 317 317 317 317 318 317 317 317 317 316 316 316 315 315 315 315 315 315 315 315 315 315 315 315 315

ECMWFNIL_850_thetae_069.txt.gz
Theta_e
326 326 324 324 326 328 328 328 329 329 329 329 329 328 328 327 326 325 326 324 324 325 322 319 321 320 321 322 323 327 329 328 329 328 326 325 325 325 326 327 326 326
327 325 323 325 328 328 327 328 328 328 328 329 328 328 328 327 326 326 327 325 325 326 320 317 318 319 323 323 320 324 327 326 327 328 326 324 325 325 325 326 326 325
325 324 324 327 328 328 327 328 328 327 327 328 328 328 328 327 326 326 326 325 326 325 319 315 317 320 322 321 319 322 324 325 326 325 324 325 326 326 325 325 325 325
323 323 325 328 328 327 328 328 328 327 327 327 328 327 327 326 326 326 326 325 325 324 317 314 317 322 322 320 321 321 320 323 323 321 324 326 327 327 325 324 327 327
325 325 326 327 327 327 328 328 327 327 327 327 327 327 326 326 325 325 325 325 325 323 320 318 319 322 323 323 324 322 320 322 322 321 324 325 326 327 325 324 326 327
327 326 326 327 326 326 327 326 326 327 327 327 327 326 326 326 325 325 325 325 325 323 321 323 323 322 324 325 324 323 323 323 322 323 323 324 326 327 326 325 326 326
327 325 326 326 322 322 326 326 326 326 326 326 326 325 324 325 325 325 325 325 325 323 321 323 324 324 324 324 323 323 324 323 323 324 324 325 327 326 327 327 326 327
326 325 327 325 318 318 324 326 325 325 326 325 325 325 324 324 325 325 325 325 324 322 321 323 324 324 323 323 323 323 323 323 323 323 324 326 327 327 327 327 326 326
327 326 326 322 316 317 324 326 325 325 325 324 324 324 324 324 324 324 325 324 323 322 321 322 323 323 323 323 323 322 322 322 323 323 324 326 328 328 328 327 327 326
327 327 325 322 318 318 324 326 325 325 325 324 324 323 323 323 323 324 325 324 322 321 320 321 323 322 322 322 321 321 321 322 322 323 323 324 326 327 328 328 327 327
327 327 326 323 320 321 324 326 325 324 323 323 323 322 322 323 323 324 325 323 321 319 319 320 321 321 320 320 320 320 321 321 322 322 323 323 324 325 326 326 326 325
327 327 325 323 322 323 323 324 325 323 319 321 322 321 321 322 323 324 323 321 319 318 318 318 319 320 320 320 321 321 320 321 322 322 322 322 322 323 324 324 324 324
329 328 326 325 325 324 323 324 325 322 319 320 321 320 321 322 322 323 321 319 318 318 317 317 318 319 320 320 320 320 320 320 321 322 322 322 322 322 323 323 323 323
330 328 327 327 326 323 323 325 324 322 321 321 320 320 320 321 322 321 320 319 318 317 317 317 318 319 320 320 320 320 320 320 320 321 321 321 321 322 322 322 322 322
327 326 326 327 325 322 323 325 324 322 322 321 320 320 320 321 321 321 321 320 319 319 318 318 319 320 320 320 320 320 320 320 320 320 320 320 320 320 320 320 321 321
325 325 325 325 324 323 323 324 324 323 322 320 320 321 321 321 320 320 321 321 320 320 320 319 320 320 319 319 320 319 320 320 320 320 319 319 320 319 319 319 320 320
324 325 324 323 323 324 324 324 324 323 321 320 321 321 321 321 320 320 320 320 320 320 320 321 322 319 317 318 319 319 320 320 320 320 320 319 319 319 318 318 319 319
324 323 322 321 322 322 323 323 323 322 321 321 320 320 320 320 321 321 320 320 320 320 320 319 317 313 312 314 317 319 320 320 320 320 320 319 319 319 318 318 318 319
324 322 321 320 321 322 323 323 322 321 321 320 319 318 319 319 318 317 317 318 318 318 317 314 310 308 308 310 312 315 317 317 318 319 319 318 318 319 319 319 319 320
322 321 320 321 322 322 322 322 321 321 319 318 316 315 315 315 314 314 315 315 315 316 315 313 311 311 309 308 308 310 311 312 315 319 320 319 319 319 319 320 321 322
320 319 319 320 321 319 319 320 320 320 319 318 317 315 314 313 313 313 315 315 315 315 314 314 314 313 312 311 310 309 308 310 312 316 319 319 319 321 322 322 323 324
319 319 319 320 319 319 319 319 320 319 318 318 317 315 314 314 313 313 315 316 316 316 315 314 313 314 313 313 312 311 310 312 314 315 318 319 320 322 323 322 323 323
320 319 319 319 319 318 318 319 319 319 318 318 317 316 316 315 314 314 314 315 316 316 315 314 314 314 314 314 314 314 314 315 316 318 320 321 322 323 322 321 321 321
319 319 319 319 319 319 318 318 318 319 318 318 318 318 317 317 317 316 316 315 315 316 317 316 315 315 314 315 316 317 317 317 317 318 320 321 322 322 321 320 320 319
318 319 319 319 319 319 318 318 318 318 318 318 318 317 317 316 317 318 318 318 318 318 318 318 317 317 317 317 318 318 318 318 318 318 319 321 321 320 321 321 320 318
316 316 317 317 318 318 318 317 317 317 317 317 317 317 317 316 317 318 318 319 319 319 319 319 319 319 319 318 318 318 317 317 317 318 318 319 319 318 318 318 317 316

ECMWFNIL_850_thetae_072.txt.gz
Theta_e
332 331 328 326 326 324 324 328 329 329 329 328 329 327 328 330 327 327 329 327 328 328 328 328 325 321 322 324 327 329 329 328 328 328 327 326 326 326 326 326 326 326
332 329 326 325 325 324 326 327 328 328 328 328 327 325 326 326 325 327 327 325 326 325 324 326 325 321 319 320 322 326 328 328 328 329 327 325 325 325 325 326 326 326
330 326 325 324 324 325 326 327 327 327 328 328 327 326 324 322 323 325 324 323 324 321 321 325 323 321 322 320 319 322 324 325 327 328 327 326 325 325 325 325 325 325
327 323 324 323 323 325 324 325 326 327 328 328 327 327 326 324 325 325 323 325 325 319 318 320 320 323 325 321 320 320 321 322 323 324 326 327 326 325 325 325 325 324
325 323 323 323 324 324 322 323 325 326 327 327 327 328 327 326 327 325 323 326 324 318 315 317 320 325 325 324 323 320 319 320 319 321 325 326 327 327 325 325 325 324
326 324 324 325 325 324 323 325 326 326 327 327 327 328 326 326 326 325 324 325 323 317 314 316 320 325 325 325 323 320 322 323 320 322 324 325 327 328 326 325 325 325
326 324 326 327 326 324 325 327 326 326 326 327 327 327 325 325 326 325 324 325 322 318 315 316 321 325 325 323 322 324 325 323 322 324 326 325 327 328 328 326 325 324
325 326 328 328 327 326 326 327 327 326 325 326 327 325 324 325 326 325 325 325 324 321 320 320 322 324 323 322 324 325 324 322 323 325 326 326 326 327 328 327 325 324
326 328 329 328 328 326 325 327 328 325 323 325 325 324 324 326 326 325 325 326 324 322 322 323 324 323 323 323 324 323 322 324 324 323 324 326 326 327 328 327 326 325
328 329 328 327 326 325 326 326 326 324 323 324 325 325 325 326 325 324 325 325 323 322 322 323 324 323 323 323 323 322 323 324 322 321 323 327 328 328 327 327 326 326
329 329 327 325 324 326 326 325 324 324 324 324 325 325 325 325 324 324 325 324 322 321 321 323 324 322 322 322 321 321 322 323 322 322 323 326 328 328 327 327 327 326
329 328 326 323 324 326 325 323 324 325 325 324 324 323 322 324 324 324 325 323 321 320 321 322 323 321 321 321 320 321 321 322 323 323 323 324 326 326 327 327 326 326
328 328 326 322 323 324 324 323 323 324 324 323 323 322 321 323 324 325 324 321 319 319 319 320 321 321 321 321 320 321 321 322 322 323 322 323 323 324 324 324 324 325
327 326 325 323 322 323 324 324 322 322 321 320 321 321 321 323 324 323 322 320 319 318 318 319 320 320 321 321 321 321 321 322 322 323 322 322 323 323 323 323 324 323
326 325 325 325 324 324 325 324 322 321 321 320 320 320 321 323 323 321 320 319 318 318 318 319 319 320 320 320 321 321 321 321 322 322 322 322 323 323 322 323 323 322
325 326 326 326 325 325 325 324 322 322 321 320 320 320 322 323 322 321 320 319 319 319 318 319 319 320 320 320 320 321 321 321 321 321 321 321 321 322 321 322 322 322
326 326 326 325 324 324 324 323 322 322 320 320 320 321 321 322 321 321 321 320 320 320 319 319 320 320 320 320 320 320 320 320 321 320 320 320 320 320 320 320 321 321
326 326 325 324 323 324 324 323 322 321 321 321 322 321 321 321 321 321 320 320 320 320 320 320 321 320 319 319 320 320 320 320 320 320 320 320 320 320 319 319 319 319
326 325 323 323 324 325 324 323 321 321 321 321 321 320 320 320 320 320 320 320 320 320 320 320 319 319 319 319 319 320 320 320 320 320 319 318 319 319 318 318 318 318
326 324 323 324 324 324 323 322 321 321 321 320 318 319 319 320 320 320 320 319 319 319 318 315 313 314 316 318 318 319 319 318 318 319 320 319 318 318 318 318 318 318
324 323 323 324 324 323 323 322 321 321 320 319 318 317 317 316 316 316 316 316 316 316 315 313 311 312 313 313 312 313 314 312 312 314 316 317 318 319 319 319 318 318
321 321 322 322 323 323 322 321 320 320 319 318 317 315 314 314 313 314 314 313 314 314 314 313 313 313 312 311 310 311 312 311 311 311 312 315 318 318 318 319 319 318
320 321 321 321 321 320 319 319 320 319 317 316 314 314 314 313 312 312 312 312 313 313 314 313 313 312 311 311 311 312 313 313 313 313 314 317 319 319 318 319 318 318
319 320 320 321 320 319 318 319 319 319 318 316 315 314 314 313 312 312 312 311 311 312 314 314 313 312 311 312 312 313 313 313 313 315 317 320 321 320 320 320 318 318
319 319 319 319 319 318 318 319 318 318 318 318 317 317 316 316 315 315 314 314 313 313 314 314 313 312 312 313 314 314 314 314 315 317 318 319 320 320 320 319 317 317
317 318 318 318 318 318 318 319 319 319 318 318 318 317 317 316 317 317 317 317 317 317 317 316 316 315 315 315 315 315 315 316 317 318 318 319 319 319 318 317 317 317

ECMWFNIL_850_thetae_075.txt.gz
Theta_e
333 332 332 331 329 328 327 328 331 331 331 331 331 330 330 330 329 329 327 328 328 326 327 327 325 327 329 330 329 328 327 327 327 327 327 327 326 326 326 326 326 327
333 332 331 331 330 329 328 329 330 331 330 330 329 328 329 328 327 327 327 328 328 327 326 325 322 322 325 327 329 329 327 327 327 326 326 326 326 326 325 325 325 326
333 331 330 331 331 329 329 330 330 330 329 329 328 328 328 328 327 327 327 327 328 328 327 324 320 319 321 324 326 328 327 327 327 326 325 324 324 325 325 325 325 325
332 330 329 331 330 328 329 330 329 329 329 329 328 327 328 328 327 326 326 324 325 325 326 324 321 320 321 322 323 324 326 327 327 326 325 324 324 324 325 325 325 325
332 330 331 331 329 329 330 329 328 329 328 328 327 327 327 326 325 324 324 324 323 323 324 325 324 322 321 321 321 321 324 326 325 325 325 325 325 325 325 325 325 324
331 331 331 330 329 329 329 328 328 329 328 328 328 327 326 325 324 324 324 325 323 322 323 325 326 324 321 320 319 319 321 322 322 323 325 326 326 325 325 325 324 324
330 331 330 328 328 329 329 328 329 329 328 328 328 327 325 323 323 323 323 322 319 320 322 325 326 324 320 320 320 319 321 321 321 323 324 325 327 326 325 325 324 325
329 330 328 326 327 329 328 328 328 328 328 327 327 326 324 322 322 323 322 320 318 318 321 324 325 323 321 323 322 321 322 323 323 325 325 326 327 326 326 326 325 325
329 328 326 325 327 328 328 328 328 327 327 327 325 322 322 323 324 324 323 322 319 320 322 324 323 322 323 324 323 323 324 324 325 326 326 327 328 328 327 326 325 325
329 327 327 327 327 328 328 328 327 325 326 326 323 320 323 325 325 324 325 324 321 321 324 324 323 323 324 323 323 324 324 323 323 324 326 327 327 328 327 326 325 324
328 326 327 328 328 328 328 325 323 323 325 324 320 321 326 326 324 324 325 324 321 322 323 323 322 323 323 322 322 323 322 322 323 324 327 327 327 327 327 326 325 324
327 327 328 328 328 328 326 324 324 323 324 321 319 323 327 325 324 324 324 323 321 321 323 323 322 322 322 321 322 322 321 323 323 325 327 327 327 327 326 325 325 324
328 328 328 327 327 327 326 325 325 323 322 320 320 324 325 324 324 325 323 321 320 321 323 323 321 321 321 320 321 321 322 323 323 323 324 325 326 326 326 326 326 324
328 328 328 327 326 326 325 325 324 323 322 322 321 322 323 323 325 324 321 320 320 321 322 321 320 320 320 320 321 321 322 323 322 322 323 323 323 324 325 325 325 324
328 327 327 326 326 326 325 325 324 324 324 323 321 321 322 324 324 322 319 319 318 319 320 320 320 320 320 321 321 321 322 322 322 322 323 323 323 323 324 324 324 323
327 326 326 325 324 325 325 325 324 324 323 322 321 322 323 324 322 320 319 319 318 317 319 320 320 320 320 321 320 320 321 322 322 322 323 323 323 323 323 323 322 322
326 325 324 323 323 323 324 323 322 322 321 321 322 323 323 322 321 320 319 318 318 317 318 319 320 320 320 320 320 321 321 321 321 321 321 322 321 321 321 322 322 322
325 324 324 324 324 323 322 321 321 321 321 321 322 322 322 321 320 319 318 318 319 318 318 320 320 320 320 320 320 321 321 321 320 320 320 321 320 320 320 320 320 320
326 325 325 325 324 323 322 321 321 320 320 321 322 322 321 321 321 320 319 320 319 318 318 320 320 320 320 320 320 320 320 320 320 320 320 319 320 319 319 319 319 319
326 326 325 324 323 322 322 321 320 320 320 321 321 321 321 321 321 320 320 320 320 320 320 320 320 320 319 319 320 320 320 320 320 319 319 319 319 318 318 318 318 318
325 325 325 324 323 322 321 321 320 321 321 321 320 321 321 321 320 320 320 320 320 319 318 317 317 319 319 319 319 319 320 320 318 316 317 318 318 318 319 318 318 318
325 325 324 323 322 321 321 321 321 321 321 321 320 320 320 320 320 319 318 318 317 315 313 312 313 314 316 317 318 319 319 318 314 312 313 315 316 316 317 317 317 318
324 324 324 323 321 321 321 321 321 321 320 319 319 320 320 319 319 318 316 315 314 313 312 312 311 311 312 313 314 314 315 314 312 312 313 313 313 314 314 314 316 317
323 323 323 322 321 320 320 320 320 319 317 317 317 316 315 315 316 316 314 313 312 312 312 312 312 312 311 311 311 311 312 312 312 312 313 313 314 316 316 316 317 318
321 321 321 321 320 320 320 320 319 318 317 315 314 312 311 311 311 312 311 311 311 311 312 312 312 313 312 312 312 312 312 313 313 313 314 315 316 317 317 317 318 318
319 319 319 319 319 319 319 319 318 317 316 314 313 313 313 313 313 312 312 312 313 313 314 314 314 314 314 314 314 313 313 314 315 315 315 315 316 317 317 317 318 318

ECMWFNIL_850_thetae_078.txt.gz
Theta_e
334 334 333 333 332 331 331 330 327 326 327 329 330 329 329 330 330 328 327 326 327 329 329 329 330 330 329 329 329 328 327 327 327 327 327 326 326 327 327 327 327 328
334 334 333 332 332 331 330 330 327 326 329 331 331 330 330 330 329 328 326 325 328 329 330 329 329 329 329 329 329 328 327 327 327 326 327 326 326 327 327 327 327 327
333 332 331 332 331 331 331 329 328 329 329 331 331 330 330 329 329 328 326 325 326 327 328 328 327 328 329 329 328 328 326 326 326 326 326 326 326 326 326 326 326 327
332 330 329 331 331 331 331 328 328 330 329 329 331 331 329 329 329 328 325 325 325 324 325 325 325 327 329 329 328 328 327 326 326 326 326 326 326 326 326 326 325 326
332 331 330 331 331 331 330 327 327 329 329 329 330 330 329 329 328 326 325 326 325 324 324 323 322 323 325 326 327 328 327 327 327 327 325 325 325 325 325 325 325 325
331 332 332 331 330 330 329 328 328 328 328 329 329 329 328 328 327 326 327 328 327 326 324 321 319 320 320 323 325 325 326 327 327 326 325 324 324 324 325 325 325 325
331 331 332 331 330 330 329 328 329 327 327 329 329 328 328 328 328 327 327 327 326 325 323 320 319 319 319 321 322 321 323 325 325 324 325 324 324 324 324 324 325 325
331 331 331 330 330 330 329 327 327 326 327 329 328 328 328 328 327 326 326 325 324 324 323 321 320 321 320 321 321 320 320 321 322 323 324 324 324 323 324 324 324 324
332 332 330 330 330 330 328 328 327 326 327 328 328 327 328 327 325 326 325 323 322 324 325 323 322 322 322 321 321 320 320 320 322 323 324 324 324 323 324 324 324 324
331 332 331 331 330 329 329 329 327 326 327 328 327 327 326 325 325 325 322 319 321 325 325 323 323 323 323 322 322 322 322 323 323 324 325 325 324 323 324 324 324 325
330 331 331 330 328 328 329 328 326 325 327 328 327 326 326 325 325 323 320 318 322 325 324 323 324 323 323 323 323 323 323 323 323 324 325 325 325 325 325 324 324 324
330 331 331 329 326 327 328 327 325 326 327 327 326 325 325 325 324 323 321 320 322 323 322 323 324 323 323 323 323 323 323 322 322 323 325 326 326 326 325 325 324 324
330 330 330 327 326 327 328 326 326 326 327 327 325 324 325 325 324 324 322 321 323 323 322 324 323 322 323 322 322 322 322 323 323 324 326 326 326 326 326 325 325 325
330 330 329 327 327 327 327 326 326 326 326 326 325 325 325 324 324 324 321 321 323 323 322 323 322 322 322 322 321 322 322 322 324 325 326 327 326 327 325 323 323 324
329 330 329 328 327 327 326 326 326 326 325 325 325 326 325 323 324 323 321 321 323 323 322 322 321 321 321 321 322 322 322 322 323 324 325 326 326 326 325 323 323 324
330 329 329 328 328 327 326 325 325 324 324 325 325 325 324 324 324 322 320 321 323 323 321 321 320 320 320 321 322 322 322 322 322 322 323 324 325 325 326 325 324 324
329 329 328 327 327 326 325 325 324 324 325 325 325 324 324 324 323 321 320 321 321 322 321 320 320 320 320 321 321 322 322 322 322 323 322 323 323 323 324 324 324 323
328 328 327 326 325 325 324 324 325 324 324 324 324 324 325 324 321 320 319 319 319 320 320 320 320 320 320 320 320 322 322 322 322 322 322 323 323 323 323 322 322 322
327 327 326 325 325 325 323 322 324 323 322 323 323 323 323 322 320 319 319 318 318 319 320 320 320 320 320 320 320 321 322 321 321 321 321 321 322 322 322 321 321 321
326 326 325 323 322 322 322 321 322 322 321 322 323 322 322 321 319 318 318 318 318 319 320 320 320 320 320 320 321 321 321 321 320 320 320 320 320 320 320 320 320 319
326 324 323 321 321 322 321 321 321 322 322 322 322 321 321 320 319 319 319 319 318 319 320 320 320 320 320 320 320 320 320 320 320 320 320 319 319 319 319 319 319 319
325 324 322 321 322 321 319 319 321 321 322 322 321 321 320 319 320 320 320 319 319 319 320 320 320 319 320 320 320 320 320 319 319 319 319 319 319 318 318 318 318 318
324 324 322 322 322 321 318 319 321 321 321 321 321 321 320 320 320 320 320 320 320 319 318 319 319 319 319 319 319 319 318 317 317 317 316 316 316 315 315 315 315 315
323 323 322 321 321 321 320 321 321 321 320 320 320 320 320 320 320 319 319 318 317 315 313 315 316 317 317 317 318 318 317 315 314 313 313 313 313 313 314 314 314 315
321 321 321 321 321 321 321 321 319 319 319 319 320 319 318 318 318 318 317 315 313 312 311 312 313 313 314 314 315 316 315 315 313 313 312 313 314 314 315 316 315 315
319 319 319 320 320 320 321 319 318 318 318 318 318 319 318 317 316 316 315 313 312 312 312 312 312 312 312 312 313 313 313 313 313 312 313 314 314 315 316 316 316 316

ECMWFNIL_850_thetae_081.txt.gz
Theta_e
330 329 330 332 333 333 331 330 327 328 329 329 330 331 330 330 331 331 330 330 330 329 329 329 328 327 326 326 328 328 328 328 329 329 328 328 328 328 328 328 328 328
326 327 329 332 333 332 331 329 327 327 328 328 329 329 329 330 331 331 330 329 329 329 329 328 328 327 327 327 328 329 329 328 328 328 328 327 327 327 327 328 328 328
326 327 330 331 332 333 332 330 328 327 327 327 328 329 327 328 330 331 329 328 328 328 329 328 328 329 328 328 328 328 327 327 326 326 326 327 326 326 326 327 327 328
327 329 330 330 332 333 332 330 328 327 327 326 327 328 328 327 328 330 329 327 326 327 328 329 329 329 329 328 328 328 327 326 326 326 326 326 326 326 326 327 327 327
329 331 332 332 332 332 332 330 328 327 327 325 326 327 328 327 326 328 329 327 326 327 329 329 329 328 328 328 328 327 326 326 326 326 326 326 326 326 326 326 327 326
330 331 332 332 332 332 332 330 329 328 326 325 327 327 326 326 324 325 328 327 326 327 327 328 327 326 326 328 328 327 326 326 326 325 325 326 326 326 325 325 326 325
329 329 330 332 332 331 332 331 329 327 325 327 329 327 326 325 322 324 328 328 326 325 325 325 324 323 325 327 327 327 327 326 326 326 325 325 324 324 324 325 325 325
329 330 330 331 331 331 331 331 329 326 326 329 328 326 327 325 321 324 328 327 325 324 324 323 321 320 322 324 325 326 326 326 326 326 325 324 323 323 323 324 324 325
330 331 331 331 331 331 331 330 329 327 327 329 326 323 326 325 323 325 327 327 326 324 324 323 320 319 320 322 323 324 324 325 325 325 324 324 323 323 323 323 324 324
330 330 331 331 330 331 330 330 329 327 327 328 324 323 325 324 324 326 327 327 327 325 324 322 320 320 320 320 322 321 321 322 323 322 323 324 324 324 323 323 323 324
331 331 330 330 330 330 330 329 328 328 328 326 323 324 324 322 324 327 327 327 326 325 323 322 321 321 320 320 320 320 319 320 320 320 321 323 324 324 324 324 324 324
331 331 330 330 330 330 330 329 328 328 328 325 324 324 323 323 325 327 327 326 324 323 323 323 322 322 321 321 321 320 320 320 320 321 322 323 325 326 325 324 324 324
330 330 329 329 329 330 330 329 329 328 325 324 325 324 323 324 326 326 325 323 323 324 324 324 323 323 322 322 322 321 321 320 321 322 323 324 326 326 326 325 324 325
329 330 329 329 329 330 330 329 329 327 324 324 325 324 324 326 325 323 322 323 325 325 325 324 324 323 323 323 322 322 322 321 320 321 324 325 326 326 326 325 325 325
328 329 329 329 329 329 329 328 328 327 325 325 324 324 325 326 323 321 322 324 325 324 324 324 323 323 323 322 322 322 322 321 321 322 324 326 326 326 326 325 324 324
327 329 329 329 329 329 328 327 326 326 326 325 324 324 324 325 323 322 323 324 324 323 323 323 323 322 322 321 321 322 322 323 324 325 326 326 326 326 325 323 323 322
327 328 328 329 329 328 328 327 325 326 326 324 324 324 324 324 324 322 322 324 323 323 323 322 322 322 321 321 321 322 322 323 325 326 327 326 326 325 323 322 322 322
326 326 326 328 329 327 327 327 325 325 324 322 322 323 323 324 324 322 321 323 323 322 322 321 321 321 321 321 321 321 322 323 324 325 326 326 326 325 323 322 323 322
325 326 326 327 328 327 327 326 325 324 324 322 322 322 322 324 324 321 321 323 323 322 321 321 320 320 320 321 321 321 321 322 323 323 324 324 325 325 324 323 323 323
325 325 326 327 328 327 326 326 325 324 323 323 323 322 322 324 323 321 320 322 322 322 321 320 320 319 320 321 321 321 321 321 323 323 323 323 323 323 324 323 322 322
324 325 325 326 326 326 325 325 324 323 323 323 323 323 323 324 322 320 320 321 321 321 320 320 320 320 320 320 320 321 321 321 322 322 323 323 323 323 323 322 320 320
323 323 323 324 325 326 325 324 323 322 322 323 323 323 323 323 321 319 319 320 320 320 320 320 320 320 320 319 320 321 321 321 321 321 321 322 323 323 322 320 320 319
322 322 321 321 322 322 322 322 322 322 322 322 322 322 321 321 319 319 319 319 319 320 320 320 320 320 320 320 320 320 320 320 320 320 320 321 322 321 320 320 319 319
322 321 320 320 321 320 320 321 320 320 321 321 319 319 319 319 319 319 319 319 319 319 320 320 320 320 320 319 320 320 320 319 320 320 319 319 319 318 318 318 317 317
321 322 320 320 321 320 320 319 318 319 320 320 318 319 319 319 319 319 319 320 319 319 319 319 320 319 319 318 317 317 316 317 317 317 317 316 315 314 315 315 315 316
319 320 320 321 321 320 320 319 319 319 319 318 317 318 319 319 319 319 319 319 318 318 318 318 319 319 318 317 316 315 314 314 314 314 314 314 313 313 313 314 315 315

ECMWFNIL_850_thetae_084.txt.gz
Theta_e
328 328 328 326 325 325 327 329 331 332 332 331 331 330 330 329 330 329 328 329 330 330 329 329 329 330 330 329 329 329 329 329 329 328 328 328 328 329 329 329 329 328
329 329 328 326 325 325 326 328 331 332 332 331 330 330 329 329 330 329 328 329 330 329 330 330 330 329 329 329 328 328 328 328 328 328 328 328 328 328 328 329 328 328
329 328 326 325 324 324 325 327 330 332 332 331 330 330 329 330 330 329 328 328 329 328 328 330 330 329 329 329 328 328 328 328 328 328 328 329 329 328 328 328 328 328
327 326 325 324 324 325 326 329 331 332 332 331 329 329 329 330 330 328 327 328 329 327 326 329 330 329 329 329 328 329 328 328 328 329 329 329 328 328 328 327 327 327
326 325 326 326 325 325 327 330 331 332 332 331 329 328 329 329 328 328 328 328 328 327 325 327 329 330 329 328 328 329 329 329 329 329 329 328 328 327 327 327 327 327
327 326 327 328 328 327 328 329 330 330 331 330 328 328 329 329 328 328 329 328 327 326 324 326 329 329 329 329 329 329 329 329 328 328 327 327 327 327 326 326 326 326
328 327 328 330 330 329 330 330 329 330 330 329 328 327 328 328 328 329 329 327 325 324 324 327 329 329 330 330 329 329 328 328 327 326 326 326 326 326 326 326 326 326
329 328 328 328 329 329 330 330 330 330 330 328 327 326 326 327 329 330 329 326 324 323 323 327 329 329 329 329 329 329 328 328 327 326 326 326 326 326 326 325 325 326
329 328 326 327 328 329 330 330 330 330 329 329 327 326 326 328 329 329 328 326 324 323 323 325 328 329 328 327 328 329 328 327 326 326 326 326 325 325 324 324 324 325
329 329 328 328 329 330 330 330 330 330 329 328 326 326 328 329 329 327 326 326 325 324 323 323 326 327 326 326 327 328 328 327 326 326 326 326 325 324 323 324 324 324
329 329 330 330 329 330 330 330 330 330 329 327 325 326 329 329 328 325 325 326 325 323 323 323 325 325 323 324 325 327 327 326 326 326 325 325 325 324 324 324 324 324
328 329 329 330 329 329 329 329 330 330 329 326 325 328 328 327 325 325 326 326 326 325 324 324 325 324 322 321 323 325 325 324 324 325 324 324 325 325 324 324 324 324
326 327 328 328 329 329 328 329 329 329 329 327 327 329 328 324 323 325 326 327 327 326 324 324 325 323 322 322 323 323 322 321 321 323 323 324 325 325 324 324 324 324
325 326 327 328 328 328 328 329 330 330 329 328 328 329 327 325 324 326 327 327 327 325 323 323 324 323 322 322 323 322 320 320 321 323 324 324 325 325 325 325 324 324
325 325 326 327 327 328 328 329 330 330 328 328 328 327 326 326 325 326 327 327 326 324 321 322 323 323 323 322 322 321 321 321 322 323 324 325 325 326 326 325 325 324
324 325 326 327 327 327 328 329 330 330 328 328 328 326 325 326 326 326 326 326 325 322 320 322 323 323 323 322 322 322 321 322 322 322 324 325 326 326 326 325 324 324
323 324 325 326 327 327 327 328 329 329 329 328 327 325 325 325 326 326 324 321 320 320 321 323 324 323 323 322 322 322 321 322 322 321 323 325 326 326 325 324 323 323
322 323 323 325 326 326 328 328 329 329 328 326 324 324 325 325 325 324 320 315 317 320 323 324 324 323 322 322 321 321 321 323 323 323 324 326 326 326 325 323 322 322
322 323 323 323 325 326 327 328 328 329 327 324 323 324 325 325 324 323 318 316 319 323 324 324 323 322 322 321 321 321 322 323 325 325 326 326 325 324 323 322 321 322
321 322 323 323 324 325 326 326 327 328 327 324 324 325 325 325 324 322 320 320 322 324 323 323 322 322 321 321 321 322 322 323 325 326 326 326 325 323 322 322 322 322
321 322 323 323 324 325 325 326 326 327 327 326 325 324 324 325 324 322 321 323 324 323 322 322 321 321 320 321 321 321 322 322 323 325 326 326 324 323 322 322 322 322
321 322 322 322 323 323 324 325 326 325 326 326 324 324 324 324 324 323 322 323 323 322 322 322 321 320 320 321 321 321 321 322 323 323 324 324 325 324 323 322 322 321
321 321 321 321 321 321 322 323 325 325 326 325 324 324 324 323 323 323 322 322 323 322 321 321 320 319 320 320 320 321 321 321 322 323 323 323 324 323 322 322 321 320
320 320 320 320 319 320 320 321 322 324 325 324 324 324 323 321 321 322 321 321 322 322 321 320 320 320 320 319 320 321 321 321 322 322 322 323 323 320 318 318 319 318
318 319 320 319 319 319 319 319 320 322 323 323 322 322 321 319 319 320 321 321 321 320 320 320 320 320 319 319 320 320 320 320 320 320 321 323 322 318 316 317 319 319
316 317 318 319 319 318 318 317 317 319 320 320 319 319 319 318 318 320 320 320 319 319 320 320 320 320 320 320 320 320 320 320 320 320 320 320 318 317 317 317 318 318

ECMWFNIL_850_thetae_087.txt.gz
Theta_e
329 329 328 327 327 328 328 329 329 328 329 330 331 331 332 331 331 330 330 331 331 330 329 328 329 329 329 328 328 329 329 329 329 330 330 329 329 329 329 329 329 329
328 328 328 328 328 329 329 328 328 328 328 330 331 332 332 331 331 331 330 330 331 330 329 329 328 329 329 328 328 329 329 329 329 330 330 329 329 329 329 329 329 329
328 328 329 329 329 329 328 327 327 327 327 328 330 331 332 331 330 330 330 329 330 330 329 329 328 328 328 327 328 329 329 330 330 330 330 330 329 329 329 329 329 328
328 329 329 329 328 328 327 325 325 325 326 328 331 331 332 331 329 329 330 330 330 330 330 329 328 327 327 327 326 326 329 330 330 330 329 329 329 329 329 328 328 328
327 328 329 328 327 326 326 325 325 325 326 328 331 332 332 331 329 328 329 330 331 330 330 330 328 326 326 327 325 325 327 329 329 329 329 329 329 329 329 328 327 328
327 327 327 327 326 325 326 327 327 326 326 327 330 331 332 331 329 328 329 329 330 330 330 330 329 327 326 327 326 324 325 327 329 329 329 329 329 328 328 328 327 327
327 326 326 326 325 325 326 328 328 329 328 329 330 331 332 331 328 328 329 328 328 329 330 329 329 327 326 326 326 325 325 327 328 328 328 329 328 327 328 327 327 327
327 327 327 326 324 324 326 326 327 329 329 330 331 331 331 330 328 328 328 328 329 329 329 329 328 328 326 325 325 325 326 327 328 328 328 329 328 327 327 327 327 326
326 327 328 327 323 322 323 324 325 326 327 328 329 330 331 329 328 328 328 328 329 329 328 328 328 327 326 326 327 327 326 326 327 328 328 328 327 327 327 326 326 326
324 326 328 328 325 322 321 322 324 325 327 328 328 329 330 328 328 328 328 328 328 328 327 327 327 328 327 328 328 328 327 326 327 327 327 327 327 326 326 326 326 325
323 325 327 328 328 326 323 323 324 326 326 327 328 329 330 328 327 328 328 328 328 327 326 326 327 329 329 328 328 328 328 327 327 327 327 327 326 326 325 325 325 325
323 324 325 327 328 328 327 326 327 327 326 326 327 329 329 328 327 328 329 329 329 326 325 326 328 329 329 329 328 327 328 328 328 327 327 327 327 325 324 324 324 325
323 323 325 326 327 328 328 329 329 329 328 328 328 329 329 327 326 327 328 329 328 327 326 327 327 327 327 326 325 325 327 328 327 327 328 327 326 325 324 324 324 324
321 322 323 325 325 326 327 328 329 329 329 329 329 329 329 327 326 327 327 327 328 328 327 326 326 326 325 323 322 322 324 326 326 326 327 326 325 325 325 324 324 324
320 320 322 323 324 325 326 327 328 328 328 328 329 330 328 326 327 328 326 326 327 327 326 326 326 326 325 323 320 320 323 325 324 324 326 325 324 325 325 324 323 324
320 320 321 322 324 324 325 326 327 327 328 327 328 330 328 326 327 328 326 326 327 327 326 326 327 326 324 322 321 321 322 323 322 323 325 324 324 325 324 323 323 324
321 322 322 322 323 324 325 325 326 326 326 326 327 328 328 328 328 327 325 326 327 326 326 327 325 324 323 322 322 322 322 322 323 324 325 324 324 325 324 323 324 324
321 322 322 322 323 323 324 325 325 325 325 325 326 327 328 329 328 327 326 326 327 327 326 325 323 323 323 323 323 323 323 323 324 324 324 324 325 325 324 324 323 324
321 321 321 321 322 323 324 324 325 325 325 325 326 326 327 328 328 327 326 326 326 326 325 323 323 322 323 323 323 323 323 323 323 323 323 324 326 326 325 324 324 323
320 319 318 319 319 321 322 324 324 324 325 325 325 326 327 328 328 327 326 326 325 325 324 323 323 323 323 323 322 322 322 323 323 323 322 324 325 326 325 324 323 323
319 319 318 318 318 318 320 322 323 324 324 324 325 325 326 327 326 326 326 325 323 323 324 324 323 322 322 322 321 321 322 323 324 323 323 324 325 325 323 322 322 322
319 319 319 318 318 318 318 319 321 323 323 323 324 324 325 325 326 325 324 323 323 323 324 324 322 322 322 321 321 321 322 323 324 324 325 325 325 323 322 322 321 321
317 319 319 318 318 318 317 318 319 321 322 322 322 323 324 324 324 324 322 322 323 324 323 323 322 322 321 320 320 321 322 322 324 325 325 325 323 322 322 322 321 320
316 317 319 319 318 317 317 317 318 319 320 320 320 323 324 323 323 323 322 322 323 323 322 322 321 321 321 321 321 321 321 321 323 324 324 324 323 322 320 320 320 320
315 316 317 318 317 316 316 317 316 317 317 317 318 321 323 322 321 322 322 322 322 322 322 322 321 320 321 321 320 321 321 321 322 323 324 324 322 320 318 318 319 320
314 314 315 316 316 316 316 315 315 315 315 316 317 320 321 320 320 320 320 321 322 321 321 320 320 320 320 320 320 320 320 320 321 322 322 322 320 318 317 318 318 318

ECMWFNIL_850_thetae_090.txt.gz
Theta_e
330 331 332 332 331 332 332 331 330 331 331 330 329 331 331 330 331 331 330 329 328 329 329 330 330 331 331 330 329 329 330 330 330 329 328 329 329 330 329 329 330 330
329 330 331 331 331 331 331 330 330 331 331 330 330 331 331 331 331 331 331 330 330 329 328 330 330 330 331 330 329 329 329 330 330 329 328 329 330 330 329 328 329 329
327 328 329 330 330 330 330 330 330 330 331 331 331 330 330 331 331 331 331 330 330 329 329 330 330 330 330 330 330 330 329 329 330 329 329 330 330 330 330 329 329 330
327 327 328 328 328 329 330 330 330 330 330 330 330 329 330 329 330 332 331 330 330 329 329 330 331 330 330 330 330 330 330 330 331 330 329 330 330 329 330 329 330 330
326 327 328 328 328 329 330 330 330 329 328 329 329 329 329 328 329 331 331 330 330 329 328 329 330 330 330 330 330 331 331 330 330 329 328 329 329 328 329 329 329 328
325 326 327 328 328 329 329 329 329 329 329 329 328 328 328 328 329 331 331 331 330 329 329 328 329 329 330 330 330 331 330 329 329 328 327 328 327 327 328 329 327 326
322 322 324 327 328 329 329 328 329 329 330 330 329 328 328 329 329 330 331 332 330 329 329 328 328 329 330 330 329 329 329 328 328 329 328 327 326 326 327 328 327 327
321 322 323 324 327 329 329 328 328 329 330 330 329 329 330 330 330 331 331 332 331 330 330 330 330 329 330 329 328 328 329 329 328 328 328 327 326 325 325 327 327 328
322 323 324 325 326 328 329 329 328 328 328 328 329 329 330 330 331 332 332 331 331 331 331 330 330 330 330 329 327 328 329 329 328 327 327 327 327 326 325 326 329 329
322 323 324 325 326 327 328 329 328 326 325 326 327 328 329 330 331 332 331 330 330 330 330 330 329 330 330 329 328 328 328 328 327 326 327 327 327 326 324 326 330 331
321 321 323 324 325 326 327 328 328 327 325 325 326 327 328 330 331 332 331 330 330 330 330 329 329 329 328 328 329 329 328 327 327 327 327 326 327 327 324 326 330 331
321 321 321 322 323 325 327 327 328 328 328 328 328 328 329 329 330 331 331 330 329 330 330 330 329 328 327 328 329 329 328 328 328 327 327 327 327 326 324 327 331 331
320 320 320 320 320 322 325 326 327 327 328 329 329 329 329 329 329 330 330 330 330 329 330 331 329 326 325 326 327 327 327 328 329 328 327 327 326 324 324 327 330 330
320 320 321 321 321 321 323 325 326 327 327 328 328 329 329 329 329 330 330 330 330 330 331 331 329 325 324 325 326 325 326 328 329 327 327 326 324 325 326 329 330 329
321 322 322 322 322 323 323 324 325 325 326 327 328 329 329 329 329 330 330 330 330 330 330 330 328 326 325 325 325 325 327 328 328 327 327 326 326 327 330 330 329 329
320 320 321 321 322 323 324 324 324 324 325 326 327 327 328 328 328 329 330 329 329 330 330 329 328 326 325 326 325 325 326 327 326 324 325 328 329 329 330 330 330 330
319 318 319 319 320 321 322 323 324 324 325 325 326 326 327 327 328 328 329 329 329 329 329 328 327 325 325 326 325 324 325 326 326 323 325 329 330 328 327 328 329 328
319 318 318 318 318 318 320 322 324 324 325 325 325 326 326 326 326 327 328 328 328 328 328 327 326 324 325 325 324 323 323 325 326 325 326 329 328 327 325 325 325 325
319 319 318 318 317 316 317 320 322 323 324 325 325 325 326 326 326 327 327 328 328 328 327 327 326 325 325 325 324 321 319 323 326 326 328 328 328 327 326 323 323 323
319 319 318 318 317 316 316 318 320 321 322 323 324 324 325 325 325 325 326 327 328 327 326 327 326 325 325 326 325 321 317 322 326 326 326 326 325 326 326 324 324 324
318 319 319 317 316 316 316 317 318 319 320 321 323 323 324 324 324 324 325 326 327 327 327 326 325 325 325 326 325 322 320 323 326 325 324 323 323 325 326 326 325 325
317 318 318 317 316 316 315 316 316 317 318 320 321 322 323 323 324 324 325 326 326 326 326 325 324 325 326 325 325 324 323 323 323 323 323 323 323 325 326 326 326 325
316 317 317 316 315 315 315 315 315 315 316 317 319 320 321 322 323 324 325 325 325 325 325 324 324 325 325 323 323 323 322 322 321 322 323 323 323 325 326 325 325 325
314 315 316 316 315 315 314 314 314 314 314 316 317 318 318 319 320 322 323 324 324 324 324 323 323 323 323 322 322 322 322 322 322 322 324 323 323 324 325 324 324 323
313 314 315 315 314 314 314 314 314 313 313 315 316 316 316 316 317 318 320 322 323 323 322 322 321 321 322 321 321 322 322 322 321 322 324 324 324 324 323 323 322 321
313 313 313 314 314 314 314 314 313 313 313 314 315 316 316 316 317 317 319 321 321 321 321 321 320 320 321 321 321 321 321 321 321 322 323 323 323 322 321 320 319 318

ECMWFNIL_850_thetae_093.txt.gz
Theta_e
331 332 333 333 334 334 334 334 333 333 333 333 333 335 336 334 332 332 331 332 333 333 331 330 331 331 330 330 330 330 330 330 330 329 329 330 330 329 330 329 328 327
330 331 331 332 332 332 332 332 332 332 332 332 331 332 334 332 331 333 334 333 334 333 332 331 331 331 330 330 331 330 330 330 330 329 329 330 329 329 329 329 328 327
329 330 330 330 331 331 331 331 331 331 331 331 331 330 330 328 329 332 333 333 334 333 332 331 331 330 330 331 331 330 330 330 329 328 329 329 329 329 329 328 328 327
328 328 328 330 330 330 330 330 331 332 331 330 330 330 329 329 329 330 331 332 334 333 333 332 331 331 330 330 331 330 329 328 327 327 327 328 329 329 329 328 328 328
325 326 327 328 329 329 330 330 331 331 331 331 331 330 329 329 329 329 330 332 334 333 333 333 332 331 330 330 331 331 329 329 327 326 326 327 327 327 328 329 328 328
324 324 326 327 328 328 330 331 331 331 331 331 331 330 329 328 329 329 329 330 333 333 332 333 332 331 331 331 331 330 329 328 327 327 326 325 326 327 327 328 328 327
324 324 325 327 327 327 328 329 331 331 330 330 330 329 328 328 327 327 328 330 332 333 333 333 332 331 331 331 330 330 329 327 327 327 325 324 327 328 327 328 328 326
324 325 325 326 327 327 327 327 329 330 330 330 330 328 328 327 326 326 327 329 331 333 333 333 333 331 331 331 330 330 329 328 328 327 326 327 329 329 328 328 327 325
323 324 324 324 324 325 326 327 328 330 330 330 330 329 328 327 327 327 327 328 330 332 333 334 333 331 331 330 330 330 330 329 329 328 327 329 330 329 329 329 327 327
321 321 322 322 322 322 323 325 327 328 329 330 330 330 328 327 326 327 327 327 328 330 331 332 332 331 330 330 330 330 330 330 329 328 328 329 329 329 329 329 329 328
320 320 321 321 321 322 322 322 324 326 327 328 329 330 329 327 325 326 327 326 327 329 330 329 331 331 330 331 330 330 331 330 329 328 329 329 329 329 329 329 329 327
320 320 321 321 321 322 322 323 324 325 326 327 328 329 329 328 326 325 325 326 327 329 329 328 329 330 330 330 330 330 331 331 329 329 329 329 328 328 328 329 328 326
320 320 321 322 322 321 322 323 325 325 325 326 326 327 328 329 329 327 325 326 327 329 328 328 329 329 329 329 329 330 331 330 328 327 327 328 327 328 329 329 328 326
319 319 320 321 321 321 320 321 323 325 325 326 326 326 326 328 329 328 328 328 329 329 328 328 328 328 328 328 328 329 330 329 327 324 324 325 326 327 329 330 329 327
318 318 319 320 321 321 319 317 319 321 324 325 326 325 325 326 328 328 329 329 330 330 328 327 328 328 328 328 327 328 328 328 326 323 323 324 324 326 329 330 328 326
318 318 318 319 320 319 317 316 317 318 320 323 325 326 325 326 326 328 329 329 329 330 329 328 327 326 326 328 328 327 327 327 325 323 322 323 322 324 327 328 326 325
319 318 318 318 319 317 316 316 317 318 319 322 324 325 325 326 326 327 328 328 328 330 329 328 326 324 325 327 327 327 327 325 323 323 323 323 323 324 326 326 326 326
319 318 317 317 317 316 316 316 317 319 320 322 324 324 325 326 326 327 328 328 328 329 329 328 327 326 326 327 327 327 326 325 324 324 324 322 323 326 327 327 327 327
317 317 316 316 316 315 315 316 317 318 319 322 324 324 325 325 326 327 327 327 327 328 329 328 327 328 327 327 327 326 325 325 325 325 323 321 322 326 327 328 328 326
315 315 315 315 315 315 314 315 317 317 318 321 322 323 324 324 324 325 325 326 326 328 329 328 328 328 328 327 327 326 325 324 324 325 325 324 323 323 324 327 328 326
314 315 314 314 314 314 314 315 316 317 317 319 320 321 321 322 322 323 324 324 325 326 327 327 328 328 327 327 326 325 324 323 322 323 325 325 324 324 324 327 328 326
314 314 314 314 314 314 314 314 315 316 316 317 317 317 318 319 320 321 322 323 324 324 325 325 327 327 327 327 325 324 324 323 322 322 324 325 326 326 326 327 327 326
312 313 313 313 313 314 314 314 314 314 315 315 315 316 316 316 318 318 319 321 322 323 323 324 326 327 327 326 325 324 323 322 322 323 326 326 326 325 325 325 326 326
311 312 312 313 313 314 314 314 314 314 314 315 315 315 315 316 316 316 317 318 320 321 323 325 326 327 326 325 324 324 324 323 323 324 325 325 324 323 323 324 325 325
312 312 312 312 312 313 315 315 315 314 314 315 315 315 315 315 315 315 315 316 317 318 321 324 326 326 326 325 324 324 324 323 323 323 323 323 322 322 322 324 324 325
312 312 312 311 311 313 314 315 314 314 314 315 315 315 315 316 316 315 315 316 317 317 319 322 324 324 323 323 323 322 323 323 322 323 323 323 323 323 323 324 324 324

ECMWFNIL_850_thetae_096.txt.gz
Theta_e
330 330 330 330 331 333 333 334 334 334 334 333 333 333 333 332 332 332 331 331 332 331 330 330 332 333 333 332 332 332 331 331 331 331 330 329 328 328 329 329 327 326
328 328 328 328 329 330 331 331 331 331 332 332 332 332 332 332 332 331 331 332 333 332 332 332 332 332 332 332 332 331 332 331 331 331 330 330 329 329 329 328 327 326
327 327 326 327 327 328 329 329 329 330 330 331 332 332 332 331 332 331 331 332 332 332 332 332 332 332 332 332 332 331 332 332 331 331 330 330 330 329 329 328 326 326
325 324 324 325 326 327 327 327 328 330 331 331 332 332 332 331 331 331 331 331 330 330 331 331 331 331 331 332 332 331 331 332 331 331 330 330 329 329 329 328 326 327
322 323 324 324 325 326 326 327 327 328 330 332 332 332 332 331 331 330 330 330 330 330 330 330 330 330 331 331 331 331 331 332 332 332 332 331 330 330 330 329 329 329
322 323 324 324 324 324 325 326 327 328 328 330 331 331 331 331 331 330 329 329 329 329 329 329 329 329 330 331 331 331 332 332 331 332 332 331 331 331 331 330 330 329
322 322 323 323 322 322 322 324 326 327 328 328 329 330 331 331 331 331 330 328 327 327 327 327 327 327 327 328 329 330 331 332 331 331 331 331 331 330 330 330 329 329
322 321 321 322 322 322 322 322 323 324 325 327 329 330 330 331 330 330 330 328 327 327 326 326 327 327 325 325 326 329 330 331 331 330 331 330 330 329 329 329 328 328
321 321 321 321 321 322 321 321 322 322 323 324 326 328 329 330 330 330 330 329 327 327 326 326 326 327 326 324 323 327 330 330 330 331 330 330 330 329 329 328 328 327
320 320 320 320 320 321 321 321 320 322 324 324 325 326 326 327 328 329 330 330 328 327 326 326 326 326 326 325 325 327 329 329 330 330 330 329 330 329 328 328 327 327
319 319 319 320 320 321 322 322 320 319 321 324 325 326 326 325 326 327 329 330 329 327 326 326 326 326 327 327 326 327 329 329 329 330 330 330 329 329 329 329 328 328
319 319 318 320 321 321 322 322 319 317 317 320 322 325 326 326 326 326 327 328 329 328 327 326 326 327 328 327 326 327 328 329 329 330 330 329 329 329 329 329 329 328
318 318 318 320 320 321 321 319 317 316 317 318 319 321 324 326 327 327 327 327 328 328 328 327 327 328 328 327 327 328 328 327 327 328 329 329 328 329 329 329 328 327
317 317 318 319 319 320 319 317 315 316 317 318 318 319 321 324 326 327 327 327 327 328 328 328 328 329 328 327 327 328 328 327 326 327 328 328 327 328 328 328 327 327
317 317 318 318 319 318 317 315 315 316 317 319 320 319 320 323 325 326 327 327 327 327 328 328 328 329 329 327 327 327 328 327 326 326 327 327 327 328 328 328 326 326
316 317 317 317 317 317 316 315 315 317 318 319 319 319 321 322 323 324 326 326 327 327 327 328 328 329 328 328 328 327 327 327 326 326 326 326 326 327 328 327 327 327
315 315 316 316 317 316 315 315 316 318 318 318 319 319 321 322 323 324 325 326 327 327 327 328 328 328 328 328 328 327 327 327 327 327 327 326 325 327 328 327 326 328
314 314 315 315 315 315 314 315 316 317 317 318 318 319 321 323 324 325 325 325 326 327 327 328 328 328 328 328 327 327 327 327 326 327 327 326 325 326 327 326 324 326
314 313 314 314 314 314 314 315 315 316 316 317 317 318 319 321 322 324 324 325 325 326 327 327 327 328 328 328 327 327 328 327 326 326 325 325 326 328 327 326 325 326
313 313 313 313 313 314 314 315 315 316 316 316 317 317 318 318 320 321 322 323 324 325 325 325 325 326 327 327 328 328 328 327 326 326 326 326 328 328 327 327 327 327
312 312 312 313 313 314 314 314 315 316 315 315 316 317 317 317 318 318 319 321 322 323 324 324 324 324 325 326 327 328 328 328 326 326 326 327 328 327 326 326 327 327
312 312 312 312 313 314 313 313 314 314 314 314 315 315 315 316 316 317 317 318 319 320 322 323 323 323 324 325 326 328 328 327 327 326 326 326 326 326 326 325 325 326
312 311 311 312 312 313 312 312 313 313 314 314 314 314 314 315 315 316 316 316 317 318 318 320 321 322 323 324 326 327 327 327 326 326 324 324 325 325 325 325 325 326
312 311 311 311 312 312 312 311 311 312 313 313 314 314 314 314 315 315 316 316 316 316 316 317 318 320 322 323 325 327 327 326 325 324 324 324 325 325 325 325 325 325
312 311 311 311 310 310 310 309 309 311 311 312 313 313 313 314 314 315 315 316 316 316 316 317 318 319 321 322 324 325 325 324 324 324 324 324 324 324 325 324 324 324
312 311 311 311 310 309 307 307 307 309 310 311 311 312 312 313 313 313 314 316 316 316 317 317 318 319 319 321 322 322 322 322 321 321 322 323 323 323 323 324 324 324

ECMWFNIL_850_thetae_099.txt.gz
Theta_e
327 327 328 328 328 328 329 330 331 332 331 331 331 331 331 331 331 332 331 331 331 331 331 331 332 332 332 331 331 331 331 331 331 331 331 331 331 332 331 331 330 330
326 326 326 326 326 326 326 327 327 327 328 329 330 330 331 331 331 331 331 331 331 330 330 330 331 331 331 331 331 331 331 331 331 330 331 331 331 331 331 331 330 331
325 324 324 324 324 324 323 324 324 325 326 327 329 330 331 331 331 331 331 331 330 330 329 329 329 330 330 330 330 330 329 330 330 329 329 330 331 330 330 331 330 330
323 322 322 322 323 322 322 323 324 325 325 326 327 328 329 330 330 331 331 331 330 330 329 329 329 329 329 329 329 329 328 329 329 330 330 329 330 330 329 330 330 329
321 321 321 322 321 321 321 321 322 323 324 325 326 326 328 328 329 330 330 331 331 330 330 329 328 328 328 328 328 328 329 328 327 329 330 329 329 329 329 329 329 330
321 321 320 321 320 320 320 320 320 321 322 323 324 325 326 327 328 329 330 330 330 330 330 329 327 327 327 327 327 327 327 327 326 328 329 329 329 329 329 329 329 329
319 319 319 319 320 320 321 321 320 319 320 320 321 322 324 325 326 327 328 329 329 330 330 329 327 327 326 327 327 327 326 325 326 328 329 329 329 329 329 330 330 329
318 319 319 320 320 320 321 321 320 319 318 318 319 320 321 323 324 325 326 327 328 328 329 329 328 326 326 327 327 327 327 325 325 327 329 329 329 330 330 330 331 330
317 318 319 320 320 320 320 320 320 319 317 317 317 317 318 321 324 325 326 326 327 326 328 329 329 327 326 326 326 327 327 326 325 326 328 329 329 329 330 330 330 330
317 318 318 319 319 319 319 320 319 318 316 316 317 317 317 319 322 325 326 326 327 326 327 328 329 328 326 326 326 327 327 327 327 326 327 328 329 329 329 329 330 329
317 318 318 319 318 318 318 318 317 316 316 316 316 318 318 318 320 323 325 326 326 326 327 327 328 328 328 327 326 327 327 327 328 327 327 327 328 328 327 328 329 328
317 318 318 318 317 317 317 316 316 315 316 317 317 319 320 319 319 321 324 324 325 326 327 327 328 328 328 328 327 327 328 328 328 328 328 328 329 329 328 328 328 327
317 317 317 316 316 316 315 315 315 315 316 318 319 320 320 320 320 320 321 322 324 325 326 327 327 327 328 328 328 328 328 329 329 329 329 329 329 329 329 329 328 328
316 317 316 316 315 315 315 315 315 316 317 318 319 319 319 320 320 319 320 321 323 324 326 327 327 327 327 328 328 329 329 329 329 329 329 329 329 328 328 329 329 329
315 316 315 315 315 314 315 315 316 317 318 318 318 319 319 319 320 320 321 322 323 324 325 325 326 326 327 327 328 328 329 329 328 328 328 328 328 328 328 328 329 329
314 314 314 314 314 315 315 315 316 317 318 318 318 318 319 319 320 321 321 322 323 324 324 325 325 326 327 327 328 328 329 329 328 327 328 328 328 328 328 328 328 328
312 312 313 314 314 315 315 316 316 317 317 317 317 317 318 319 319 320 321 321 322 323 323 325 325 326 326 326 327 328 328 328 328 327 328 329 328 328 328 328 327 327
311 311 313 313 314 314 315 315 315 315 315 316 316 316 317 317 317 318 319 319 321 322 322 324 325 325 325 325 326 327 327 328 327 327 328 328 326 325 327 327 327 327
311 311 312 312 313 313 313 313 313 313 314 314 314 314 315 315 316 316 317 318 319 320 321 322 323 324 324 324 325 326 327 327 327 327 327 327 327 326 326 326 326 327
312 311 311 312 312 312 312 312 312 312 312 312 313 313 313 314 315 315 316 317 318 318 319 320 321 323 323 324 324 325 326 327 327 327 327 327 326 326 326 326 325 326
311 311 310 311 311 312 312 312 312 312 311 311 311 311 312 312 313 314 315 316 317 318 318 319 320 321 322 323 324 325 326 327 327 327 326 326 325 325 326 326 326 327
311 311 310 310 310 310 310 310 310 311 311 311 310 310 311 311 312 313 315 316 317 318 318 319 320 321 322 323 324 324 325 326 327 327 326 326 326 326 326 325 325 326
311 311 310 310 309 309 308 308 309 310 310 310 310 309 310 311 312 313 315 316 317 318 318 319 320 321 322 323 324 324 325 326 327 326 325 325 324 325 326 326 326 326
310 310 309 309 309 308 307 307 308 308 309 310 310 309 310 311 312 314 315 316 317 317 318 318 319 320 321 322 323 323 324 325 325 325 324 324 323 324 325 325 325 325
308 308 308 307 307 307 307 306 306 307 308 309 309 310 310 311 312 313 314 315 316 316 316 317 317 318 319 320 321 321 321 322 322 321 321 323 323 324 324 323 323 323
306 306 306 305 305 305 306 306 305 306 307 308 308 309 310 310 311 312 312 313 314 315 315 315 316 317 318 319 319 319 319 319 318 318 319 321 323 322 321 321 322 323

ECMWFNIL_850_thetae_102.txt.gz
Theta_e
327 327 327 328 328 328 328 328 327 326 327 328 329 329 329 329 329 329 329 330 331 331 331 331 331 331 330 330 330 329 330 330 330 330 330 331 331 331 331 331 331 331
324 324 325 325 325 325 325 325 325 325 326 326 327 327 327 328 328 328 329 329 330 331 330 330 330 330 330 330 329 328 328 329 329 329 329 330 330 330 330 331 331 331
323 322 322 322 322 323 323 323 323 323 323 323 323 323 324 326 327 327 327 328 329 330 330 330 330 330 330 330 329 328 327 327 328 329 329 329 330 330 330 330 330 330
320 320 321 321 321 321 321 321 321 322 322 322 322 322 323 324 325 326 327 327 328 329 329 330 330 330 330 329 328 327 326 326 327 328 328 329 329 330 330 330 330 330
319 319 320 320 320 320 320 320 320 320 320 321 321 321 322 323 323 324 325 326 327 328 329 329 330 330 329 329 328 326 326 326 326 327 328 328 328 329 330 330 330 330
319 319 320 320 320 320 320 320 319 319 319 319 318 319 319 319 320 322 323 323 324 326 328 328 328 329 329 329 327 326 326 326 326 327 327 327 327 327 328 329 330 330
319 320 320 320 320 320 320 319 319 319 318 317 317 317 317 318 318 319 321 322 323 325 326 326 327 328 329 329 327 326 326 326 326 327 327 327 326 325 327 329 330 330
319 320 320 319 319 319 319 318 318 318 317 317 317 317 317 317 317 318 319 321 323 324 326 326 326 327 328 329 328 327 326 326 326 326 327 326 326 325 326 328 330 330
318 319 319 319 319 318 318 317 317 317 316 316 316 317 317 317 318 318 318 319 322 323 324 324 325 326 327 328 328 328 327 326 326 326 327 327 326 326 326 328 329 330
317 318 318 318 318 317 316 316 316 316 316 316 316 317 318 318 318 319 318 318 320 322 322 322 324 325 327 327 328 328 328 327 326 326 327 327 327 327 327 328 329 329
317 317 317 316 316 316 315 316 315 316 316 316 317 317 318 318 319 319 319 319 320 321 321 321 322 324 326 327 327 327 327 327 327 326 326 327 327 327 328 328 327 328
317 317 316 315 315 315 315 315 315 316 316 317 317 318 318 319 319 319 319 319 319 319 319 320 322 324 326 326 327 327 327 327 327 326 327 327 327 327 328 328 326 326
317 316 315 314 314 314 314 315 316 316 317 317 317 318 318 319 319 320 320 319 319 319 319 321 322 324 325 325 326 326 327 327 326 326 327 327 328 328 328 327 328 328
316 315 314 314 314 314 314 316 316 316 317 317 317 317 318 318 319 319 320 320 320 320 320 321 322 323 323 324 324 325 326 326 326 327 327 328 328 327 327 327 328 328
315 314 313 313 313 314 315 316 316 316 316 316 317 317 317 317 317 317 318 319 319 320 320 321 321 322 322 323 323 324 325 326 326 326 327 328 327 327 327 327 327 327
314 313 313 313 313 313 314 315 315 315 315 315 315 316 316 316 316 316 317 318 318 319 319 320 321 321 322 323 323 324 324 325 325 326 326 327 327 327 327 327 326 327
313 312 312 312 312 312 313 313 313 314 314 314 314 315 315 315 316 316 317 318 318 318 318 319 320 321 321 322 323 324 324 324 325 325 325 326 327 327 327 326 326 327
312 312 312 312 311 312 312 312 312 312 313 313 313 314 314 315 315 317 318 318 318 319 319 319 320 320 321 322 322 323 323 324 324 325 326 326 326 326 326 326 326 327
311 311 311 311 311 311 311 311 311 312 312 313 312 313 313 314 315 317 318 318 319 319 320 320 321 321 321 322 322 322 323 324 324 325 326 326 326 326 326 326 326 327
311 311 311 311 310 310 310 310 310 311 312 312 311 311 312 313 314 317 318 318 318 319 320 321 321 322 322 323 323 323 323 324 325 326 326 326 326 326 325 325 326 326
310 310 310 310 310 310 309 309 309 310 311 311 311 311 311 312 314 316 317 317 318 318 319 320 321 321 322 323 323 323 323 324 325 326 326 326 326 326 326 326 326 325
309 309 308 308 308 308 308 308 309 310 311 311 310 311 312 313 314 314 316 316 317 317 318 319 320 320 321 322 322 322 323 324 325 326 326 326 326 325 325 326 326 325
307 307 306 306 306 307 307 307 308 309 310 310 311 311 313 314 314 314 315 316 316 317 317 318 318 318 319 320 320 321 322 323 324 325 325 325 324 324 325 325 325 325
305 305 304 304 304 305 306 307 307 308 309 310 310 311 312 313 314 314 314 315 315 316 317 317 317 317 318 319 318 318 319 319 321 322 323 323 321 321 321 321 322 323
303 302 302 302 303 304 305 306 306 307 307 308 309 310 311 312 313 314 314 314 315 315 315 316 316 316 317 318 318 318 317 317 319 320 321 322 320 317 318 320 321 320
302 301 301 302 303 304 305 305 305 306 306 307 307 308 309 310 311 312 313 313 313 314 314 315 315 315 316 316 316 317 317 317 318 319 320 321 320 318 319 320 318 316

ECMWFNIL_850_thetae_105.txt.gz
Theta_e
328 328 328 328 327 327 326 326 326 326 326 326 325 324 324 324 325 324 324 324 324 324 324 325 326 328 329 329 330 330 330 330 329 329 328 327 328 328 329 329 329 329
326 325 325 325 325 325 325 325 325 325 325 324 322 322 322 322 322 322 321 321 321 322 322 323 325 327 329 329 329 329 330 330 330 329 328 326 326 327 328 328 328 329
323 322 322 322 322 323 323 323 322 322 321 321 320 320 320 320 320 320 320 320 320 320 321 322 324 326 328 328 328 329 330 330 330 329 328 326 325 326 327 328 328 329
320 320 320 321 321 321 321 320 320 320 320 320 320 320 319 319 319 319 319 319 319 320 320 321 323 324 326 327 328 329 329 329 329 328 327 325 325 325 326 327 327 328
319 319 320 320 320 320 320 320 319 319 319 319 319 319 319 318 318 318 318 318 318 318 319 320 322 323 324 326 327 328 329 329 328 328 326 325 325 326 326 327 326 326
318 319 319 319 319 319 319 319 319 319 318 318 318 318 318 318 318 317 317 317 317 317 318 319 320 322 323 324 326 327 328 328 328 328 327 325 325 325 326 326 326 326
318 319 319 319 319 319 319 318 318 318 318 318 318 318 317 317 316 316 316 316 317 317 317 318 319 320 322 324 325 325 326 327 328 328 327 326 325 325 325 326 326 326
318 319 319 319 319 319 318 318 318 317 317 317 317 317 316 316 316 316 317 317 317 317 317 318 319 319 321 322 323 324 325 326 327 327 327 327 326 325 325 325 326 326
317 318 318 318 318 317 317 317 316 316 316 316 316 316 316 316 316 317 317 317 317 318 318 318 319 319 319 319 320 323 325 326 326 326 326 327 326 326 325 325 326 327
317 317 317 317 316 316 316 315 315 315 315 315 315 315 316 316 316 317 317 318 318 318 318 318 319 319 318 318 319 322 324 325 325 325 325 326 326 326 326 325 326 326
317 317 316 315 315 315 315 315 315 315 315 315 316 316 316 316 317 317 318 318 318 319 319 319 319 318 318 318 319 322 323 324 324 325 326 326 326 326 326 326 326 326
316 316 315 314 314 314 314 314 315 315 316 316 316 316 316 316 317 317 317 317 318 318 319 319 319 319 319 319 320 321 322 323 323 324 325 326 326 326 326 326 327 327
315 314 314 313 313 314 314 315 315 316 316 316 316 316 316 316 316 316 316 317 317 317 318 318 318 319 320 320 320 320 321 321 322 323 324 326 326 326 326 327 327 327
313 313 313 313 313 313 314 315 315 315 315 315 315 315 315 315 316 316 316 317 317 317 317 318 318 318 319 320 320 321 321 321 322 323 324 325 325 326 326 327 327 327
312 312 312 312 312 312 313 313 313 313 313 314 314 314 314 315 315 316 317 317 318 318 318 319 319 319 319 319 320 320 321 321 322 323 323 324 324 325 325 326 326 327
312 312 312 312 312 312 312 312 312 312 313 313 313 314 314 315 316 317 317 318 318 319 319 320 320 321 321 321 321 320 321 321 322 323 323 324 324 325 325 325 326 326
311 311 312 311 312 311 311 312 312 312 312 313 313 313 314 315 316 317 317 318 318 319 319 320 321 321 321 321 322 322 321 322 322 322 323 324 324 325 325 325 325 325
311 311 311 311 311 311 310 310 311 312 312 313 312 313 314 315 316 317 317 317 318 318 319 319 320 320 320 321 322 322 322 322 322 323 323 324 324 324 325 325 325 325
310 310 310 310 309 309 309 310 311 312 312 312 312 312 313 314 315 316 316 316 317 318 318 318 319 320 320 320 321 322 322 323 322 323 323 323 323 324 324 325 326 325
309 308 308 308 308 308 309 310 310 311 312 311 311 312 313 313 314 315 315 316 316 317 317 317 318 318 318 319 319 321 322 323 322 322 322 323 324 324 325 325 325 325
307 307 307 306 307 308 308 309 310 311 311 311 311 312 312 313 314 314 315 315 315 316 316 316 317 317 317 317 318 319 321 322 322 322 323 324 324 324 324 324 324 324
305 306 306 305 306 307 308 308 309 310 311 312 312 312 312 313 314 314 314 314 314 315 315 315 315 316 316 317 317 318 319 320 321 322 323 322 321 320 321 322 321 321
304 304 304 305 305 306 307 307 308 308 309 311 312 312 313 313 313 313 313 313 313 314 314 314 314 314 315 316 316 317 317 319 320 321 321 320 318 319 320 320 319 318
303 303 303 304 305 306 306 306 307 307 308 309 310 311 312 312 312 312 312 312 312 312 312 312 312 313 314 314 314 314 315 316 317 318 319 319 319 319 319 318 317 317
302 302 302 303 304 305 305 306 306 306 306 307 308 309 310 310 310 310 310 309 309 309 310 310 311 311 312 313 313 313 312 313 313 313 315 316 317 317 316 316 316 316
300 300 301 301 303 304 304 305 305 305 306 306 307 307 308 308 307 307 308 308 307 308 308 308 308 309 309 310 311 311 311 312 312 312 312 313 313 313 314 315 315 314

ECMWFNIL_850_thetae_108.txt.gz
Theta_e
327 327 327 327 326 326 326 325 324 323 323 322 322 321 320 319 318 318 318 318 319 319 319 320 321 322 322 322 322 324 326 328 328 328 327 327 328 329 329 329 328 326
328 328 326 325 324 324 323 322 322 321 321 320 320 319 319 318 319 318 318 318 318 319 319 319 319 319 320 320 321 322 323 324 326 326 326 327 328 329 329 329 327 325
325 325 323 322 321 321 321 320 320 319 319 319 319 319 319 319 318 318 318 318 318 318 318 318 318 318 318 318 319 320 320 321 322 323 325 327 328 328 328 328 326 325
321 321 320 320 320 320 320 319 319 319 319 319 318 318 318 318 318 318 318 318 318 317 317 317 317 317 317 317 318 318 319 320 320 321 323 325 326 327 327 328 326 325
319 319 318 319 319 319 319 319 318 318 318 318 318 317 317 317 317 317 317 317 317 316 316 316 316 316 316 317 317 318 318 319 320 322 323 324 324 325 326 327 327 326
317 318 317 318 318 318 318 318 317 318 317 317 317 317 317 317 317 316 316 316 315 316 316 316 316 316 316 316 316 317 318 319 321 322 322 323 323 324 325 325 326 326
317 317 317 317 317 317 317 317 317 317 317 317 317 317 317 316 316 316 315 315 315 315 315 315 316 316 316 317 317 317 317 318 319 320 321 322 323 324 325 324 325 326
317 316 316 316 317 317 316 316 316 316 316 316 316 315 315 315 315 315 315 315 316 316 316 316 316 317 317 317 317 317 317 317 317 318 320 323 324 324 324 323 325 326
316 316 316 316 316 316 315 315 315 315 315 315 315 315 315 315 315 315 315 315 316 316 316 316 316 316 317 317 317 318 318 318 317 317 319 321 323 323 323 323 325 326
315 316 316 316 315 315 314 314 314 314 314 314 314 315 315 315 315 315 315 315 315 315 316 316 316 316 316 317 318 318 318 319 318 318 319 320 322 322 323 323 324 326
315 316 315 315 314 314 314 314 314 314 314 314 314 314 314 314 315 315 315 315 315 315 316 316 316 317 317 317 317 318 318 318 319 319 319 320 321 321 322 323 324 325
315 314 314 313 313 313 313 313 313 314 314 314 314 314 314 314 314 314 315 315 316 316 317 317 317 318 318 319 319 319 319 319 319 319 320 320 320 321 322 323 324 324
314 313 313 313 312 313 313 313 313 313 313 313 313 313 313 313 314 315 315 316 317 317 318 318 318 319 319 320 320 320 321 321 320 319 320 320 321 322 323 324 323 324
313 312 312 312 312 312 312 312 313 312 312 312 312 313 313 313 314 315 316 317 317 318 317 318 319 319 318 318 319 320 321 322 321 320 320 321 321 322 323 324 324 324
312 312 312 312 312 312 312 312 312 312 312 312 312 312 313 314 315 315 316 317 317 317 317 318 319 318 317 318 318 319 321 322 322 321 321 321 322 322 323 323 323 323
312 312 312 311 311 311 311 311 311 311 312 312 312 312 313 314 315 315 316 316 316 316 316 317 318 317 316 317 319 320 321 322 322 322 321 321 322 322 322 322 322 322
311 311 310 310 310 310 310 310 311 311 312 312 312 312 313 314 314 315 315 315 315 316 316 316 317 316 316 316 318 320 321 322 322 322 322 322 322 323 322 322 322 322
310 309 309 309 309 309 309 310 311 311 311 311 312 312 313 313 314 314 315 315 315 315 315 315 315 316 316 316 317 318 319 321 321 321 322 322 323 323 323 323 322 322
308 308 308 308 308 308 309 310 310 311 311 311 311 312 312 313 313 313 313 314 314 314 314 314 315 315 316 316 316 317 318 319 320 320 320 322 322 322 322 321 321 321
307 307 307 307 307 308 308 309 310 311 311 311 312 312 312 312 312 312 311 312 312 312 312 313 314 314 314 314 314 314 315 317 318 319 319 320 320 321 321 320 319 319
307 307 306 306 306 307 308 308 309 309 310 311 311 311 311 311 311 310 310 310 310 310 310 311 311 311 312 312 312 312 312 313 315 317 317 318 318 319 319 318 317 317
306 305 305 305 306 307 307 307 307 308 309 309 310 310 310 310 310 309 309 309 309 309 309 309 309 309 310 311 311 311 312 312 312 313 314 315 316 317 316 316 315 315
304 303 304 304 305 306 306 306 306 307 307 308 308 308 309 308 308 308 308 308 308 308 308 308 308 308 309 310 310 310 311 311 311 311 312 312 313 314 314 314 314 314
302 302 302 303 304 305 305 305 306 306 306 306 307 307 307 307 307 307 307 307 307 307 307 307 307 307 308 308 309 309 310 310 310 310 311 310 311 311 311 311 311 312
301 301 301 301 302 303 304 304 305 305 305 305 306 306 306 306 306 306 306 306 306 306 306 306 306 306 307 307 307 308 308 309 309 309 309 309 309 309 309 309 309 309
299 299 300 300 301 302 303 304 304 304 304 304 304 304 304 305 305 305 305 304 304 304 305 305 304 304 305 305 305 306 307 308 308 308 308 308 308 308 308 308 307 307

ECMWFNIL_850_thetae_111.txt.gz
Theta_e
327 327 327 328 328 328 326 324 323 322 321 320 319 319 318 318 318 317 317 317 317 317 317 317 317 317 317 317 317 317 319 322 324 325 325 325 325 326 326 326 326 327
327 327 327 328 326 324 323 321 320 320 319 319 318 318 318 317 317 317 316 316 317 317 317 317 317 316 316 316 316 316 317 321 323 324 324 324 324 324 325 325 325 326
325 325 325 324 323 321 320 320 319 319 318 318 317 317 317 316 316 316 316 316 316 316 316 316 316 316 316 316 316 316 317 319 321 323 323 324 324 324 324 325 325 326
321 321 320 320 320 319 319 318 318 318 317 317 317 316 316 316 316 316 316 316 315 315 315 315 315 315 316 316 316 317 317 318 319 320 321 322 323 324 325 325 325 325
319 319 318 318 318 317 317 317 317 316 316 316 316 316 316 316 315 315 315 315 315 315 315 315 315 315 315 316 316 317 317 317 318 318 318 319 321 323 324 324 324 325
318 317 317 317 316 316 316 316 316 315 315 315 315 315 315 315 315 314 314 314 314 315 315 315 315 315 315 316 316 316 316 317 317 318 318 317 318 319 321 323 325 325
317 317 316 316 315 316 315 315 315 315 315 314 314 314 314 314 314 314 314 314 314 314 315 315 315 315 315 316 316 316 316 317 317 318 318 318 318 317 319 322 325 325
315 315 315 315 315 315 315 314 314 314 314 314 314 314 314 314 314 314 314 314 314 314 315 315 316 316 316 316 317 317 318 318 318 319 319 319 319 318 318 320 321 322
314 315 315 315 315 314 314 314 313 313 313 313 313 313 313 313 313 313 314 314 314 315 316 316 317 317 317 317 318 318 319 319 320 320 320 319 319 319 319 319 319 320
315 315 314 314 313 313 313 313 313 313 313 313 313 313 313 313 313 313 314 314 315 316 317 317 317 316 317 317 318 318 318 319 321 322 321 320 320 319 320 320 320 320
314 314 313 313 313 313 313 312 313 313 313 313 313 313 313 313 313 313 314 314 315 316 317 316 316 316 317 317 317 318 318 320 321 322 321 321 320 320 320 321 321 321
313 313 312 313 312 312 312 312 312 312 312 312 312 312 312 313 313 314 314 315 316 316 316 316 316 317 317 317 317 318 319 320 321 322 321 321 321 321 321 321 321 322
312 312 312 312 312 312 312 312 312 312 312 312 312 312 312 313 313 314 315 316 316 316 316 316 316 317 316 316 317 318 319 320 320 321 321 321 321 321 321 321 321 322
312 312 312 312 311 311 311 311 311 311 311 312 312 312 313 313 314 314 315 315 316 316 316 316 316 315 315 315 316 317 319 320 321 322 322 321 321 322 321 322 321 321
311 311 311 310 310 310 310 310 311 311 311 312 312 312 313 313 314 314 315 315 315 315 315 315 315 315 315 315 316 316 318 319 320 321 321 321 322 322 322 322 322 322
310 310 309 309 309 309 310 311 311 311 311 311 312 312 313 313 313 314 314 314 314 314 315 315 314 314 314 314 314 315 316 317 318 319 319 319 320 321 322 322 322 321
309 308 308 308 309 309 310 311 311 311 311 311 312 312 312 313 313 313 313 314 313 313 313 313 313 313 313 312 312 313 313 315 317 318 318 318 318 319 320 320 320 320
308 307 307 308 308 309 310 310 311 311 311 311 311 311 311 312 312 312 312 312 312 312 312 312 312 312 312 312 312 312 312 313 314 315 316 317 318 318 318 317 317 317
307 307 307 307 308 308 309 309 309 310 310 310 310 310 310 311 311 311 311 311 311 311 310 310 311 311 311 312 312 312 312 312 312 313 314 315 315 315 315 315 315 315
306 306 306 306 307 307 308 308 308 308 309 309 309 309 309 309 309 309 309 310 310 310 309 309 309 310 310 310 311 311 311 311 311 311 312 313 313 312 312 313 313 313
304 304 305 306 306 307 306 306 307 307 307 308 308 308 308 308 308 308 308 308 309 309 308 308 308 309 309 309 310 310 311 311 310 310 310 310 310 310 310 310 311 311
303 304 305 305 305 305 305 305 306 306 306 307 307 307 307 307 307 307 307 307 307 307 307 307 307 307 308 308 309 309 310 309 309 309 309 309 309 309 309 309 309 309
303 303 304 304 304 304 304 305 305 305 305 306 306 306 306 306 306 306 306 306 306 306 306 306 306 306 306 307 307 308 309 309 308 308 308 308 308 307 307 307 307 307
302 302 302 303 303 303 303 304 304 304 304 304 304 305 305 305 305 305 304 304 304 304 304 304 304 304 305 305 306 306 307 307 307 307 306 306 306 306 306 306 305 305
300 301 301 301 302 302 302 302 302 302 303 303 303 303 304 303 303 303 303 302 302 302 302 302 302 302 303 304 304 305 306 306 306 305 305 305 305 305 305 305 305 305
299 300 300 301 301 301 302 302 302 302 302 302 302 302 302 302 302 301 301 301 300 300 300 300 300 300 301 302 302 303 304 304 304 304 304 304 304 304 304 304 304 304

ECMWFNIL_850_thetae_114.txt.gz
Theta_e
328 327 326 326 326 325 324 323 323 322 321 320 320 320 319 317 317 316 316 316 316 316 316 316 316 316 316 318 318 317 318 319 321 324 326 326 326 326 326 326 327 328
326 325 324 324 323 322 321 320 320 320 320 318 318 318 317 316 316 316 316 316 315 315 315 315 315 315 316 317 317 315 316 318 319 322 324 324 324 325 325 326 326 327
323 321 320 321 320 319 319 319 318 318 318 317 317 316 316 316 315 315 315 315 315 315 315 315 315 315 315 315 315 315 316 317 318 319 320 320 321 323 323 325 325 326
320 319 319 319 319 318 318 318 317 317 316 316 316 315 315 315 315 315 315 314 314 314 314 314 314 314 314 314 315 315 315 315 316 317 317 317 319 321 321 322 324 326
319 319 318 318 317 317 317 316 316 315 315 315 315 314 314 314 314 314 314 314 314 314 314 314 314 314 314 314 315 315 315 315 316 316 317 317 318 320 320 320 321 323
318 318 317 317 316 316 316 315 315 315 314 314 314 314 314 314 314 313 313 313 313 314 314 314 315 315 315 315 315 316 316 316 317 317 317 319 319 320 320 319 319 320
317 317 317 316 315 315 315 314 314 314 314 313 313 313 313 313 313 313 313 313 314 315 315 316 316 316 316 316 315 316 316 317 318 318 320 321 321 321 320 319 319 319
315 315 316 315 315 314 314 314 313 313 313 313 313 313 313 313 313 313 313 314 315 316 316 316 316 316 316 316 316 316 317 317 319 320 322 322 322 322 321 320 319 320
315 315 315 314 314 314 313 313 313 313 313 313 313 313 313 313 313 313 314 314 315 316 316 316 316 316 316 316 316 317 318 318 319 320 321 322 322 321 321 321 320 320
315 314 314 313 313 313 313 313 313 313 313 312 312 313 313 313 314 314 315 315 315 316 316 316 316 316 315 315 316 317 318 319 319 320 320 321 321 321 321 321 321 321
314 313 313 313 313 312 312 312 312 312 312 312 312 313 313 313 314 315 315 315 316 316 315 315 315 315 315 315 316 317 318 319 320 320 321 321 321 321 321 321 321 321
313 312 313 312 312 312 311 311 311 311 312 312 313 313 313 314 314 315 315 315 315 315 315 315 315 315 315 315 315 316 317 319 320 320 321 321 322 322 322 322 322 322
312 312 312 311 311 311 311 311 311 311 312 312 313 313 313 314 314 315 315 315 315 314 314 314 314 314 314 314 314 314 315 316 318 319 319 320 321 321 321 322 322 322
311 311 310 310 310 310 311 311 311 311 312 312 313 313 314 314 314 314 313 312 313 313 313 313 313 313 313 313 313 313 313 314 315 316 317 317 319 320 320 320 320 320
310 309 309 310 310 311 311 311 311 311 312 312 313 314 314 313 312 313 312 311 311 312 312 312 312 312 312 312 312 313 313 313 314 314 315 316 317 318 318 317 317 318
309 309 309 310 310 311 311 311 311 311 311 312 312 313 312 311 311 311 311 310 310 311 311 311 311 311 311 311 312 312 312 312 313 313 314 314 315 315 315 315 315 315
309 308 309 310 310 310 310 310 310 310 310 310 311 311 310 310 310 310 310 309 309 309 310 310 310 310 310 311 311 311 312 312 312 312 312 312 312 313 313 313 313 314
308 308 308 309 309 309 309 308 309 309 309 309 309 309 309 309 309 309 308 308 308 308 308 308 309 309 309 310 310 311 311 311 310 310 310 310 310 311 311 311 311 312
307 307 307 307 307 307 308 308 308 308 308 308 308 307 307 308 308 308 307 306 306 307 307 307 308 308 309 309 309 310 310 310 309 309 308 308 309 309 309 309 309 310
307 307 307 307 307 307 307 307 307 307 306 306 306 306 306 306 306 306 306 306 306 306 306 306 306 307 308 308 309 309 309 308 308 307 307 307 307 307 307 307 307 308
306 307 307 306 307 306 306 306 306 306 306 306 306 306 305 305 305 305 305 305 305 304 304 305 305 306 307 307 308 308 308 307 306 306 306 306 306 306 306 306 306 306
306 306 306 306 306 306 306 305 305 305 305 305 305 305 304 304 304 304 304 303 304 304 303 303 303 304 305 306 307 307 307 306 305 305 305 305 305 305 305 305 305 305
306 306 305 305 305 305 305 305 305 305 305 304 304 303 302 302 302 302 301 301 302 302 302 302 301 302 303 303 304 305 306 305 305 305 304 304 304 304 304 304 304 303
305 305 305 305 304 304 304 304 304 304 304 303 302 302 301 301 300 300 299 299 299 301 301 300 300 300 301 301 302 302 304 305 304 304 304 303 303 303 302 302 302 302
304 304 304 304 304 304 304 304 304 303 303 302 302 301 301 300 300 299 298 298 298 298 298 298 298 298 299 299 300 300 302 303 303 303 303 302 301 301 301 301 300 300
303 303 304 304 304 304 303 303 302 301 301 301 301 301 300 299 299 298 298 297 297 296 297 296 296 296 296 297 297 297 299 301 301 302 302 301 300 300 300 300 300 300

ECMWFNIL_850_thetae_117.txt.gz
Theta_e
330 329 329 328 328 327 327 326 326 325 325 325 324 324 323 322 320 316 316 316 315 316 315 315 315 315 316 317 319 321 322 324 325 326 326 326 326 326 326 327 327 328
328 327 326 326 325 325 324 323 324 324 324 323 322 322 321 319 316 315 316 315 315 315 315 314 314 314 315 315 315 315 317 320 322 323 323 323 323 323 323 323 324 325
326 325 324 324 323 323 322 322 322 322 321 320 318 318 317 315 315 315 314 314 314 314 314 314 314 314 314 314 315 315 315 316 317 318 319 319 319 321 321 322 322 323
323 323 322 322 322 322 321 321 321 320 319 318 315 315 315 314 314 314 313 313 313 313 313 314 314 314 315 315 315 316 316 316 317 317 317 317 318 319 320 320 321 322
322 322 321 321 321 320 320 319 319 318 317 316 314 314 314 314 314 313 313 313 313 313 314 314 315 315 316 316 315 316 316 317 317 317 318 319 320 320 320 320 320 321
321 321 320 320 320 319 319 318 317 317 316 315 314 313 313 313 313 313 313 313 314 315 316 316 316 316 316 315 315 316 316 317 317 317 318 320 321 321 322 322 321 320
320 320 319 319 319 319 318 317 316 316 314 314 313 313 313 313 313 313 313 314 315 316 316 316 316 316 315 315 315 316 316 317 318 318 319 319 320 321 321 321 322 321
319 318 318 317 317 317 316 315 314 314 313 313 313 313 313 313 314 314 314 315 316 316 316 316 316 315 315 315 315 316 317 318 319 320 320 320 320 320 321 321 321 321
317 317 316 315 315 315 314 314 313 313 313 313 313 313 313 313 314 315 315 316 316 315 315 315 315 315 315 315 315 316 317 319 320 320 321 321 321 321 321 321 320 321
316 315 315 314 313 313 313 313 313 313 313 313 313 313 313 314 314 315 315 315 315 315 315 315 314 314 314 314 314 315 316 317 318 319 319 320 321 321 321 321 321 322
315 314 314 313 313 313 312 312 312 312 312 312 313 313 314 314 314 315 314 314 314 314 314 314 314 313 313 313 313 314 314 315 315 316 316 317 319 320 321 321 321 321
314 313 312 312 312 312 312 312 312 312 312 313 313 314 314 314 314 313 313 313 313 313 313 313 313 313 313 312 313 313 313 314 314 314 315 315 316 317 318 318 317 317
313 313 312 311 311 311 312 312 312 312 313 313 313 312 312 312 312 312 312 312 312 312 312 312 312 312 312 311 312 313 313 313 313 314 314 314 314 314 314 314 314 313
312 311 311 311 311 311 312 312 312 312 313 312 312 311 311 311 312 312 312 312 311 311 311 311 311 311 311 311 311 312 312 313 312 313 312 312 312 312 312 312 312 312
311 310 310 311 311 311 311 312 312 312 311 311 311 311 311 311 311 311 311 311 310 310 310 310 310 309 309 310 310 311 312 312 311 311 311 310 310 311 310 310 311 311
310 310 311 311 311 311 311 311 311 311 311 311 310 310 310 310 310 310 310 309 309 309 309 309 309 309 309 309 310 310 311 311 310 310 310 309 309 309 309 309 309 309
310 310 310 310 310 310 310 310 310 310 310 310 310 310 309 309 309 309 309 309 308 308 308 308 308 308 309 309 309 310 310 310 309 309 308 308 308 307 307 308 308 308
310 310 310 310 310 310 310 310 310 310 309 309 309 309 309 308 308 308 309 308 308 307 306 307 307 307 308 309 309 309 309 309 309 308 307 307 307 307 306 306 307 307
310 310 310 310 310 310 309 309 309 309 309 309 309 309 308 308 307 308 308 308 307 306 305 305 306 307 307 308 308 308 308 308 308 307 307 306 306 305 305 305 305 305
310 310 310 309 309 309 309 309 309 308 308 308 308 308 308 307 307 307 307 307 306 305 303 303 304 305 306 306 307 307 307 307 307 307 306 306 305 304 304 304 303 303
310 309 309 309 309 308 308 308 308 308 308 308 307 307 307 306 306 306 306 306 305 304 302 302 302 303 303 304 306 307 307 307 307 306 305 305 304 304 303 302 301 301
309 309 308 308 308 308 308 307 307 307 307 307 306 306 305 305 305 305 305 305 304 302 300 300 300 301 301 302 304 306 307 306 306 305 305 304 303 303 303 302 301 300
309 308 308 308 308 307 307 307 307 307 306 306 306 305 305 304 303 302 302 302 301 299 298 298 298 298 299 300 302 304 305 305 305 304 304 303 303 302 302 302 301 300
308 308 307 307 307 307 307 307 306 306 306 305 305 305 305 304 302 300 298 298 298 297 296 296 296 296 297 297 299 301 303 305 304 304 303 302 302 302 301 301 301 300
307 307 306 306 306 306 306 306 306 305 305 305 305 305 304 304 303 301 299 297 296 296 296 296 295 295 295 296 296 298 300 303 304 303 302 302 302 301 301 301 300 300
306 306 306 306 305 305 305 305 305 305 305 305 305 304 304 304 304 303 302 299 296 295 295 295 295 295 295 295 295 295 297 300 301 302 302 302 301 301 301 300 300 300

ECMWFNIL_850_thetae_120.txt.gz
Theta_e
334 334 334 333 333 333 332 330 329 328 327 327 326 325 325 324 320 316 316 315 315 315 315 315 314 314 314 313 314 314 315 315 317 319 319 319 320 320 321 322 322 323
333 333 332 332 332 331 330 328 326 325 325 325 325 324 322 320 316 315 315 315 314 314 314 314 314 314 314 313 313 314 314 314 315 316 315 316 317 316 317 318 318 319
330 330 329 329 328 327 326 324 323 324 324 323 321 319 318 316 315 315 315 315 314 314 314 313 313 314 314 314 314 314 314 315 315 314 314 315 316 316 318 318 318 319
328 327 326 325 324 323 323 322 321 321 321 320 317 316 316 315 315 315 315 315 314 314 314 314 314 315 315 314 314 314 314 314 314 314 315 316 317 318 319 320 320 320
326 325 323 322 322 321 321 321 320 319 317 317 316 315 315 314 314 315 315 315 314 314 314 314 315 315 314 314 314 314 314 314 315 316 317 318 319 318 319 320 320 320
323 322 322 321 321 320 320 319 319 318 316 316 315 315 314 314 314 315 314 314 314 315 315 315 315 314 314 314 314 314 314 315 317 318 319 320 320 319 320 320 319 319
322 321 321 320 320 319 318 317 317 317 316 315 314 314 314 314 313 314 314 314 315 315 315 315 314 314 314 314 315 315 315 316 318 319 320 320 320 320 320 320 319 319
321 320 319 319 318 317 316 316 315 315 315 314 313 314 314 314 314 314 314 315 315 315 315 314 314 314 314 314 314 315 315 316 317 318 317 317 318 319 319 320 320 320
319 318 317 317 316 315 315 315 314 314 314 313 313 313 313 314 315 315 315 315 315 314 314 314 314 313 313 313 313 313 314 314 315 315 315 314 315 316 317 317 317 317
317 316 315 315 314 314 314 314 313 313 313 313 313 313 314 314 314 314 314 314 314 314 314 314 313 313 313 312 312 312 313 313 314 314 313 313 313 313 313 314 314 313
315 314 313 313 313 313 313 313 313 313 313 313 313 313 314 313 313 314 314 314 314 313 313 313 313 312 312 311 312 312 312 313 313 312 312 312 311 311 312 312 312 312
314 312 312 312 312 312 312 312 312 312 312 312 313 313 313 313 313 313 313 313 313 313 312 312 312 311 311 311 311 311 312 312 312 311 311 311 311 311 310 311 311 311
312 311 312 311 311 312 312 312 312 312 312 312 312 313 313 313 313 312 312 312 312 312 311 310 310 310 310 309 310 310 311 311 311 310 310 309 310 310 309 309 310 310
311 311 312 311 311 311 311 312 311 311 311 312 312 312 312 312 312 311 311 311 310 310 309 309 309 308 308 308 309 310 310 310 310 309 309 309 309 308 308 308 309 309
311 311 311 311 312 312 311 311 311 311 311 311 311 311 312 312 311 310 310 309 309 309 308 308 307 307 308 308 309 309 309 309 309 308 308 308 308 307 307 307 307 307
310 311 311 311 311 311 311 311 311 311 311 310 310 310 311 311 310 309 309 308 308 308 307 307 307 307 308 308 309 309 309 309 308 308 307 307 307 307 307 305 305 305
310 311 311 311 311 311 311 311 310 310 310 310 309 309 309 309 309 309 308 307 306 306 306 306 307 307 308 308 308 308 308 308 308 307 307 306 306 305 304 303 302 303
311 311 311 311 311 311 311 310 310 310 310 309 308 308 308 308 308 308 308 306 305 305 305 305 306 306 307 307 307 307 307 307 307 306 305 304 304 303 302 300 300 301
311 311 311 311 311 310 310 310 310 310 309 309 308 308 307 307 307 307 307 305 303 303 304 304 304 305 305 306 307 306 306 307 306 305 304 303 303 302 301 300 299 299
311 311 311 310 310 310 310 310 309 309 309 308 308 308 307 307 307 306 305 303 302 301 302 302 302 303 304 306 306 306 306 306 305 304 303 302 302 302 301 300 299 298
311 310 310 310 309 309 309 309 309 309 308 308 308 307 307 306 306 306 303 300 299 299 299 299 300 301 304 306 306 306 306 305 304 303 303 302 302 302 301 299 298 297
310 310 310 309 309 309 308 308 308 308 307 307 306 306 306 306 306 304 301 298 297 297 297 298 298 299 302 305 305 305 305 304 302 303 303 302 302 302 301 299 297 297
310 309 309 309 308 308 308 308 307 307 306 305 304 302 302 302 302 300 298 297 296 296 296 297 297 297 300 303 305 305 304 303 302 302 302 302 302 301 300 299 297 296
309 309 309 308 308 308 308 307 307 306 306 306 304 300 298 298 297 297 296 296 296 296 296 296 296 296 297 300 302 303 303 303 303 302 302 302 301 301 300 300 298 297
309 308 308 308 308 307 307 306 306 305 305 305 305 303 301 299 297 296 295 295 295 295 295 295 295 295 296 297 298 299 299 301 302 301 301 301 300 300 299 299 298 297
308 308 308 308 307 307 306 306 305 305 305 305 305 305 304 303 300 298 295 295 295 295 295 294 294 294 295 295 296 296 296 297 298 299 300 300 299 298 298 297 297 297

ECMWFNIL_850_thetae_123.txt.gz
Theta_e
334 334 334 334 333 333 334 333 333 333 331 330 328 326 325 325 322 319 316 315 315 314 314 314 314 314 313 313 313 313 313 313 313 314 314 315 315 315 316 317 318 318
334 334 334 333 333 333 333 333 332 332 331 329 327 325 325 324 320 317 315 314 314 313 313 313 313 313 314 313 313 313 313 313 314 314 314 314 315 315 316 317 317 318
334 334 333 333 333 333 332 332 332 331 329 327 325 325 325 322 318 315 314 313 313 313 313 313 313 314 314 314 314 313 313 313 314 314 314 314 315 315 316 317 317 318
334 334 333 333 332 332 332 331 330 327 326 325 323 322 321 318 315 313 313 313 313 313 314 314 314 314 314 313 313 313 312 313 315 315 315 316 316 317 317 317 317 317
333 332 332 331 330 330 329 329 327 325 324 323 321 318 316 315 314 314 313 313 314 315 315 314 314 314 313 313 313 314 314 315 316 316 317 317 318 318 318 317 317 316
330 329 328 328 327 327 326 326 325 324 322 320 317 315 314 313 313 313 313 313 314 315 314 314 314 313 313 314 314 314 315 315 316 317 316 317 317 317 316 316 316 315
327 326 326 326 325 325 325 325 324 322 319 316 315 315 313 313 313 314 314 314 314 314 314 313 313 313 313 313 313 314 314 314 315 315 314 315 315 315 314 314 314 313
325 325 325 324 324 324 323 323 322 319 316 314 314 314 313 313 314 314 314 314 314 314 314 313 313 313 313 313 312 313 313 313 313 313 313 312 312 312 312 311 311 310
324 324 323 323 323 322 321 320 318 316 314 313 313 313 314 314 314 314 314 314 314 314 313 313 313 312 312 312 312 312 312 312 312 312 311 311 310 310 310 310 310 310
322 322 321 322 321 319 318 316 314 313 313 312 312 313 314 314 314 314 314 314 313 313 313 313 312 312 311 311 311 311 311 311 311 311 310 310 310 309 309 309 310 309
320 320 319 319 318 316 315 314 312 312 312 312 312 313 314 313 313 313 314 313 313 313 313 312 311 311 311 310 310 311 311 311 309 309 309 309 309 308 308 309 309 309
318 317 317 316 314 313 313 312 311 311 312 313 313 313 313 313 313 313 313 313 313 312 312 311 310 309 309 309 309 310 310 309 308 307 308 308 307 307 307 308 308 307
315 313 313 313 312 311 312 311 311 312 313 313 313 313 313 313 313 312 312 312 312 311 310 309 308 308 308 308 309 309 309 308 307 307 308 307 306 305 305 305 306 305
311 311 311 311 311 311 311 310 311 312 313 313 313 313 313 312 312 312 311 311 310 309 309 308 307 308 308 308 309 309 308 308 307 307 307 306 304 304 304 303 303 302
311 310 310 310 310 310 310 311 312 312 312 312 313 313 312 312 311 310 310 309 309 308 307 307 307 307 308 308 308 308 308 308 307 307 305 303 302 302 302 301 301 301
310 310 310 310 310 310 311 311 311 312 312 312 312 312 311 311 309 309 308 308 308 307 306 307 307 307 307 307 307 307 307 306 305 304 302 301 300 300 299 299 300 300
309 309 310 310 310 311 311 311 311 311 311 311 311 311 310 309 308 308 307 307 306 306 306 306 306 306 307 306 306 305 304 302 301 301 300 299 298 298 298 298 299 299
309 310 310 310 310 310 310 310 310 309 310 310 310 309 308 307 307 306 305 305 305 304 304 304 305 306 306 305 305 303 301 300 300 300 299 297 296 296 297 297 298 299
311 311 311 310 310 310 310 310 309 308 308 308 307 307 307 307 305 304 303 303 303 303 303 304 305 305 305 305 304 301 300 299 298 298 298 297 296 296 297 297 298 298
311 311 311 311 310 310 309 309 308 307 307 306 306 306 306 304 302 301 301 301 301 301 301 303 305 305 305 305 302 300 299 299 298 298 297 296 296 296 296 297 298 298
311 311 310 310 309 309 309 308 308 308 307 306 306 306 305 302 300 300 299 299 299 299 300 303 305 305 306 304 301 300 300 301 301 299 298 297 296 296 297 297 297 298
310 310 310 309 309 309 309 308 308 308 307 306 306 306 303 300 298 298 297 297 297 297 299 302 304 305 305 303 301 301 301 302 301 301 299 297 296 296 297 297 297 298
310 310 309 309 309 309 309 308 308 308 307 307 305 303 300 298 297 297 296 296 296 296 298 300 303 304 304 302 302 302 301 301 301 301 299 298 296 296 297 297 297 298
309 309 309 308 308 308 308 307 306 305 304 304 302 300 298 297 296 296 296 296 295 296 296 298 300 302 302 301 301 301 299 298 299 298 298 296 296 296 297 297 297 298
309 308 308 308 308 307 307 305 303 300 299 299 298 297 296 296 296 296 295 295 295 295 295 296 297 298 298 299 299 299 298 296 296 295 295 295 296 296 297 297 297 298
308 308 308 308 307 307 306 304 302 300 298 297 296 296 296 295 295 295 295 294 294 294 294 295 295 295 296 296 297 297 296 295 295 294 295 295 296 296 296 297 297 298